[[{"header":{"parameterUnit":"m.s-1","parameterCategory":1,"la1":30.6,"la2":29.2853,"lo1":-89.7004,"lo2":-87.6739,"dy":0.0162,"dx":0.0183,"nx":112,"ny":82,"refTime":"2024-05-19T06:00:00:Z","depth":0,"parameterNumber":2,"parameterNumberName":"U-component_of_WINDS"},"data":[0.0,0.0,0.0,0.0,0.0,0.0,0.0,0.0,0.0,0.0,0.0,0.0,0.0,0.0,0.0,0.0,0.0,0.0,0.0,0.0,0.0,0.0,0.0,0.0,0.0,0.0,0.0,0.0,0.0,0.0,0.0,0.0,0.0,0.0,0.0,0.0,0.0,0.0,0.0,0.0,0.0,0.0,0.0,0.0,0.0,0.0,0.0,0.0,0.0,0.0,0.0,0.0,0.0,0.0,0.0,0.0,0.0,0.0,0.0,0.0,0.0,0.0,0.0,0.0,0.0,0.0,0.0,0.0,0.0,0.0,0.0,0.0,0.0,0.0,0.0,0.0,0.0,0.0,0.0,0.0,0.0,0.0,0.0,0.0,0.0,0.0,0.0,0.0,0.0,0.0,-4.491,-4.571,-4.5807,-4.573,-4.5569,-4.5333,-4.4402,-4.256,0.0,0.0,0.0,0.0,0.0,0.0,0.0,0.0,0.0,0.0,0.0,0.0,0.0,0.0,0.0,0.0,0.0,0.0,0.0,0.0,0.0,0.0,0.0,0.0,0.0,0.0,0.0,0.0,0.0,0.0,0.0,0.0,0.0,0.0,0.0,0.0,0.0,0.0,0.0,0.0,0.0,0.0,0.0,0.0,0.0,0.0,0.0,0.0,0.0,0.0,0.0,0.0,0.0,0.0,0.0,0.0,0.0,0.0,0.0,0.0,0.0,0.0,0.0,0.0,0.0,0.0,0.0,0.0,0.0,0.0,0.0,0.0,0.0,0.0,0.0,0.0,0.0,0.0,0.0,0.0,0.0,0.0,0.0,0.0,0.0,0.0,0.0,0.0,0.0,0.0,0.0,0.0,0.0,0.0,0.0,0.0,0.0,0.0,0.0,0.0,0.0,0.0,0.0,0.0,-4.491,-4.571,-4.5807,-4.5793,-4.5752,-4.5409,-4.4475,-4.2765,0.0,0.0,0.0,0.0,0.0,0.0,0.0,0.0,0.0,0.0,0.0,0.0,0.0,0.0,0.0,0.0,0.0,0.0,0.0,0.0,0.0,0.0,0.0,0.0,0.0,0.0,0.0,0.0,0.0,0.0,0.0,0.0,0.0,0.0,0.0,0.0,0.0,0.0,0.0,0.0,0.0,0.0,0.0,0.0,0.0,0.0,0.0,0.0,0.0,0.0,0.0,0.0,0.0,0.0,0.0,0.0,0.0,0.0,0.0,0.0,0.0,0.0,0.0,0.0,0.0,0.0,0.0,0.0,0.0,0.0,0.0,0.0,0.0,0.0,0.0,0.0,0.0,0.0,0.0,0.0,0.0,0.0,0.0,0.0,0.0,0.0,0.0,0.0,0.0,0.0,0.0,0.0,0.0,0.0,0.0,0.0,0.0,0.0,0.0,0.0,0.0,0.0,0.0,-4.5007,-4.5394,-4.5768,-4.6232,-4.6274,-4.568,-4.5362,-4.4433,-4.265,-4.2208,0.0,0.0,0.0,0.0,0.0,0.0,0.0,0.0,0.0,0.0,0.0,0.0,0.0,0.0,0.0,0.0,0.0,0.0,0.0,0.0,0.0,0.0,0.0,0.0,0.0,0.0,0.0,0.0,0.0,0.0,0.0,0.0,0.0,0.0,0.0,0.0,0.0,0.0,0.0,0.0,0.0,0.0,0.0,0.0,0.0,0.0,0.0,0.0,0.0,0.0,0.0,0.0,0.0,0.0,0.0,0.0,0.0,0.0,0.0,0.0,0.0,0.0,0.0,0.0,0.0,0.0,0.0,0.0,0.0,0.0,0.0,0.0,0.0,0.0,0.0,0.0,0.0,0.0,0.0,0.0,0.0,0.0,0.0,0.0,0.0,0.0,0.0,0.0,0.0,0.0,0.0,0.0,0.0,0.0,0.0,0.0,0.0,0.0,0.0,0.0,0.0,0.0,-4.6155,-4.6406,-4.6406,-4.6825,-4.6761,-4.596,-4.5266,-4.4202,-4.2563,-4.2002,0.0,0.0,0.0,0.0,0.0,0.0,0.0,0.0,0.0,0.0,0.0,0.0,0.0,0.0,0.0,0.0,0.0,0.0,0.0,0.0,0.0,0.0,0.0,0.0,0.0,0.0,0.0,0.0,0.0,0.0,0.0,0.0,0.0,0.0,0.0,0.0,0.0,0.0,0.0,0.0,0.0,0.0,0.0,0.0,0.0,0.0,0.0,0.0,0.0,0.0,0.0,0.0,0.0,0.0,0.0,0.0,0.0,0.0,0.0,0.0,0.0,0.0,0.0,0.0,0.0,0.0,0.0,0.0,0.0,0.0,0.0,0.0,0.0,0.0,0.0,0.0,0.0,0.0,0.0,0.0,0.0,0.0,0.0,0.0,0.0,0.0,0.0,0.0,0.0,0.0,0.0,0.0,0.0,0.0,0.0,0.0,0.0,0.0,0.0,0.0,0.0,0.0,-4.7212,-4.8217,-4.8217,-4.754,-4.7076,-4.6984,-4.5148,-4.3616,-4.2727,-4.1555,0.0,0.0,0.0,0.0,0.0,0.0,0.0,0.0,0.0,0.0,0.0,0.0,0.0,0.0,0.0,0.0,0.0,0.0,0.0,0.0,0.0,0.0,0.0,0.0,0.0,0.0,0.0,0.0,0.0,0.0,0.0,0.0,0.0,0.0,0.0,0.0,0.0,0.0,0.0,0.0,0.0,0.0,0.0,0.0,0.0,0.0,0.0,0.0,0.0,0.0,0.0,0.0,0.0,0.0,0.0,0.0,0.0,0.0,0.0,0.0,0.0,0.0,0.0,0.0,0.0,0.0,0.0,0.0,0.0,0.0,0.0,0.0,0.0,0.0,0.0,0.0,0.0,0.0,0.0,0.0,0.0,0.0,0.0,0.0,0.0,0.0,0.0,0.0,0.0,0.0,0.0,0.0,0.0,0.0,0.0,0.0,0.0,0.0,0.0,0.0,0.0,0.0,-4.7308,-4.8392,-4.8392,-4.8101,-4.7695,-4.7154,-4.5628,-4.4152,-4.2795,0.0,0.0,0.0,0.0,0.0,0.0,0.0,0.0,0.0,0.0,0.0,0.0,0.0,0.0,0.0,0.0,0.0,0.0,0.0,0.0,0.0,0.0,0.0,0.0,0.0,0.0,0.0,0.0,0.0,0.0,0.0,0.0,0.0,0.0,0.0,0.0,0.0,0.0,0.0,0.0,0.0,0.0,0.0,0.0,0.0,0.0,0.0,0.0,0.0,0.0,0.0,0.0,0.0,0.0,0.0,0.0,0.0,0.0,0.0,0.0,0.0,0.0,0.0,0.0,0.0,0.0,0.0,0.0,0.0,0.0,0.0,0.0,0.0,0.0,0.0,0.0,0.0,0.0,0.0,0.0,0.0,0.0,0.0,0.0,0.0,0.0,0.0,0.0,0.0,0.0,0.0,0.0,0.0,0.0,0.0,0.0,0.0,0.0,0.0,0.0,0.0,0.0,-4.5278,-4.7405,-4.8701,-4.843,-4.814,-4.7753,-4.7154,-4.5686,-4.4075,-4.2412,0.0,0.0,0.0,0.0,0.0,0.0,0.0,0.0,0.0,0.0,0.0,0.0,0.0,0.0,0.0,0.0,0.0,0.0,0.0,0.0,0.0,0.0,0.0,0.0,0.0,0.0,0.0,0.0,0.0,0.0,0.0,0.0,0.0,0.0,0.0,0.0,0.0,0.0,0.0,0.0,0.0,0.0,0.0,0.0,0.0,0.0,0.0,0.0,0.0,0.0,0.0,0.0,0.0,0.0,0.0,0.0,0.0,0.0,0.0,0.0,0.0,0.0,0.0,0.0,0.0,0.0,0.0,0.0,0.0,0.0,0.0,0.0,0.0,0.0,0.0,0.0,0.0,0.0,0.0,0.0,0.0,0.0,0.0,0.0,0.0,0.0,0.0,0.0,0.0,0.0,0.0,0.0,0.0,0.0,0.0,0.0,0.0,0.0,0.0,0.0,0.0,0.0,-4.4594,-4.7579,-4.9378,-4.8488,-4.7618,-4.7096,-4.7096,-4.5118,-4.3216,0.0,0.0,0.0,0.0,0.0,0.0,0.0,0.0,0.0,0.0,0.0,0.0,0.0,0.0,0.0,0.0,0.0,0.0,0.0,0.0,0.0,0.0,0.0,0.0,0.0,0.0,0.0,0.0,0.0,0.0,0.0,0.0,0.0,0.0,0.0,0.0,0.0,0.0,0.0,0.0,0.0,0.0,0.0,0.0,0.0,0.0,0.0,0.0,0.0,0.0,0.0,0.0,0.0,0.0,0.0,0.0,0.0,0.0,0.0,0.0,0.0,0.0,0.0,0.0,0.0,0.0,0.0,0.0,0.0,0.0,0.0,0.0,0.0,0.0,0.0,0.0,0.0,0.0,0.0,0.0,0.0,0.0,0.0,0.0,0.0,0.0,0.0,0.0,0.0,0.0,0.0,0.0,0.0,0.0,0.0,0.0,0.0,0.0,0.0,0.0,0.0,0.0,0.0,-4.3769,-4.7212,-4.9378,-4.8488,-4.7618,-4.7096,-4.7096,-4.5118,-4.3216,-4.1599,0.0,0.0,0.0,0.0,0.0,0.0,0.0,0.0,0.0,0.0,0.0,0.0,0.0,0.0,0.0,0.0,0.0,0.0,0.0,0.0,0.0,0.0,0.0,0.0,0.0,0.0,0.0,0.0,0.0,0.0,0.0,0.0,0.0,0.0,0.0,0.0,0.0,0.0,0.0,0.0,0.0,0.0,0.0,0.0,0.0,0.0,0.0,0.0,0.0,0.0,0.0,0.0,0.0,0.0,0.0,0.0,0.0,0.0,0.0,0.0,0.0,0.0,0.0,0.0,0.0,0.0,0.0,0.0,0.0,0.0,0.0,0.0,0.0,0.0,0.0,0.0,0.0,0.0,0.0,0.0,0.0,0.0,0.0,0.0,0.0,0.0,0.0,0.0,0.0,0.0,0.0,0.0,0.0,0.0,0.0,0.0,0.0,0.0,0.0,0.0,0.0,0.0,-4.2899,-4.6535,-4.8701,-4.7482,-4.6883,-4.6581,-4.6581,-4.4926,-4.3063,-4.1102,0.0,0.0,0.0,0.0,0.0,0.0,0.0,0.0,0.0,0.0,0.0,0.0,0.0,0.0,0.0,0.0,0.0,0.0,0.0,0.0,0.0,0.0,0.0,0.0,0.0,0.0,0.0,0.0,0.0,0.0,0.0,0.0,0.0,0.0,0.0,0.0,0.0,0.0,0.0,0.0,0.0,0.0,0.0,0.0,0.0,0.0,0.0,0.0,0.0,0.0,0.0,0.0,0.0,0.0,0.0,0.0,0.0,0.0,0.0,0.0,0.0,0.0,0.0,0.0,0.0,0.0,0.0,0.0,0.0,0.0,0.0,0.0,0.0,0.0,0.0,0.0,0.0,0.0,0.0,0.0,0.0,0.0,0.0,0.0,0.0,0.0,0.0,0.0,0.0,0.0,0.0,0.0,0.0,0.0,0.0,0.0,0.0,0.0,0.0,0.0,0.0,0.0,-4.2009,-4.5626,-4.7637,-4.5981,-4.5807,-4.5807,-4.5807,-4.4561,-4.2757,-4.0355,0.0,0.0,0.0,0.0,0.0,0.0,0.0,0.0,0.0,0.0,0.0,0.0,0.0,0.0,0.0,0.0,0.0,0.0,0.0,0.0,0.0,0.0,0.0,0.0,0.0,0.0,0.0,0.0,0.0,0.0,0.0,0.0,0.0,0.0,0.0,0.0,0.0,0.0,0.0,0.0,0.0,0.0,0.0,0.0,0.0,0.0,0.0,0.0,0.0,0.0,0.0,0.0,0.0,0.0,0.0,0.0,0.0,0.0,0.0,0.0,-4.6748,-4.6426,0.0,0.0,0.0,0.0,0.0,0.0,0.0,0.0,0.0,0.0,0.0,0.0,0.0,0.0,0.0,0.0,0.0,0.0,0.0,0.0,0.0,0.0,0.0,0.0,0.0,0.0,0.0,0.0,0.0,0.0,0.0,0.0,0.0,0.0,0.0,0.0,0.0,0.0,0.0,0.0,-4.1164,-4.4755,-4.696,-4.5904,-4.5807,-4.5807,-4.5807,-4.4051,-4.2173,-4.0317,-3.7652,0.0,0.0,0.0,0.0,0.0,0.0,0.0,0.0,0.0,0.0,0.0,0.0,0.0,0.0,0.0,0.0,0.0,0.0,0.0,0.0,0.0,0.0,0.0,0.0,0.0,0.0,0.0,0.0,0.0,0.0,0.0,0.0,0.0,0.0,0.0,0.0,0.0,0.0,0.0,0.0,0.0,0.0,0.0,0.0,0.0,0.0,0.0,0.0,0.0,0.0,0.0,0.0,0.0,0.0,0.0,0.0,0.0,0.0,0.0,-4.727,-4.7076,0.0,0.0,0.0,0.0,0.0,0.0,0.0,0.0,0.0,0.0,0.0,0.0,0.0,0.0,0.0,0.0,0.0,0.0,0.0,0.0,0.0,0.0,0.0,0.0,0.0,0.0,0.0,0.0,0.0,0.0,0.0,0.0,0.0,0.0,0.0,0.0,0.0,0.0,0.0,0.0,-4.0893,-4.4491,-4.6767,-4.5884,-4.5807,-4.5807,-4.5807,-4.3973,-4.2302,-4.1042,-3.7927,0.0,0.0,0.0,0.0,0.0,0.0,0.0,0.0,0.0,0.0,0.0,0.0,0.0,0.0,0.0,0.0,0.0,0.0,0.0,0.0,0.0,0.0,0.0,0.0,0.0,0.0,0.0,0.0,0.0,0.0,0.0,0.0,0.0,0.0,0.0,0.0,0.0,0.0,0.0,0.0,0.0,0.0,0.0,0.0,0.0,0.0,0.0,0.0,0.0,0.0,0.0,0.0,0.0,-4.8701,-4.8682,-4.8411,-4.8566,-4.8624,-4.8585,-4.7869,-4.7869,-4.8275,-4.667,0.0,0.0,0.0,0.0,0.0,0.0,0.0,0.0,0.0,0.0,0.0,0.0,0.0,0.0,0.0,0.0,0.0,0.0,0.0,0.0,0.0,0.0,-4.1609,-4.1319,-4.1738,-4.1641,-3.9547,0.0,0.0,0.0,0.0,0.0,0.0,0.0,0.0,0.0,0.0,0.0,-4.1087,-4.4446,-4.66,-4.5884,-4.5807,-4.5749,-4.5587,-4.4006,-4.259,-4.1624,-3.8314,-3.6343,0.0,0.0,0.0,0.0,0.0,0.0,0.0,0.0,0.0,0.0,0.0,0.0,0.0,0.0,0.0,0.0,0.0,0.0,0.0,0.0,0.0,0.0,0.0,0.0,0.0,0.0,0.0,0.0,0.0,0.0,0.0,0.0,-4.5586,-4.5058,0.0,0.0,0.0,0.0,0.0,0.0,0.0,0.0,0.0,0.0,0.0,0.0,0.0,-4.8333,-4.8237,-4.9088,-4.9146,-4.8411,-4.9881,-4.9823,-4.843,-4.9184,-4.9533,-4.9513,-4.9417,0.0,-4.8314,-4.7347,0.0,0.0,0.0,0.0,0.0,0.0,0.0,0.0,0.0,0.0,0.0,0.0,0.0,0.0,0.0,0.0,0.0,0.0,0.0,0.0,0.0,0.0,-4.4782,-4.3324,-4.3053,-4.3034,-4.2705,-4.0984,-3.9423,-3.9191,-3.8644,-3.7883,0.0,0.0,0.0,0.0,0.0,0.0,-4.1777,-4.4253,-4.5923,-4.5807,-4.5807,-4.551,-4.4813,-4.3671,-4.2332,-4.0762,-3.798,-3.6102,-3.5395,-3.4201,0.0,0.0,0.0,0.0,0.0,0.0,0.0,0.0,0.0,0.0,0.0,0.0,0.0,0.0,0.0,0.0,0.0,0.0,0.0,0.0,0.0,0.0,0.0,0.0,0.0,0.0,0.0,0.0,0.0,-4.4844,-4.5781,-4.6387,-4.6269,-4.6172,0.0,0.0,0.0,0.0,0.0,0.0,0.0,0.0,0.0,-4.8392,-4.8875,-4.9126,-4.9126,-4.9958,-5.0183,-4.9823,-5.055,-5.0511,-4.9823,-5.0202,-5.0376,-5.0376,-5.0376,-5.0163,-4.9745,-4.8914,-4.8055,-4.7132,0.0,0.0,0.0,0.0,-4.4172,-4.3605,-4.4926,-4.4578,-4.3515,-4.3431,0.0,0.0,0.0,0.0,0.0,0.0,0.0,-4.3246,-4.2989,-4.404,-4.5045,-4.4775,-4.4717,-4.4717,-4.4717,-4.346,-4.2086,-4.11,-4.0597,-3.9765,-3.7941,-3.7632,0.0,0.0,0.0,-4.1777,-4.2628,-4.4523,-4.5807,-4.5807,-4.5807,-4.5471,-4.4671,-4.3714,-4.2654,-4.1426,-3.9326,-3.7769,-3.6921,-3.5605,-3.4507,0.0,0.0,0.0,0.0,0.0,0.0,0.0,0.0,0.0,0.0,0.0,0.0,0.0,0.0,0.0,0.0,0.0,0.0,0.0,0.0,0.0,0.0,0.0,0.0,0.0,0.0,0.0,0.0,-4.5723,-4.6406,-4.7461,-4.6855,-4.6406,0.0,0.0,0.0,0.0,0.0,0.0,-4.8832,-4.9049,-4.9129,-4.9037,-4.9668,-5.0016,-5.0016,-5.0589,-5.0898,-5.0898,-5.0898,-5.0898,-5.0898,-5.0898,-5.0898,-5.0898,-5.0898,-5.0898,-5.084,-5.0035,-4.932,-4.8643,-4.7773,-4.6535,-4.5355,-4.6225,-4.5993,-4.5452,-4.6922,-4.6864,-4.6078,-4.5684,-4.4697,-4.3401,-4.2144,0.0,0.0,0.0,0.0,-4.3788,-4.442,-4.4755,-4.5065,-4.5671,-4.5807,-4.5807,-4.5807,-4.5336,-4.4465,-4.2957,-4.2492,-4.1661,-3.9533,-3.916,0.0,-3.916,-4.0984,-4.2647,-4.3518,-4.4891,-4.5807,-4.5807,-4.5633,-4.5162,-4.4349,-4.3479,-4.2609,-4.1757,-4.0313,-3.9114,-3.8232,-3.6787,-3.5491,-3.4413,0.0,0.0,0.0,0.0,0.0,0.0,0.0,0.0,0.0,0.0,0.0,0.0,0.0,0.0,0.0,0.0,0.0,0.0,0.0,0.0,0.0,0.0,0.0,0.0,0.0,0.0,0.0,0.0,0.0,-4.7695,-4.8984,0.0,0.0,0.0,0.0,-4.8828,-4.9479,-4.9867,-4.9831,-5.0558,-5.0908,-5.079,-5.0821,-5.084,-5.084,-5.0879,-5.0898,-5.0898,-5.0898,-5.0898,-5.0898,-5.0898,-5.0898,-5.0898,-5.0898,-5.0898,-5.084,-5.0035,-4.9668,-4.9552,-4.8682,-4.7773,-4.7076,-4.7947,-4.7715,-4.7096,-4.8024,-4.7753,-4.7154,-4.7947,-4.6535,-4.4516,-4.442,-4.3285,0.0,0.0,-4.3227,-4.4536,-4.4594,-4.5162,-4.5749,-4.5787,-4.5807,-4.5807,-4.5807,-4.5768,-4.549,-4.4639,-4.3808,-4.2937,-4.197,0.0,-4.1816,-4.1816,-4.2628,-4.3556,-4.442,-4.5278,-4.5807,-4.5807,-4.5123,-4.4311,-4.344,-4.257,-4.1719,-4.0913,-4.0004,-3.9114,-3.8232,-3.7328,-3.6071,-3.4432,-3.4355,0.0,0.0,0.0,0.0,0.0,0.0,0.0,0.0,0.0,0.0,0.0,0.0,0.0,0.0,0.0,0.0,0.0,0.0,0.0,0.0,0.0,0.0,0.0,0.0,0.0,0.0,0.0,0.0,-4.9238,-4.9336,0.0,-4.8496,-4.8711,-4.9121,-4.9687,-4.9979,-5.031,-5.072,-5.1535,-5.1919,-5.1745,-5.2279,-5.2298,-5.1738,-5.1738,-5.1467,-5.0898,-5.0898,-5.0898,-5.0898,-5.0898,-5.0898,-5.0898,-5.0898,-5.0898,-5.0879,-5.0589,-5.0473,-5.0434,-5.0124,-4.9494,-4.8875,-4.9707,-4.9475,-4.8894,-4.9726,-4.9475,-4.874,-4.8488,-4.7405,-4.6206,-4.6206,-4.5374,-4.4453,-4.4453,-4.4891,-4.5374,-4.5374,-4.5587,-4.5807,-4.5807,-4.5807,-4.5807,-4.5807,-4.5807,-4.5729,-4.5432,-4.4697,-4.3866,-4.2995,-4.2841,-4.2841,-4.2841,-4.3576,-4.4446,-4.5278,-4.5633,-4.5807,-4.5807,-4.5084,-4.4246,-4.3363,-4.2492,-4.1409,-4.0042,-3.9675,-3.8862,-3.7425,-3.7077,-3.611,-3.4432,-3.4394,-3.3538,0.0,0.0,0.0,0.0,0.0,0.0,0.0,0.0,0.0,0.0,0.0,0.0,0.0,0.0,0.0,0.0,0.0,0.0,0.0,0.0,0.0,0.0,0.0,0.0,0.0,-4.8965,-4.9551,-5.0137,-4.9922,-4.9648,-4.9355,-4.957,-4.998,-5.0566,-5.0879,-5.1223,-5.1658,-5.2481,-5.2859,-5.2669,-5.3201,-5.3207,-5.2635,-5.2345,-5.1912,-5.1351,-5.1033,-5.0898,-5.0898,-5.0898,-5.0898,-5.0898,-5.0898,-5.0898,-5.0898,-5.0898,-5.0898,-5.0898,-5.0898,-5.0569,-5.0171,-5.0705,-5.055,-5.019,-5.0724,-5.0376,-4.961,-4.903,-4.8043,-4.7096,-4.7096,-4.6484,-4.5807,-4.5807,-4.5807,-4.5807,-4.5807,-4.5807,-4.5807,-4.5807,-4.5807,-4.5807,-4.5807,-4.5807,-4.5807,-4.5807,-4.5374,-4.4813,-4.4233,-4.4136,-4.4136,-4.4136,-4.4639,-4.52,-4.5729,-4.5807,-4.5807,-4.5807,-4.4813,-4.3924,-4.3343,-4.197,-4.0816,-3.9984,-3.9385,-3.8547,-3.7386,-3.6806,-3.5974,-3.4858,-3.4549,-3.3692,-3.2237,0.0,0.0,0.0,0.0,0.0,0.0,0.0,0.0,0.0,0.0,0.0,0.0,0.0,0.0,0.0,0.0,0.0,0.0,0.0,0.0,0.0,0.0,0.0,-5.0078,-5.0215,-5.0234,-5.0234,-5.0937,-5.1094,-5.0312,-5.0937,-5.1406,-5.1445,-5.2226,-5.2673,-5.2647,-5.3407,-5.377,-5.3648,-5.3591,-5.3575,-5.3536,-5.2693,-5.2229,-5.219,-5.1331,-5.0898,-5.0898,-5.0898,-5.0898,-5.0898,-5.0898,-5.0898,-5.0898,-5.0898,-5.0898,-5.0898,-5.0898,-5.0898,-5.0898,-5.0898,-5.0879,-5.0859,-5.0859,-5.0318,-4.9668,-4.9668,-4.8508,-4.7096,-4.7096,-4.6484,-4.5807,-4.5807,-4.5807,-4.5807,-4.5807,-4.5807,-4.5807,-4.5807,-4.5807,-4.5807,-4.5807,-4.5807,-4.5807,-4.5807,-4.5807,-4.5807,-4.5807,-4.5807,-4.5807,-4.5807,-4.5807,0.0,-4.5807,-4.5807,-4.5807,-4.5807,-4.4311,-4.3324,-4.3305,-4.1048,-3.9926,-4.0681,-3.9166,-3.8193,-3.8135,-3.6555,-3.5704,-3.5704,-3.4839,-3.3982,-3.3146,0.0,0.0,0.0,0.0,0.0,0.0,0.0,0.0,0.0,0.0,0.0,0.0,0.0,0.0,0.0,0.0,0.0,0.0,0.0,0.0,0.0,-4.8027,-4.9199,-5.0078,-5.0703,-5.1074,-5.1074,-5.1269,-5.1308,-5.1094,-5.1269,-5.166,-5.2305,-5.2558,-5.2947,-5.3506,-5.4265,-5.4626,-5.4556,-5.5037,-5.5026,-5.4445,-5.3575,-5.2821,-5.219,-5.1331,-5.0898,-5.0898,-5.0898,-5.0898,-5.0898,-5.0898,-5.0898,-5.0898,-5.0898,-5.0898,-5.0898,-5.0898,-5.0898,-5.0898,-5.0898,-5.0531,-5.0035,-5.0035,-4.9475,-4.8759,-4.8759,-4.8005,-4.7096,-4.7096,-4.6484,-4.5807,-4.5807,-4.5807,-4.5807,-4.5807,-4.5807,-4.5807,-4.5807,-4.5807,-4.5807,-4.5807,-4.5807,-4.5807,-4.5807,-4.5807,-4.5807,-4.5807,-4.5807,-4.5807,-4.5807,-4.5807,-4.5807,-4.5807,-4.5807,-4.5807,-4.5807,-4.4871,-4.4001,-4.3343,-4.2667,-4.1293,-3.9069,-3.905,-3.8315,-3.6458,-3.5936,-3.5704,-3.5704,-3.4839,-3.4278,0.0,0.0,0.0,0.0,0.0,0.0,0.0,0.0,0.0,0.0,0.0,0.0,0.0,0.0,0.0,0.0,0.0,0.0,0.0,0.0,0.0,0.0,-4.916,-5.0117,-5.0625,-5.1113,-5.1406,-5.1406,-5.1406,-5.1543,-5.1914,-5.1933,-5.2305,-5.3183,-5.3574,-5.3983,-5.4463,-5.5204,-5.5584,-5.5486,-5.5876,-5.566,-5.4813,-5.3942,-5.3053,-5.219,-5.1331,-5.0898,-5.0898,-5.0898,-5.0898,-5.0898,-5.0898,-5.0898,-5.0898,-5.0898,-5.0898,-5.0898,0.0,0.0,0.0,0.0,-5.0113,-4.9649,-4.9281,-4.8585,-4.785,-4.785,-4.727,-4.6561,-4.6561,-4.6194,-4.5807,-4.5807,-4.5807,-4.5807,-4.5807,-4.5807,-4.5807,-4.5807,-4.5807,-4.5807,-4.5807,-4.5807,-4.5807,-4.5807,-4.5807,0.0,-4.5807,-4.5807,-4.5807,-4.5807,-4.5807,-4.5807,-4.5807,-4.5807,-4.5807,-4.5807,-4.5084,-4.4246,-4.3363,-4.2667,0.0,0.0,0.0,-3.7431,-3.5245,-3.5516,0.0,0.0,0.0,0.0,0.0,-3.5278,0.0,0.0,-3.4827,-3.4917,0.0,0.0,0.0,0.0,0.0,0.0,0.0,0.0,0.0,0.0,0.0,0.0,0.0,0.0,0.0,0.0,-5.0293,-5.1308,-5.1387,-5.1406,-5.1406,-5.1406,-5.1406,-5.1738,-5.2617,-5.2695,-5.3105,-5.4062,-5.4863,-5.5332,-5.5449,-5.6118,0.0,0.0,0.0,-5.5745,-5.4826,-5.3931,-5.3053,-5.219,-5.1331,-5.0898,-5.0898,-5.0898,-5.0898,-5.0898,-5.0898,-5.0898,-5.0898,-5.0898,-5.0898,-5.0898,-5.0898,-5.0898,-5.0801,-4.9997,-4.9649,-4.9436,-4.8566,0.0,0.0,-4.6941,-4.6426,-4.5807,-4.5807,-4.5807,-4.5807,-4.5807,-4.5807,-4.5807,-4.5807,-4.5807,-4.5807,-4.5807,-4.5807,-4.5807,-4.5807,-4.5807,-4.5807,-4.5807,-4.5807,-4.5807,-4.5807,-4.5807,-4.5807,-4.5807,-4.5807,-4.5807,-4.5807,-4.5807,-4.5807,-4.5807,-4.5162,0.0,-4.3382,-4.2028,-4.1067,-4.0681,-3.8373,-3.6381,-3.4897,-3.5568,-3.5626,-3.4839,-3.6284,-3.6709,-3.5974,-3.6707,-3.6682,-3.5969,-3.5061,-3.5119,0.0,0.0,0.0,0.0,0.0,0.0,0.0,0.0,0.0,0.0,0.0,0.0,0.0,0.0,0.0,-4.9687,-5.0215,-5.0664,-5.1308,-5.1406,-5.1406,-5.1406,-5.1406,-5.1738,-5.2617,-5.2695,-5.3359,-5.4922,-5.5195,-5.5605,-5.6308,-5.643,-5.6484,-5.6455,-5.629,-5.5773,-5.4899,-5.3956,-5.3053,-5.219,-5.1331,0.0,-5.0898,-5.0898,-5.0898,-5.0898,-5.0898,-5.0898,-5.0898,-5.0898,-5.0898,-5.0898,-5.0898,-5.0898,-5.0801,-4.9997,-4.9262,-4.8527,-4.7657,-4.6786,-4.6058,-4.6058,-4.5942,-4.5807,-4.5807,-4.5807,0.0,-4.5807,-4.5807,-4.5807,-4.5807,-4.5807,-4.5807,-4.5807,-4.5807,-4.5807,-4.5807,-4.5807,-4.5807,-4.5807,-4.5807,-4.5807,-4.5807,-4.5807,-4.5807,-4.5807,-4.5807,-4.5807,-4.5807,-4.5807,-4.5807,-4.5807,-4.5671,-4.4949,-4.344,-4.3653,-4.2686,-3.9926,-3.8624,-3.7806,-3.7483,-3.7638,-3.7638,-3.7464,-3.7787,-3.7864,-3.7715,-3.7933,-3.7946,-3.775,-3.6207,-3.5996,0.0,0.0,0.0,0.0,0.0,0.0,0.0,0.0,0.0,0.0,0.0,-4.6562,-4.7441,0.0,-4.9316,-5.054,-5.078,-5.0937,-5.1302,-5.1385,-5.1406,-5.1406,-5.1406,-5.1914,-5.3223,-5.3359,-5.4062,-5.582,-5.5957,-5.6133,-5.6582,-5.6579,-5.6528,-5.6508,-5.598,-5.523,-5.4264,-5.3352,-5.246,-5.1544,-5.1111,-5.0898,-5.0898,-5.0898,-5.0898,-5.0898,-5.0898,-5.0898,-5.0898,-5.0898,-5.0898,-5.0898,-5.0898,-5.0898,-5.0743,-4.9513,-4.8778,-4.8217,-4.6902,-4.6155,-4.5807,-4.5807,-4.5807,-4.5807,-4.5807,-4.5807,-4.5807,-4.5807,-4.5807,-4.5807,-4.5807,-4.5807,-4.5807,-4.5807,-4.5807,-4.5807,-4.5807,-4.5807,-4.5807,-4.5807,-4.5807,-4.5807,-4.5807,-4.5807,-4.5807,-4.5807,-4.5807,-4.5807,-4.5807,-4.5807,-4.5807,-4.5807,-4.5807,-4.5123,-4.344,-4.2937,-4.1777,-3.9636,-3.9094,-3.8644,-3.8212,-3.8193,-3.8193,-3.8193,-3.8667,-3.8699,-3.8253,-3.8766,-3.8786,-3.8389,-3.752,-3.7591,0.0,0.0,0.0,0.0,0.0,0.0,0.0,-4.5039,-4.6406,-4.5879,-4.7012,-4.832,-4.9023,-4.9844,-5.0623,-5.1205,-5.1361,-5.1385,-5.1302,-5.1361,-5.1465,-5.1621,-5.1641,-5.2266,-5.3848,-5.4141,-5.4902,-5.6484,-5.6601,-5.6601,-5.6601,-5.6445,-5.6326,-5.6266,-5.5417,-5.4447,-5.3411,-5.2657,-5.1832,-5.0898,-5.0898,-5.0898,-5.0898,-5.0898,-5.0898,-5.0898,-5.0898,-5.0898,-5.0898,-5.0898,-5.0898,-5.0898,-5.0898,-5.0801,-5.0473,-4.8952,-4.8295,-4.7927,-4.6348,-4.5807,-4.5807,-4.5807,-4.5807,-4.5807,-4.5807,-4.5807,-4.5807,-4.5807,-4.5807,-4.5807,-4.5807,-4.5807,-4.5807,-4.5807,-4.5807,-4.5807,-4.5807,-4.5807,-4.5807,-4.5807,-4.5807,-4.5807,-4.5807,-4.5807,-4.5807,-4.5807,-4.5807,-4.5807,-4.5807,-4.5807,-4.5807,-4.5807,-4.5671,-4.4871,-4.3189,-4.1661,-4.0507,-3.9791,-3.9752,-3.9443,-3.874,-3.8721,-3.8713,-3.8717,-3.9471,-3.9507,-3.8828,-3.9604,-3.9633,-3.9001,-3.9014,-3.9292,-4.0696,-4.1252,-4.2112,-4.3046,-4.4062,-4.5234,0.0,-4.7246,-4.7656,-4.832,-4.9238,-4.9941,-5.0039,-5.0723,-5.1268,-5.1302,-5.1361,-5.1385,-5.1302,-5.1361,-5.1699,-5.2461,-5.2558,-5.2949,-5.3906,-5.4707,-5.5566,-5.6523,-5.6601,-5.6601,-5.6601,-5.5879,-5.5449,-5.5429,-5.4533,-5.359,-5.2637,-5.2405,-5.1832,-5.0898,-5.0898,-5.0898,-5.0898,-5.0898,-5.0898,-5.0898,-5.0898,-5.0898,-5.0898,-5.0898,-5.0898,-5.0898,-5.0898,-5.0453,-4.9726,-4.8759,-4.7908,-4.7115,-4.6136,-4.5807,-4.5807,-4.5807,-4.5807,-4.5807,-4.5807,-4.5807,-4.5807,-4.5807,-4.5807,-4.5807,-4.5807,-4.5807,-4.5807,-4.5807,-4.5807,-4.5807,-4.5807,-4.5807,-4.5807,-4.5807,-4.5807,-4.5807,-4.5807,-4.5807,-4.5807,-4.5807,-4.5807,-4.5807,-4.5807,-4.5807,-4.5807,-4.5807,-4.5162,-4.404,-4.2299,-4.1313,-4.0758,-4.0661,-4.0642,-4.0603,-4.0507,-4.0507,-4.0535,-4.0597,-4.0708,-4.0734,-4.0708,-4.0869,-4.0891,-4.0816,-4.0819,-4.0487,-4.221,-4.2752,-4.3283,-4.4218,-4.5879,-4.7324,-4.7558,-4.875,-4.9785,-4.9687,-5.0312,-5.0898,-5.0898,-5.1172,-5.1363,-5.1266,-5.1722,-5.2067,-5.2002,-5.2056,-5.2259,-5.2656,-5.3144,-5.3808,-5.4668,-5.5098,-5.5664,-5.6523,-5.6601,-5.6387,-5.5879,-5.5508,-5.5078,-5.4551,-5.3669,-5.2979,-5.2497,-5.1944,-5.1402,-5.0898,-5.0898,-5.0898,-5.0898,-5.0898,-5.0898,-5.0898,-5.0898,-5.0898,-5.0898,-5.0898,-5.0898,-5.084,-5.0376,-4.9687,-4.8894,-4.8527,-4.785,-4.698,-4.6097,-4.5807,-4.5807,-4.5807,-4.5807,-4.5807,-4.5807,-4.5807,-4.5807,-4.5807,-4.5807,-4.5807,-4.5807,-4.5807,-4.5807,-4.5807,-4.5807,-4.5807,-4.5807,-4.5807,-4.5807,-4.5807,-4.5807,-4.5807,-4.5807,-4.5807,-4.5807,-4.5807,-4.5807,-4.5807,-4.5807,-4.5394,-4.491,-4.4407,-4.3595,-4.2783,-4.2067,-4.1255,-4.0797,-4.0797,-4.0797,-4.0797,-4.0797,-4.0843,-4.0863,-4.0907,-4.099,-4.1022,-4.1064,-4.1138,-4.1149,-4.1092,-4.1093,-4.0912,-4.3025,-4.3764,-4.4476,-4.5175,-4.7324,-4.9082,-4.8457,-4.9922,-5.123,-5.0644,-5.0996,-5.1406,-5.1406,-5.1386,-5.1412,-5.1534,-5.212,-5.2539,-5.2468,-5.2519,-5.2594,-5.2645,-5.3218,-5.4041,-5.5154,-5.5507,-5.5918,-5.6543,-5.6601,-5.6211,-5.5351,-5.5078,-5.4531,-5.3672,-5.2793,-5.2294,-5.2175,-5.1526,-5.1118,-5.0947,-5.0921,-5.0898,-5.0898,-5.0898,-5.0898,-5.0898,-5.0898,-5.0898,-5.0898,-5.0898,-5.0898,-5.0821,-5.0016,-4.9165,-4.8372,-4.8121,-4.7482,-4.6651,-4.602,-4.5807,-4.5807,-4.5807,-4.5807,-4.5807,-4.5807,-4.5807,-4.5807,-4.5807,-4.5807,-4.5807,-4.5807,-4.5807,-4.5807,-4.5807,-4.5807,-4.5749,-4.551,-4.5471,-4.5394,-4.5162,-4.5104,-4.5104,-4.5104,-4.5104,-4.5181,-4.5432,-4.5258,-4.52,-4.5432,-4.4743,-4.3911,-4.3034,-4.2383,-4.1919,-4.168,-4.1126,-4.0797,-4.0797,-4.0797,-4.0809,-4.0825,-4.0868,-4.0915,-4.0945,-4.1059,-4.1114,-4.112,-4.1171,-4.1172,-4.1092,-4.1108,-4.1104,-4.2746,-4.4193,-4.6132,-4.6249,-4.8223,-5.0156,-5.0137,-5.0781,-5.1387,-5.1367,-5.1387,-5.1406,-5.1406,-5.1358,-5.1555,-5.2341,-5.2481,-5.2455,-5.2313,-5.2427,-5.2508,-5.252,-5.2598,-5.3311,-5.5031,-5.6031,-5.6562,-5.6601,-5.6601,-5.6211,-5.5351,-5.4492,-5.3633,-5.2773,-5.1894,-5.1402,-5.1334,-5.1258,-5.1152,-5.1093,-5.0954,-5.0898,-5.0898,-5.0898,-5.0898,-5.0898,-5.0898,-5.0898,-5.0898,-5.0898,-5.0898,-5.0821,-5.0016,-4.9165,-4.8295,-4.7444,-4.66,-4.5845,-4.5807,-4.5807,-4.5807,-4.5807,-4.5807,-4.5807,-4.5807,-4.5807,-4.5807,-4.5807,-4.5807,-4.5807,-4.5807,-4.5807,-4.5807,-4.5807,-4.5807,-4.5587,-4.4794,-4.4632,-4.4381,-4.3537,-4.3382,-4.3382,-4.3382,-4.3382,-4.3653,-4.4516,-4.3924,-4.3692,-4.4536,-4.3873,-4.3015,-4.2131,-4.2073,-4.175,-4.0913,-4.0816,-4.0797,-4.0797,-4.0797,-4.0831,-4.0898,-4.0907,-4.0953,-4.1085,-4.1108,-4.1122,-4.1191,-4.1191,-4.1172,-4.1092,-4.1108,-4.1104,-4.3776,-4.5055,-4.6488,-4.7714,-4.9121,-5.0332,-5.0879,-5.1211,-5.1406,-5.1406,-5.1363,-5.1334,-5.1334,-5.1282,-5.1487,-5.2246,-5.2847,-5.3419,-5.3953,-5.4068,-5.3905,-5.3416,-5.3429,-5.3698,-5.4285,-5.519,-5.5976,-5.6562,-5.6055,-5.5351,-5.4473,-5.3613,-5.2734,-5.1855,-5.1543,-5.1364,-5.1297,-5.1282,-5.1214,-5.1099,-5.0961,-5.0898,-5.0898,-5.0898,-5.0898,-5.0898,-5.0898,-5.0898,-5.0898,-5.0898,-5.0589,-5.0016,-4.9165,-4.8295,-4.7424,-4.6561,-4.6058,-4.5807,-4.5807,-4.5807,-4.5807,-4.5807,-4.5807,-4.5807,-4.5807,-4.5807,-4.5807,-4.5807,-4.5807,-4.5807,-4.5807,-4.5807,-4.5807,-4.5807,-4.5807,-4.5568,-4.4775,-4.4594,-4.4342,-4.3479,-4.3305,-4.3305,-4.3305,-4.3305,-4.3208,-4.2918,-4.3614,-4.3846,-4.2995,-4.2654,-4.2169,-4.1305,-4.1219,-4.1114,-4.0818,-4.0794,-4.0802,-4.0802,-4.084,-4.0873,-4.0907,-4.1,-4.0788,-4.0249,-4.0851,-4.0898,-4.0331,-4.0878,-4.111,-4.1104,-4.1102,-4.1099,-4.449,-4.5492,-4.6625,-4.8456,-4.9551,-5.041,-5.1211,-5.1406,-5.1406,-5.1406,-5.1358,-5.1297,-5.1297,-5.1466,-5.1755,-5.2224,-5.3275,-5.4114,-5.4354,-5.4677,-5.4569,-5.3788,-5.3754,-5.3914,-5.4257,-5.4591,-5.5173,-5.6074,-5.5625,-5.4785,-5.3594,-5.3008,-5.2305,-5.1426,-5.1406,-5.1385,-5.1334,-5.1304,-5.1239,-5.1099,-5.0961,-5.0898,-5.0898,-5.0898,-5.0898,-5.0898,-5.0898,-5.0898,-5.0898,-5.0898,-5.0434,-4.961,-4.874,-4.7869,-4.698,-4.6116,-4.5807,-4.5807,-4.5807,-4.5807,-4.5807,-4.5807,-4.5807,-4.5807,-4.5807,-4.5807,-4.5807,-4.5807,-4.5807,-4.5807,-4.5807,-4.5807,-4.5807,-4.5807,-4.5807,-4.549,-4.4388,-4.413,-4.3788,-4.2628,-4.2415,-4.2415,-4.2415,-4.2654,-4.2583,-4.1699,-4.2789,-4.3195,-4.1757,-4.1633,-4.1443,-4.0856,-4.0821,-4.0837,-4.0807,-4.0809,-4.0815,-4.0833,-4.0888,-4.0902,-4.0922,-4.074,-4.0377,-3.9856,-4.0117,-4.0,-3.9432,-4.0271,-4.0679,-4.0689,-4.0962,-4.1095,-4.4779,-4.5526,-4.67,-4.8456,-4.9551,-5.041,-5.1211,-5.1406,-5.1387,-5.1348,-5.1278,-5.1215,-5.1173,-5.1704,-5.22,-5.2278,-5.3676,-5.4465,-5.373,-5.4349,-5.4523,-5.3614,-5.3557,-5.393,-5.4775,-5.4248,-5.4198,-5.5097,-5.5156,-5.4433,-5.2793,-5.2656,-5.2246,-5.1426,-5.1406,-5.1406,-5.1406,-5.1334,-5.1223,-5.1092,-5.0969,-5.0906,-5.0898,-5.0898,-5.0898,-5.0898,-5.0898,-5.0898,-5.0898,-5.0859,-5.0357,-4.9552,-4.8662,-4.7792,-4.6922,-4.6097,-4.5807,-4.5807,-4.5807,-4.5807,-4.5807,-4.5807,-4.5807,-4.5807,-4.5807,-4.5807,-4.5807,-4.5807,-4.5807,-4.5807,-4.5807,-4.5807,-4.5807,-4.5807,-4.5807,-4.5343,-4.3653,-4.3305,-4.2802,-4.1126,-4.0797,-4.0797,-4.0797,-4.1492,-4.1743,-4.0916,-4.1501,-4.1745,-4.0922,-4.087,-4.0872,-4.0812,-4.0853,-4.0877,-4.0812,-4.0818,-4.0825,-4.0894,-4.0906,-4.0911,-4.095,-4.0209,-3.9784,-3.9764,-3.9002,-3.8573,-3.8534,-3.9451,-3.9897,-3.9909,-4.0728,-4.1095,-4.4779,-4.5958,-4.7442,-4.8612,-4.9551,-5.041,-5.1211,-5.1406,-5.1191,-5.0497,-5.0306,-5.0033,-4.9346,-4.9833,-5.0773,-5.2019,-5.3123,-5.4194,-5.5219,-5.5548,-5.5161,-5.3672,-5.3557,-5.3468,-5.31,-5.2978,-5.3038,-5.3263,-5.3337,-5.3164,-5.2715,-5.207,-5.1621,-5.1406,-5.1406,-5.1406,-5.1406,-5.1334,-5.1263,-5.1165,-5.1097,-5.0997,-5.0898,-5.0898,-5.0898,-5.0898,-5.0898,-5.0898,-5.084,-5.0241,-4.9494,-4.8643,-4.7773,-4.6902,-4.6097,-4.5884,-4.5807,-4.5807,-4.5807,-4.5807,-4.5807,-4.5807,-4.5807,-4.5807,-4.5807,-4.5807,-4.5807,-4.5807,-4.5807,-4.5807,-4.5807,-4.5807,-4.5807,-4.5807,-4.5807,-4.5343,-4.3653,-4.3305,-4.2802,-4.1126,-4.0797,-4.0803,-4.0802,-4.0988,-4.1058,-4.0829,-4.1031,-4.1114,-4.084,-4.0862,-4.0883,-4.0872,-4.0898,-4.0893,-4.0888,-4.0861,-4.0879,-4.0901,-4.094,-4.0704,-4.0129,-3.9961,-3.9275,-3.7984,-3.8375,-3.8276,-3.7628,-3.9151,-3.987,-3.9842,-4.0701,-4.1091,-4.5409,-4.6167,-4.7247,-4.8573,-4.9277,-4.9921,-5.1089,-5.1385,-5.1228,-5.0657,-5.0495,-5.0302,-4.9734,-5.028,-5.0983,-5.1544,-5.2995,-5.4271,-5.4813,-5.5548,-5.5528,-5.4213,-5.4099,-5.3818,-5.2995,-5.2699,-5.2562,-5.2605,-5.2652,-5.2539,-5.2148,-5.168,-5.1406,-5.1406,-5.1406,-5.1406,-5.1406,-5.1334,-5.1284,-5.1229,-5.1142,-5.1063,-5.0983,-5.0937,-5.0898,-5.0898,-5.0898,-5.0898,-5.084,-5.0035,-4.9184,-4.8314,-4.7444,-4.6581,-4.5807,-4.5807,-4.5807,-4.5807,-4.5807,-4.5807,-4.5807,-4.5807,-4.5807,-4.5807,-4.5807,-4.5807,-4.5807,-4.5807,-4.5807,-4.5807,-4.5807,-4.5807,-4.5807,-4.5807,-4.5529,-4.491,-4.3595,-4.2995,-4.2344,-4.1041,-4.0796,-4.0802,-4.0792,-4.0829,-4.084,-4.0842,-4.0888,-4.0898,-4.0844,-4.0873,-4.0903,-4.0903,-4.0898,-4.0906,-4.0945,-4.0586,-4.0554,-4.0955,-4.0302,-4.0038,-4.0351,-3.933,-3.8485,-3.7882,-3.759,-3.7413,-3.7291,-3.8678,-3.9496,-3.9819,-4.0698,-4.1109,-4.6171,-4.628,-4.6778,-4.8476,-4.8906,-4.9315,-5.0935,-5.1163,-5.1008,-5.0871,-5.0836,-5.0786,-5.06,-5.1273,-5.166,-5.1014,-5.2898,-5.4271,-5.3749,-5.4929,-5.5548,-5.4716,-5.4639,-5.4258,-5.3333,-5.2694,-5.2356,-5.2418,-5.2475,-5.2207,-5.1445,-5.1406,-5.1406,-5.1406,-5.1406,-5.1406,-5.1406,-5.1337,-5.1302,-5.1295,-5.1178,-5.1114,-5.1099,-5.0976,-5.0921,-5.0898,-5.0898,-5.0898,-5.0821,-4.9919,-4.9088,-4.8295,-4.7308,-4.6464,-4.5807,-4.5807,-4.5807,-4.5807,-4.5807,-4.5807,-4.5807,-4.5807,-4.5807,-4.5807,-4.5807,-4.5807,-4.5807,-4.5807,-4.5807,-4.5807,-4.5807,-4.5807,-4.5768,-4.5671,-4.5104,-4.4323,-4.3343,-4.2454,-4.1635,-4.0943,-4.0794,-4.0806,-4.0807,-4.0867,-4.0902,-4.0907,-4.0893,-4.0907,-4.0907,-4.0907,-4.0907,-4.0907,-4.0907,-4.0924,-4.0984,-4.0315,-4.0227,-4.1054,-3.9687,-3.947,-4.0875,-3.8707,-3.7773,-3.8404,-3.6823,-3.6373,-3.7133,-3.7994,-3.885,-3.9663,-4.0522,-4.0992,-4.6171,-4.6731,-4.7539,-4.8632,-4.8906,-4.9315,-5.0935,-5.025,-4.9198,-4.9012,-4.8967,-4.8741,-4.794,-4.9091,-5.0306,-5.0821,-5.1892,-5.3091,-5.4387,-5.4813,-5.4697,-5.3826,-5.373,-5.3108,-5.1525,-5.1403,-5.1421,-5.1436,-5.1567,-5.1562,-5.1406,-5.1406,-5.1406,-5.1406,-5.1406,-5.1406,-5.1406,-5.1386,-5.1341,-5.1297,-5.1279,-5.1211,-5.1099,-5.1081,-5.1004,-5.0898,-5.0898,-5.0898,-5.0782,-4.9243,-4.8546,-4.8237,-4.6658,-4.5923,-4.5807,-4.5807,-4.5807,-4.5807,-4.5807,-4.5807,-4.5807,-4.5807,-4.5807,-4.5807,-4.5807,-4.5807,-4.5807,-4.5807,-4.5807,-4.5807,-4.5807,-4.5807,-4.5633,-4.4968,-4.469,-4.4149,-4.257,-4.1583,-4.0977,-4.0827,-4.0794,-4.0812,-4.0867,-4.0883,-4.0893,-4.0898,-4.0903,-4.0907,-4.0907,-4.0907,-4.0907,-4.0907,-4.0907,-4.0924,-4.0984,-4.0862,-4.0861,-4.1094,-4.0814,-4.045,-4.0034,-3.8962,-3.8103,-3.7538,-3.6522,-3.6073,-3.6228,-3.7108,-3.7966,-3.8825,-3.9644,-4.0405,-4.6807,-4.722,-4.7886,-4.9238,-4.9238,-4.9197,-5.0321,-4.9642,-4.8728,-4.8499,-4.8487,-4.8357,-4.7859,-4.8469,-4.9436,-5.0705,-5.1621,-5.2801,-5.4542,-5.5161,-5.5103,-5.4271,-5.3768,-5.2995,-5.1699,-5.1314,-5.1171,-5.1199,-5.1291,-5.1363,-5.1406,-5.1406,-5.1406,-5.1406,-5.1406,-5.1406,-5.1406,-5.1406,-5.1386,-5.134,-5.1325,-5.1272,-5.1207,-5.1176,-5.1089,-5.1004,-5.1004,-5.0961,-5.0763,-4.9088,-4.8392,-4.8237,-4.6484,-4.5807,-4.5807,-4.5807,-4.5807,-4.5807,-4.5807,-4.5807,-4.5807,-4.5807,-4.5807,-4.5807,-4.5807,-4.5807,-4.5807,-4.5807,-4.5807,-4.5807,-4.5807,-4.549,-4.5181,-4.522,-4.4562,-4.346,-4.1738,-4.1067,-4.0808,-4.0854,-4.0846,-4.0856,-4.0898,-4.0908,-4.0893,-4.0907,-4.0907,-4.0907,-4.0907,-4.0907,-4.0907,-4.0907,-4.0932,-4.097,-4.0996,-4.0625,-4.039,-4.0424,-4.0023,-3.9801,-3.98,-3.859,-3.7947,-3.7986,-3.6677,-3.6226,-3.6677,-3.7106,-3.7965,-3.9234,-3.9624,-4.0268,-4.7402,-4.7871,-4.8496,-4.9863,-4.9531,-4.9078,-4.9741,-4.9031,-4.8197,-4.8134,-4.816,-4.8185,-4.8123,-4.8275,-4.8836,-5.0144,-5.1099,-5.2202,-5.3749,-5.4832,-5.5238,-5.46,-5.3923,-5.3149,-5.2287,-5.1528,-5.1131,-5.1195,-5.1279,-5.1338,-5.1406,-5.1406,-5.1406,-5.1406,-5.1406,-5.1406,-5.1406,-5.1406,-5.1406,-5.1406,-5.1358,-5.1304,-5.1295,-5.1252,-5.117,-5.1105,-5.1109,-5.103,-5.077,-4.9105,-4.8401,-4.8237,-4.6484,-4.5807,-4.5807,-4.5807,-4.5807,-4.5807,-4.5807,-4.5807,-4.5807,-4.5807,-4.5807,-4.5807,-4.5807,-4.5807,-4.5807,-4.5807,-4.5807,-4.5807,-4.5807,-4.52,-4.4678,-4.491,-4.3846,-4.2402,-4.1079,-4.0794,-4.0812,-4.0892,-4.0902,-4.0893,-4.0903,-4.0907,-4.0907,-4.0907,-4.0907,-4.0907,-4.0907,-4.0907,-4.0917,-4.0915,-4.0976,-4.1003,-4.1017,-4.0271,-3.9881,-4.0075,-3.9313,-3.9216,-4.0034,-3.8473,-3.7908,-3.8591,-3.6891,-3.6344,-3.7028,-3.7028,-3.7887,-3.9546,-3.9546,-4.0093,-4.7578,-4.8769,-5.0,-5.0156,-4.9531,-4.9078,-4.9741,-4.8057,-4.6512,-4.71,-4.7226,-4.7233,-4.7219,-4.7869,-4.845,-4.8604,-4.9359,-5.0248,-5.113,-5.2685,-5.3691,-5.3633,-5.3556,-5.3149,-5.2287,-5.1528,-5.1131,-5.1195,-5.1327,-5.1386,-5.1406,-5.1406,-5.1406,-5.1406,-5.1406,-5.1406,-5.1406,-5.1406,-5.1406,-5.1406,-5.1386,-5.1362,-5.1297,-5.1293,-5.1225,-5.1111,-5.1152,-5.1075,-5.0778,-4.9162,-4.8444,-4.8237,-4.6484,-4.5807,-4.5807,-4.5807,-4.5807,-4.5807,-4.5807,-4.5807,-4.5807,-4.5807,-4.5807,-4.5807,-4.5807,-4.5807,-4.5807,-4.5807,-4.5807,-4.5807,-4.5807,-4.52,-4.4207,-4.2705,-4.1661,-4.0996,-4.0827,-4.0794,-4.0812,-4.0892,-4.0902,-4.0893,-4.0903,-4.0907,-4.0907,-4.0907,-4.0907,-4.0907,-4.0907,-4.0907,-4.092,-4.0974,-4.1007,-4.1018,-4.1093,-4.0293,-4.0135,-4.0935,-4.0171,-4.0073,-4.0934,-3.9372,-3.8513,-3.8591,-3.6891,-3.6031,-3.6129,-3.6129,-3.7009,-3.8708,-3.8708,-3.9567,-4.8242,-4.9277,-5.0312,-5.0801,-4.9902,-4.8942,-4.9081,-4.7547,-4.613,-4.6287,-4.6329,-4.6329,-4.6329,-4.66,-4.7173,-4.8237,-4.9126,-5.0345,-5.2202,-5.3053,-5.3865,-5.489,-5.3652,-5.2782,-5.2975,-5.1772,-5.103,-5.1191,-5.133,-5.1406,-5.1406,-5.1406,-5.1406,-5.1406,-5.1406,-5.1406,-5.1406,-5.1406,-5.1406,-5.1406,-5.1406,-5.1386,-5.1362,-5.1362,-5.1302,-5.1229,-5.1255,-5.1191,-5.0945,-4.9218,-4.848,-4.827,-4.6499,-4.5807,-4.5807,-4.5807,-4.5807,-4.5807,-4.5807,-4.5807,-4.5807,-4.5807,-4.5807,-4.5807,-4.5807,-4.5807,-4.5807,-4.5807,-4.5807,-4.5807,-4.5807,-4.52,-4.404,-4.1816,-4.1422,-4.1447,-4.0914,-4.084,-4.0862,-4.0883,-4.0888,-4.0893,-4.0907,-4.0907,-4.0907,-4.0907,-4.0907,-4.0907,-4.0907,-4.0937,-4.0977,-4.1001,-4.1005,-4.103,-4.1093,-4.0778,-4.0514,-4.0328,-4.0483,-4.0503,-4.0327,-3.9683,-3.9099,-3.8611,-3.7399,-3.6774,-3.6774,-3.6774,-3.7653,-3.9312,-3.9312,-3.9956,-4.873,-4.9707,-5.0683,-5.1269,-5.0117,-4.8819,-4.8632,-4.7295,-4.6022,-4.5835,-4.5807,-4.5807,-4.5807,-4.602,-4.6503,-4.7463,-4.8798,-5.0248,-5.1776,-5.2647,-5.3556,-5.4735,-5.3285,-5.2442,-5.3053,-5.1821,-5.106,-5.1191,-5.133,-5.1406,-5.1406,-5.1406,-5.1406,-5.1406,-5.1406,-5.1406,-5.1406,-5.1406,-5.1406,-5.1406,-5.1406,-5.1406,-5.1406,-5.1406,-5.1363,-5.1297,-5.1328,-5.1125,-5.0693,-4.9203,-4.8413,-4.7981,-4.6466,-4.5867,-4.5841,-4.5801,-4.5807,-4.5807,-4.5807,-4.5807,-4.5807,-4.5807,-4.5807,-4.5807,-4.5807,-4.5807,-4.5807,-4.5807,-4.5633,-4.5336,-4.4813,-4.4253,-4.3324,-4.1287,-4.1266,-4.1542,-4.0967,-4.0872,-4.0893,-4.0903,-4.0907,-4.0907,-4.0907,-4.0907,-4.0907,-4.0907,-4.0907,-4.0907,-4.0907,-4.0964,-4.0998,-4.1007,-4.1019,-4.105,-4.1092,-4.0651,-4.0309,-4.019,-4.0309,-4.0309,-4.019,-3.9937,-3.9527,-3.8962,-3.8123,-3.7672,-3.7672,-3.7672,-3.8414,-3.98,-3.98,-4.0268,-4.8906,-5.0117,-5.1387,-5.1406,-5.0091,-4.8773,-4.862,-4.725,-4.5969,-4.5834,-4.5807,-4.5807,-4.5807,-4.6503,-4.6806,-4.5962,-4.8005,-4.9417,-4.8566,-5.0616,-5.2229,-5.2248,-5.2229,-5.221,-5.221,-5.1606,-5.1199,-5.1203,-5.133,-5.1406,-5.1406,-5.1406,-5.1406,-5.1406,-5.1406,-5.1406,-5.1406,-5.1406,-5.1406,-5.1406,-5.1406,-5.1406,-5.1406,-5.1406,-5.1363,-5.1299,-5.1364,-5.0821,-4.9859,-4.9111,-4.8206,-4.7213,-4.6348,-4.5997,-4.5986,-4.5861,-4.5807,-4.5807,-4.5807,-4.5807,-4.5807,-4.5807,-4.5807,-4.5807,-4.5807,-4.5807,-4.5807,-4.5807,-4.5239,-4.4207,-4.2492,-4.2028,-4.1822,-4.1001,-4.0814,-4.0831,-4.0892,-4.0902,-4.0893,-4.0903,-4.0907,-4.0907,-4.0907,-4.0907,-4.0907,-4.0907,-4.0907,-4.0907,-4.0907,-4.0964,-4.0998,-4.1007,-4.105,-4.1092,-4.1093,-3.9587,-3.9333,-4.0973,-3.9548,-3.9372,-4.1012,-4.0268,-3.98,-3.98,-3.9001,-3.8591,-3.8591,-3.8591,-3.9001,-3.98,-3.98,-4.0268,-4.7851,-4.9277,-5.0586,-5.0586,-4.9681,-4.8753,-4.862,-4.725,-4.5969,-4.5834,-4.5807,-4.5807,-4.5807,-4.6039,-4.6329,-4.6631,-4.7869,-4.9126,-4.9989,-5.0809,-5.1757,-5.2956,-5.2558,-5.197,-5.137,-5.1198,-5.1152,-5.1199,-5.1284,-5.134,-5.1406,-5.1406,-5.1406,-5.1406,-5.1406,-5.1406,-5.1406,-5.1406,-5.1406,-5.1406,-5.1406,-5.1406,-5.1406,-5.1406,-5.1386,-5.1364,-5.1386,-5.1228,-5.0807,-4.9393,-4.8619,-4.817,-4.666,-4.606,-4.6052,-4.5966,-4.5977,-4.5998,-4.5854,-4.5867,-4.591,-4.5834,-4.5807,-4.5807,-4.5807,-4.5413,-4.4852,-4.4253,-4.3904,-4.346,-4.2299,-4.2022,-4.1847,-4.1007,-4.0829,-4.0862,-4.0897,-4.0898,-4.0898,-4.0907,-4.0907,-4.0907,-4.0907,-4.0907,-4.0907,-4.0907,-4.0907,-4.0911,-4.0949,-4.1,-4.0792,-4.0231,-4.0721,-4.1099,-4.109,-4.0602,-4.0543,-4.107,-4.0602,-4.0543,-4.109,-4.0836,-4.0405,-3.9819,-3.9001,-3.8591,-3.8591,-3.8006,-3.8434,-3.9819,-4.0405,-4.0836,-4.7676,-4.9121,-5.0273,-5.0586,-4.972,-4.8777,-4.8689,-4.7318,-4.6013,-4.5892,-4.5886,-4.5867,-4.5814,-4.6078,-4.6368,-4.6581,-4.7889,-4.9146,-4.9861,-5.0492,-5.1304,-5.2395,-5.2047,-5.1505,-5.0956,-5.1024,-5.1131,-5.1195,-5.1263,-5.1328,-5.1406,-5.1406,-5.1405,-5.1406,-5.1406,-5.1406,-5.1406,-5.1406,-5.1406,-5.1406,-5.1406,-5.1406,-5.1406,-5.1406,-5.1406,-5.1406,-5.1406,-5.1035,0.0,-4.9292,-4.8447,-4.7741,-4.6589,-4.6137,-4.6131,-4.6056,-4.6056,-4.6087,-4.5968,-4.5968,-4.6027,-4.5942,-4.5681,-4.5359,-4.5007,-4.4757,-4.4342,-4.315,-4.2802,-4.2609,-4.177,-4.1576,-4.1478,-4.0959,-4.0876,-4.0907,-4.0898,-4.0893,-4.0907,-4.0907,-4.0907,-4.0907,-4.0907,-4.0907,-4.0907,-4.0907,-4.092,-4.0957,-4.0987,-4.1019,-4.0854,-4.0332,-4.0772,-4.1109,-4.1109,-4.0797,-4.0758,-4.109,-4.0797,-4.0758,-4.109,-4.1109,-4.0836,-4.0307,-3.9488,-3.906,-3.906,-3.8512,-3.8785,-3.9819,-4.0698,-4.1109,0.0,-4.9394,-5.0195,-5.0937,-4.9915,-4.8704,-4.8704,-4.7359,0.0,-4.6003,-4.6002,-4.5964,-4.5815,-4.6464,-4.6748,-4.602,-4.7985,-4.9359,-4.8604,-4.9873,-5.0898,-5.0898,-5.0898,-5.0898,-5.0898,-5.101,-5.1114,-5.1163,-5.1245,-5.1318,-5.1386,-5.1383,-5.14,-5.1404,-5.1404,-5.1404,-5.1405,-5.1405,-5.1405,-5.1405,-5.1406,-5.1406,-5.1406,-5.1406,-5.1406,-5.1406,-5.1348,-5.043,-4.8984,-4.8867,-4.7851,-4.6386,-4.6256,-4.6207,-4.6202,-4.6134,-4.6112,-4.6115,-4.6105,-4.6102,-4.6105,-4.6102,-4.5514,-4.4619,-4.3689,-4.3887,-4.4066,-4.2396,-4.1912,-4.1745,-4.0982,-4.08,-4.0818,-4.0872,-4.0902,-4.0893,-4.0903,-4.0907,-4.0907,-4.0907,-4.0907,-4.0907,-4.0907,-4.0907,-4.0888,-4.0917,-4.0968,-4.0994,-4.1003,-4.1059,-4.1074,-4.1015,-4.1064,-4.107,-4.1012,-4.0327,-4.0249,-4.1051,-4.0346,-4.0268,-4.107,-4.1109,-4.107,-4.1012,-4.0093,-3.9624,-3.9624,-3.9624,-3.9644,-3.9741,-4.06,-4.1031,-4.7558,0.0,-4.8262,-4.8457,-4.8158,-4.7805,0.0,-4.693,-4.6076,-4.6003,-4.6002,-4.5964,-4.5815,-4.5981,-4.6271,-4.6709,-4.7869,-4.8875,-4.9339,-5.0256,-5.0905,-5.0898,-5.0893,-5.0897,-5.0897,-5.0929,-5.0947,-5.0966,-5.1084,-5.1175,-5.1245,-5.133,-5.1399,-5.14,-5.1396,-5.1399,-5.1405,-5.1405,-5.1405,-5.1406,-5.1406,-5.1406,-5.1406,-5.1406,-5.1406,-5.1367,-5.0742,-5.0254,-4.9785,-4.8457,-4.7656,-4.7226,-4.6542,-4.6288,-4.6267,-4.6204,-4.6207,-4.6239,-4.6137,-4.6134,-4.6162,-4.6118,-4.5514,-4.463,-4.3743,-4.3106,-4.2457,-4.1382,-4.1087,-4.1035,-4.0846,-4.0798,-4.0826,-4.0877,-4.0903,-4.0898,-4.0907,-4.0907,-4.0907,-4.0907,-4.0907,-4.0907,-4.0907,-4.0907,-4.0911,-4.0976,-4.0981,-4.1025,-4.1065,-4.1093,-4.0839,-4.0183,-4.0702,-4.0836,-4.0151,-4.0522,-4.0875,-4.109,-4.0914,-4.0894,-4.109,-4.1109,-4.0797,-4.0112,-3.8648,-3.7887,-3.7887,-3.7887,-3.8238,-3.8903,-3.9722,-4.0464,-4.6289,-4.6992,-4.7695,-4.8105,-4.7869,-4.755,-4.755,-4.6837,-4.616,-4.608,-4.605,-4.6008,-4.5822,-4.5807,-4.6097,-4.696,-4.7831,-4.8829,-5.009,-5.0626,-5.088,-5.0869,-5.0844,-5.0855,-5.0855,-5.0855,-5.0874,-5.0893,-5.1014,-5.1126,-5.1193,-5.1336,-5.1391,-5.1395,-5.1408,-5.1409,-5.1399,-5.14,-5.1402,-5.1405,-5.1405,-5.1406,-5.1387,-5.1016,-5.0859,-5.0801,-4.9961,-4.9375,-4.8926,-4.7988,-4.7363,-4.6953,-4.6484,-4.6308,-4.6308,-4.6265,-4.6267,-4.6289,-4.6212,-4.621,-4.6162,-4.5735,-4.5006,-4.4124,-4.3227,-4.2323,-4.1496,-4.0985,-4.0842,-4.0856,-4.084,-4.0851,-4.0853,-4.0898,-4.0898,-4.0907,-4.0907,-4.0907,-4.0907,-4.0907,-4.0924,-4.0949,-4.0949,-4.0944,-4.0958,-4.0991,-4.1033,-4.1056,-4.1093,-4.1092,-4.0929,-4.0447,-4.0816,-4.0914,-4.0444,-4.0836,-4.1109,-4.1109,-4.1109,-4.1109,-4.1109,-4.1109,-4.0698,-3.9819,-3.8551,-3.7908,-3.7908,-3.7497,-3.775,-3.8611,-3.9429,-4.0054,-4.4961,-4.6074,-4.7402,-4.8281,-4.7949,-4.7402,-4.7402,0.0,-4.6243,-4.6128,-4.6091,-4.6035,-4.5835,-4.5904,-4.6252,-4.698,-4.7947,-4.9131,-5.0676,-5.0891,-5.0855,-5.0801,-5.0793,-5.0784,-5.0784,-5.0784,-5.0805,-5.0862,-5.0979,-5.1098,-5.117,-5.1308,-5.1373,-5.1407,-5.14,-5.1398,-5.1407,-5.1408,-5.1394,-5.1399,-5.1403,-5.1347,-5.1191,-5.0508,-5.0137,-4.9941,-4.9082,-4.8281,-4.7598,-4.7461,-4.6973,-4.6308,-4.6308,-4.6308,-4.6308,-4.6308,-4.6308,-4.6308,-4.6308,-4.6308,-4.6152,-4.5273,-4.4414,-4.3535,-4.2608,-4.1707,-4.0998,-4.0951,-4.0918,-4.0904,-4.0903,-4.0898,-4.0893,-4.0903,-4.0907,-4.0907,-4.0907,-4.0907,-4.0907,-4.0907,-4.0941,-4.099,-4.099,-4.1003,-4.0994,-4.1017,-4.1052,-4.1094,-4.1093,-4.1103,-4.1109,-4.1109,-4.1109,-4.1109,-4.1109,-4.1109,-4.1109,-4.1109,-4.0973,-4.0894,-4.0894,-4.0894,-4.062,-4.0015,-3.9079,-3.8669,-3.8786,-3.7926,-3.7888,-3.8611,-3.9292,-3.9683,-4.4805,-4.5195,-4.5605,-4.6484,-4.6601,-4.6504,-4.6504,-4.6342,-4.6199,-4.6118,-4.6044,-4.5966,-4.5834,-4.6406,-4.6941,-4.7076,-4.845,-4.9827,-5.0772,-5.0855,-5.081,-5.0801,-5.0757,-5.071,-5.071,-5.071,-5.073,-5.074,-5.0847,-5.0965,-5.1023,-5.1159,-5.1288,-5.1396,-5.1394,-5.1394,-5.1396,-5.1405,-5.1396,-5.1404,-5.1404,-5.1034,-5.0371,-5.0254,-4.9805,-4.9043,-4.8183,-4.7715,-4.7539,-4.6797,-4.6426,-4.6308,-4.6308,-4.6308,-4.6308,-4.6308,-4.6308,-4.6308,-4.6308,-4.6308,-4.6152,-4.5273,-4.4414,-4.3535,-4.2656,-4.1777,-4.1074,-4.1068,-4.0994,-4.0894,-4.0906,-4.0891,-4.0893,-4.0903,-4.0907,-4.0907,-4.0907,-4.0907,-4.0907,-4.0907,-4.0941,-4.099,-4.099,-4.1003,-4.102,-4.1073,-4.1094,-4.1093,-4.1099,-4.1093,-4.1109,-4.1109,-4.1109,-4.1109,-4.1109,-4.1109,-4.1109,-4.1109,-4.0405,-3.9995,-3.9995,-3.9995,-4.0288,-4.0894,-3.9391,-3.8942,-3.9605,-3.8806,-3.8474,-3.8591,-3.8728,-3.9156,-4.3496,-4.4277,-4.5098,-4.5508,-4.5957,-4.6308,-4.6308,-4.6287,-4.6215,-4.6122,-4.6072,-4.6154,-4.6448,-4.6825,-4.7405,-4.8353,-4.9552,-5.0457,-5.0797,-5.081,-5.0784,-5.0749,-5.0721,-5.0702,-5.0702,-5.0702,-5.0693,-5.0693,-5.0816,-5.0905,-5.0932,-5.1103,-5.1238,-5.1291,-5.1362,-5.118,-5.069,-5.0695,-5.0705,-5.0695,-5.0698,-5.0271,-4.9472,-4.9004,-4.8574,-4.8144,-4.7285,-4.6894,-4.6875,-4.6465,-4.6308,-4.6308,-4.6308,-4.6308,-4.6308,-4.6308,-4.6308,-4.6308,-4.6308,-4.6308,-4.6074,-4.4726,-4.4023,-4.3457,-4.2108,-4.1423,-4.111,-4.1091,-4.1069,-4.1009,-4.0959,-4.0948,-4.0945,-4.0957,-4.0924,-4.0907,-4.0907,-4.0928,-4.0941,-4.0941,-4.1008,-4.1052,-4.1052,-4.1051,-4.1054,-4.1108,-4.1106,-4.1103,-4.1091,-4.1109,-4.1109,-4.1109,-4.1109,-4.1109,-4.1109,-4.1109,-4.1109,-4.1109,-4.0717,-4.0503,-4.0503,-4.0503,-4.0698,-4.109,-3.9879,-3.9429,-3.98,-3.8512,-3.7908,-3.7908,-3.7908,-3.8357,-4.2344,-4.3379,-4.4433,-4.4628,-4.5332,-4.6094,-4.6483,-4.6402,-4.6327,-4.6605,-4.6656,-4.681,-4.7312,-4.756,-4.8217,-4.973,-5.0503,-5.0877,-5.0793,-5.0784,-5.0767,-5.0702,-5.0712,-5.0712,-5.0712,-5.0712,-5.0712,-5.0712,-5.0793,-5.0874,-5.0894,-5.0853,-5.0849,-5.0887,-5.0809,-5.0447,-4.9792,-4.9792,-4.9797,-4.9807,-4.9793,-4.9368,-4.8572,-4.791,-4.748,-4.7265,-4.6582,-4.6308,-4.6308,-4.6308,-4.6308,-4.6308,-4.6308,-4.6308,-4.6308,-4.6308,-4.6308,-4.6308,-4.6308,-4.6308,-4.6016,-4.4277,-4.3691,-4.3379,-4.1638,-4.1108,-4.1104,-4.1098,-4.1108,-4.1093,-4.1045,-4.1016,-4.0995,-4.0995,-4.0963,-4.0928,-4.0929,-4.0967,-4.0997,-4.0992,-4.1058,-4.1094,-4.1094,-4.1106,-4.1109,-4.1109,-4.1109,-4.1109,-4.1109,-4.1109,-4.1109,-4.1109,-4.1109,-4.1109,-4.1109,-4.1109,-4.1109,-4.1109,-4.1109,-4.1012,-4.0797,-4.0992,-4.1109,-4.1109,-4.0249,-3.9897,-4.0093,-3.8414,-3.7594,-3.7594,-3.7399,-3.777,-4.2207,-4.248,-4.2773,-4.3502,-4.4409,-4.5507,-4.7068,-4.6733,-4.6547,-4.8024,-4.8277,-4.8247,-4.8302,-4.8972,-4.9807,-5.0676,-5.0869,-5.0855,-5.0739,-5.0701,-5.0702,-5.0693,-5.0712,-5.0712,-5.0712,-5.0712,-5.0712,-5.0712,-5.0702,-5.0776,-5.0887,-5.0143,-4.9795,-4.9991,-4.9285,-4.8889,-4.8896,-4.8896,-4.8882,-4.8889,-4.8889,-4.8464,-4.7689,-4.7634,-4.7166,-4.6385,-4.6328,-4.6308,-4.6308,-4.6308,-4.6308,-4.6308,-4.6308,-4.6308,-4.6308,-4.6308,-4.6308,-4.6308,-4.6308,-4.6308,-4.6015,-4.4276,-4.3709,-4.3376,-4.1631,-4.1099,-4.1098,-4.1093,-4.1091,-4.1099,-4.1093,-4.1047,-4.1007,-4.1007,-4.0991,-4.0983,-4.0996,-4.0991,-4.0989,-4.1,-4.1049,-4.1094,-4.1094,-4.1106,-4.1109,-4.1109,-4.1109,-4.1109,-4.1109,-4.1109,-4.1109,-4.1109,-4.1109,-4.1109,-4.1109,-4.1109,-4.1109,-4.1109,-4.1109,-4.0738,-3.9937,-4.0678,-4.1109,-4.1109,-4.0249,-4.019,-4.0992,-3.9313,-3.8513,-3.8494,-3.7672,-3.777,-4.1562,-4.2402,-4.3261,-4.3536,-4.4279,-4.5236,-4.6362,-4.6736,-4.7155,-4.8261,-4.8475,-4.8613,-4.9122,-4.99,-5.0542,-5.085,-5.0899,-5.0846,-5.071,-5.0701,-5.0702,-5.0693,-5.0712,-5.0712,-5.0712,-5.0712,-5.0481,-4.9933,-4.9894,-4.9682,-4.9176,-4.8926,-4.8824,-4.8908,-4.8777,-4.8454,-4.793,-4.8003,-4.7785,-4.7242,-4.7793,-4.7602,-4.6786,-4.6793,-4.6619,-4.6307,-4.6308,-4.6308,-4.6308,-4.6308,-4.6308,-4.6308,-4.6308,-4.6308,-4.6308,-4.6308,-4.6308,-4.6308,-4.6308,-4.6308,-4.6015,-4.4273,-4.3706,-4.3373,-4.1629,-4.1098,-4.1098,-4.1091,-4.1109,-4.1093,-4.1102,-4.1074,-4.1051,-4.1051,-4.1035,-4.0992,-4.1008,-4.1035,-4.1062,-4.105,-4.1074,-4.1104,-4.1104,-4.1097,-4.1109,-4.1109,-4.1109,-4.1109,-4.1109,-4.1109,-4.1109,-4.1109,-4.1109,-4.1109,-4.1109,-4.1109,-4.1109,-4.1109,-4.1109,-4.0953,-4.062,-4.0405,-4.0288,-4.0288,-3.9488,-3.8942,-3.8746,-3.8102,-3.7516,-3.6989,-3.7204,-3.777,-4.1582,-4.2422,-4.3338,-4.3521,-4.4226,-4.5145,-4.618,-4.6852,-4.7578,-4.865,-4.9071,-4.9433,-4.9973,-5.0523,-5.0885,-5.0872,-5.0846,-5.0793,-5.0711,-5.0702,-5.0702,-5.0693,-5.0712,-5.0596,-5.0327,-5.0289,-4.9933,-4.9067,-4.899,-4.874,-4.8125,-4.794,-4.7863,-4.7889,-4.7811,-4.7518,-4.6936,-4.705,-4.6826,-4.624,-4.6885,-4.6874,-4.6309,-4.6302,-4.6306,-4.6306,-4.6308,-4.6308,-4.6308,-4.6308,-4.6308,-4.6308,-4.6308,-4.6308,-4.6308,-4.6308,-4.6308,-4.6307,-4.6306,-4.611,-4.5641,-4.4172,-4.3506,-4.3017,-4.1547,-4.1095,-4.1095,-4.1091,-4.1109,-4.1109,-4.1109,-4.1102,-4.1091,-4.1091,-4.1054,-4.1025,-4.1031,-4.1074,-4.1094,-4.1092,-4.1102,-4.1109,-4.1109,-4.1109,-4.1109,-4.1109,-4.1109,-4.1109,-4.1109,-4.1109,-4.1109,-4.1109,-4.1109,-4.1109,-4.1109,-4.1109,-4.1109,-4.1109,-4.0836,-4.0698,-4.0698,-4.0112,-3.9683,-3.9429,-3.8611,-3.8025,-3.7711,-3.7165,-3.6716,-3.6422,-3.6976,-3.7721,-4.2383,-4.2402,-4.2595,-4.3326,-4.4163,-4.5237,-4.6752,-4.7172,-4.7687,-4.9362,-5.0318,-5.0879,-5.0879,-5.0885,-5.0872,-5.081,-5.0738,-5.0702,-5.0693,-5.0712,-5.0712,-5.0712,-5.0693,-5.0346,-4.9471,-4.9394,-4.9029,-4.8144,-4.8086,-4.8086,-4.8086,-4.7317,-4.6915,-4.6977,-4.6206,-4.5835,-4.5899,-4.6037,-4.6098,-4.6098,-4.6221,-4.63,-4.6302,-4.6296,-4.6301,-4.6302,-4.6308,-4.6308,-4.6308,-4.6308,-4.6308,-4.6308,-4.6307,-4.6307,-4.6306,-4.6303,-4.6301,-4.6301,-4.6301,-4.5735,-4.4855,-4.3972,-4.3111,-4.223,-4.1364,-4.1109,-4.1109,-4.1109,-4.1109,-4.1109,-4.1109,-4.1109,-4.1109,-4.1109,-4.1108,-4.1093,-4.1095,-4.1108,-4.1093,-4.1095,-4.1109,-4.1109,-4.1109,-4.1109,-4.1109,-4.1109,-4.1109,-4.1109,-4.1109,-4.1109,-4.1109,-4.1109,-4.1109,-4.1109,-4.1109,-4.1109,-4.1109,-4.1109,-4.0288,-3.9819,-3.98,-3.978,-3.939,-3.8591,-3.7731,-3.7711,-3.8572,-3.6833,-3.6441,-3.728,-3.7177,-3.7649,-4.1719,-4.2422,-4.3493,-4.4231,-4.5503,-4.6803,-4.7797,-4.8498,-4.9093,-4.9598,-4.9397,-4.9138,-4.9088,-4.9575,-4.9967,-4.9909,-5.0344,-5.0702,-5.0693,-5.0712,-5.0712,-5.0712,-5.0164,-4.9683,-4.9433,-4.8856,-4.8144,-4.7317,-4.7259,-4.699,-4.6374,-4.6124,-4.5997,-4.6009,-4.5885,-4.5808,-4.5829,-4.5914,-4.5969,-4.5949,-4.6098,-4.6211,-4.6302,-4.6291,-4.6299,-4.6302,-4.6306,-4.6308,-4.6308,-4.6308,-4.6308,-4.6308,-4.6307,-4.6307,-4.6306,-4.6303,-4.6301,-4.6301,-4.6297,-4.5729,-4.4869,-4.3985,-4.3103,-4.2243,-4.1363,-4.1109,-4.1109,-4.1109,-4.1109,-4.1109,-4.1109,-4.1109,-4.1109,-4.1109,-4.1097,-4.1099,-4.1091,-4.1097,-4.1099,-4.1091,-4.1109,-4.1109,-4.1109,-4.1109,-4.1109,-4.1109,-4.1109,-4.1109,-4.1109,-4.1109,-4.1109,-4.1109,-4.1109,-4.1109,-4.1109,-4.1109,-4.1109,-4.1109,-4.0855,-4.0444,-3.9839,-3.8668,-3.7926,-3.7692,-3.6833,-3.65,-3.6774,-3.6246,-3.6129,-3.6402,-3.7508,-3.8171,-4.2754,-4.3457,-4.4469,-4.5537,-4.6551,-4.7581,-4.8669,-4.9049,-4.9177,-4.9142,-4.8736,-4.8354,-4.8314,-4.8704,-4.9037,-4.8996,-4.9662,-5.0182,-5.0173,-5.0183,-5.0183,-5.0183,-4.9413,-4.8759,-4.8432,-4.7932,-4.7278,-4.6451,-4.6374,-4.6144,-4.5633,-4.5594,-4.5594,-4.5594,-4.5676,-4.5712,-4.5712,-4.5803,-4.5852,-4.5852,-4.6024,-4.6141,-4.6216,-4.6284,-4.6296,-4.6302,-4.6307,-4.6308,-4.6308,-4.6308,-4.6308,-4.6308,-4.6307,-4.6305,-4.6305,-4.6299,-4.6295,-4.6255,-4.5899,-4.5215,-4.4335,-4.3471,-4.2591,-4.1791,-4.1265,-4.1109,-4.1109,-4.1109,-4.1109,-4.1109,-4.1109,-4.1109,-4.1109,-4.1109,-4.1109,-4.1109,-4.1109,-4.1109,-4.1109,-4.1109,-4.1109,-4.1109,-4.1109,-4.1109,-4.1109,-4.1109,-4.1109,-4.1109,-4.1109,-4.1109,-4.1109,-4.1109,-4.1109,-4.1109,-4.1109,-4.1109,-4.1109,-4.1109,-4.0777,-4.0346,-3.9819,-3.8512,-3.7497,-3.6794,-3.6265,-3.5992,-3.5992,-3.5992,-3.6141,-3.6475,-3.7761,-3.8525,-4.459,-4.4922,-4.5463,-4.6924,-4.7416,-4.7879,-4.9282,-4.8914,-4.8261,-4.8203,-4.8118,-4.8063,-4.8062,-4.8058,-4.809,-4.8081,-4.8758,-4.9279,-4.9279,-4.9279,-4.9279,-4.9279,-4.8529,-4.7702,-4.6962,-4.6836,-4.6451,-4.5671,-4.5594,-4.5594,-4.5594,-4.5594,-4.5594,-4.5594,-4.5594,-4.5594,-4.5594,-4.5712,-4.5786,-4.5786,-4.5974,-4.608,-4.6084,-4.623,-4.6296,-4.6302,-4.6308,-4.6308,-4.6308,-4.6308,-4.6308,-4.6308,-4.6305,-4.6301,-4.6301,-4.6306,-4.6241,-4.6066,-4.5265,-4.4387,-4.345,-4.2669,-4.181,-4.1109,-4.1109,-4.1109,-4.1109,-4.1109,-4.1109,-4.1109,-4.1109,-4.1109,-4.1109,-4.1109,-4.1109,-4.1109,-4.1109,-4.1109,-4.1109,-4.1109,-4.1109,-4.1109,-4.1109,-4.1109,-4.1109,-4.1109,-4.1109,-4.1109,-4.1109,-4.1109,-4.1109,-4.1109,-4.1109,-4.1109,-4.1109,-4.1109,-4.1109,-4.1109,-4.0366,-3.9878,-3.98,-3.904,-3.783,-3.6148,-3.6129,-3.607,-3.5992,-3.5989,-3.6378,-3.7127,-3.7914,-3.8724,-4.3281,-4.4428,-4.6158,-4.708,-4.8247,-4.9102,-4.8754,-4.8002,-4.738,-4.7353,-4.6762,-4.6267,-4.6265,-4.6761,-4.7178,-4.7181,-4.7845,-4.8375,-4.8375,-4.8375,-4.8375,-4.8375,-4.7663,-4.7077,-4.6923,-4.6278,-4.5806,-4.5614,-4.5594,-4.5594,-4.5594,-4.5594,-4.5594,-4.5594,-4.5594,-4.5594,-4.5594,-4.5629,-4.5635,-4.5635,-4.5794,-4.5854,-4.5866,-4.6167,-4.6291,-4.6302,-4.6308,-4.6308,-4.6308,-4.6308,-4.6308,-4.6308,-4.6305,-4.6301,-4.6301,-4.6306,-4.587,-4.5246,-4.5068,-4.3977,-4.265,-4.2454,-4.181,-4.1109,-4.1109,-4.1109,-4.1109,-4.1109,-4.1109,-4.1109,-4.1109,-4.1109,-4.1109,-4.1109,-4.1109,-4.1109,-4.1109,-4.1109,-4.1109,-4.1109,-4.1109,-4.1109,-4.1109,-4.1109,-4.1109,-4.1109,-4.1109,-4.1109,-4.1109,-4.1109,-4.1109,-4.1109,-4.1109,-4.1109,-4.1109,-4.1109,-4.1109,-4.1109,-4.0914,-4.0503,-3.9839,-3.904,-3.8103,-3.7048,-3.7028,-3.6677,-3.5992,-3.5945,-3.6328,-3.7124,-3.7827,-3.8603,-4.3789,-4.492,-4.662,-4.8158,-4.9126,-4.9475,-4.8604,-4.7689,-4.6936,-4.6511,-4.6036,-4.5679,-4.5657,-4.5986,-4.6285,-4.6287,-4.699,-4.7528,-4.7528,-4.7528,-4.7528,-4.7528,-4.6797,-4.6278,-4.6278,-4.5883,-4.5594,-4.5594,-4.5594,-4.5594,-4.5594,-4.5594,-4.5594,-4.5594,-4.5594,-4.5594,-4.5594,-4.5594,-4.5594,-4.5594,-4.5727,-4.5854,-4.5938,-4.6112,-4.6239,-4.6302,-4.6307,-4.6308,-4.6308,-4.6308,-4.6055,-4.5683,-4.5681,-4.5678,-4.5637,-4.5216,-4.5034,-4.4873,-4.4034,-4.3157,-4.2337,-4.1908,-4.1479,-4.1109,-4.1109,-4.1109,-4.1109,-4.1109,-4.1109,-4.1109,-4.1109,-4.1109,-4.1109,-4.1109,-4.1109,-4.1109,-4.1109,-4.1109,-4.1109,-4.1109,-4.1109,-4.1109,-4.1109,-4.1109,-4.1109,-4.1109,-4.1109,-4.1109,-4.1109,-4.1109,-4.1109,-4.1109,-4.1109,-4.1109,-4.1109,-4.1109,-4.1109,-4.1109,-4.1109,-4.0894,-4.0444,-4.0016,-3.9001,-3.7321,-3.7301,-3.6864,-3.5947,-3.5921,-3.6284,-3.7018,-3.7755,-3.8556,-4.4394,-4.5507,-4.7004,-4.9129,-4.9565,-4.926,-4.838,-4.7442,-4.6576,-4.5843,-4.5687,-4.5676,-4.5622,-4.5594,-4.5594,-4.5594,-4.6201,-4.6682,-4.6682,-4.6682,-4.6682,-4.6682,-4.6028,-4.5594,-4.5594,-4.5594,-4.5594,-4.5594,-4.5594,-4.5594,-4.5594,-4.5594,-4.5594,-4.5594,-4.5594,-4.5594,-4.5594,-4.5594,-4.5594,-4.5594,-4.5704,-4.5866,-4.606,-4.6052,-4.6153,-4.6301,-4.6305,-4.6308,-4.6308,-4.6308,-4.5781,-4.5,-4.4999,-4.4996,-4.4895,-4.4028,-4.4157,-4.4543,-4.2942,-4.2298,-4.2064,-4.1324,-4.1109,-4.1109,-4.1109,-4.1109,-4.1109,-4.1109,-4.1109,-4.1109,-4.1109,-4.1109,-4.1109,-4.1109,-4.1109,-4.1109,-4.1109,-4.1109,-4.1109,-4.1109,-4.1109,-4.1109,-4.1109,-4.1109,-4.1109,-4.1109,-4.1109,-4.1109,-4.1109,-4.1109,-4.1109,-4.1109,-4.1109,-4.1109,-4.1109,-4.1109,-4.1109,-4.1109,-4.1109,-4.1109,-4.1109,-4.1109,-3.9977,-3.7575,-3.7492,-3.7024,-3.6103,-3.5927,-3.6273,-3.7129,-3.7776,-3.8517,-4.293,-4.4993,-4.755,-4.8453,-4.8677,-4.8417,-4.7499,-4.6553,-4.5843,-4.5727,-4.5643,-4.5622,-4.5594,-4.5594,-4.5594,-4.5594,-4.571,-4.5768,-4.5768,-4.5768,-4.5768,-4.5768,-4.5671,-4.5594,-4.5594,-4.5594,-4.5594,-4.5594,-4.5594,-4.5594,-4.5594,-4.5594,-4.5594,-4.5594,-4.5594,-4.5594,-4.5594,-4.5594,-4.5594,-4.5594,-4.562,-4.5696,-4.5848,-4.5903,-4.6056,-4.6295,-4.6305,-4.6307,-4.6307,-4.6308,-4.5781,-4.5,-4.4997,-4.4993,-4.4895,-4.4024,-4.3764,-4.3723,-4.2747,-4.1908,-4.1246,-4.1148,-4.1109,-4.1109,-4.1109,-4.1109,-4.1109,-4.1109,-4.1109,-4.1109,-4.1109,-4.1109,-4.1109,-4.1109,-4.1109,-4.1109,-4.1109,-4.1109,-4.1109,-4.1109,-4.1109,-4.1109,-4.1109,-4.1109,-4.1109,-4.1109,-4.1109,-4.1109,-4.1109,-4.1109,-4.1109,-4.1109,-4.1109,-4.1109,-4.1109,-4.1109,-4.1109,-4.1109,-4.1109,-4.1109,-4.1109,-4.1109,-4.027,-3.8454,-3.8305,-3.7826,-3.6935,-3.6065,-3.6422,-3.7949,-3.7995,-3.8491,-4.4297,-4.5655,-4.7292,-4.9476,-4.8881,-4.7775,-4.7828,-4.6708,-4.5708,-4.5708,-4.5654,-4.5594,-4.5594,-4.5594,-4.5594,-4.5594,-4.5594,-4.5594,-4.5594,-4.5594,-4.5594,-4.5594,-4.5594,-4.5594,-4.5594,-4.5594,-4.5594,-4.5594,-4.5594,-4.5594,-4.5594,-4.5594,-4.5594,-4.5594,-4.5594,-4.5594,-4.5594,-4.5594,-4.5594,-4.5594,-4.5594,-4.5668,-4.5807,-4.5829,-4.5964,-4.6186,-4.6277,-4.6305,-4.6268,-4.5762,-4.5058,-4.4219,-4.3728,-4.355,-4.3449,-4.2562,-4.2555,-4.2845,-4.1967,-4.142,-4.1109,-4.1109,-4.1109,-4.1109,-4.1109,-4.1109,-4.1109,-4.1109,-4.1109,-4.1109,-4.1109,-4.1109,-4.1109,-4.1109,-4.1109,-4.1109,-4.1109,-4.1109,-4.1109,-4.1109,-4.1109,-4.1109,-4.1109,-4.1109,-4.1109,-4.1109,-4.1109,-4.1109,-4.1109,-4.1109,-4.1109,-4.1109,-4.1109,-4.1109,-4.1109,-4.1109,-4.1109,-4.1109,-4.1109,-4.1109,-4.1109,-4.1109,-4.0514,-3.9238,-3.8672,-3.7705,-3.6312,-3.5839,-3.5954,-3.6665,-3.7574,-3.82,-4.4726,-4.5601,-4.6534,-4.9256,-4.8736,-4.7658,-4.7999,-4.7016,-4.5978,-4.5746,-4.5654,-4.5594,-4.5594,-4.5594,-4.5594,-4.5594,-4.5594,-4.5594,-4.5594,-4.5594,-4.5594,-4.5594,-4.5594,-4.5594,-4.5594,-4.5594,-4.5594,-4.5594,-4.5594,-4.5594,-4.5594,-4.5594,-4.5594,-4.5594,-4.5594,-4.5594,-4.5594,-4.5594,-4.5594,-4.5594,-4.5594,-4.5643,-4.5749,-4.5786,-4.5871,-4.6029,-4.6186,-4.614,-4.5914,-4.5272,-4.4355,-4.33,-4.2654,-4.2397,-4.2295,-4.1411,-4.1659,-4.2279,-4.1402,-4.1109,-4.1109,-4.1109,-4.1109,-4.1109,-4.1109,-4.1109,-4.1109,-4.1109,-4.1109,-4.1109,-4.1109,-4.1109,-4.1109,-4.1109,-4.1109,-4.1109,-4.1109,-4.1109,-4.1109,-4.1109,-4.1109,-4.1109,-4.1109,-4.1109,-4.1109,-4.1109,-4.1109,-4.1109,-4.1109,-4.1109,-4.1109,-4.1109,-4.1109,-4.1109,-4.1109,-4.1109,-4.1109,-4.1109,-4.1109,-4.1109,-4.1109,-4.1109,-4.0662,-3.9727,-3.9033,-3.7914,-3.6318,-3.6019,-3.5971,-3.6173,-3.743,-3.8123,-4.2363,-4.3808,-4.5292,-4.6228,-4.7507,-4.8312,-4.7466,-4.7094,-4.6711,-4.5881,-4.5654,-4.5594,-4.5594,-4.5594,-4.5594,-4.5594,-4.5594,-4.5594,-4.5594,-4.5594,-4.5594,-4.5594,-4.5594,-4.5594,-4.5594,-4.5594,-4.5594,-4.5594,-4.5594,-4.5594,-4.5594,-4.5594,-4.5594,-4.5594,-4.5594,-4.5594,-4.5594,-4.5594,-4.5594,-4.5594,-4.5594,-4.5594,-4.5612,-4.5734,-4.5814,-4.5828,-4.6021,-4.5714,-4.5064,-4.5011,-4.3998,-4.2455,-4.2411,-4.2408,-4.229,-4.1424,-4.1654,-4.2279,-4.1402,-4.1109,-4.1109,-4.1109,-4.1109,-4.1109,-4.1109,-4.1109,-4.1109,-4.1109,-4.1109,-4.1109,-4.1109,-4.1109,-4.1109,-4.1109,-4.1109,-4.1109,-4.1109,-4.1109,-4.1109,-4.1109,-4.1109,-4.1109,-4.1109,-4.1109,-4.1109,-4.1109,-4.1109,-4.1109,-4.1109,-4.1109,-4.1109,-4.1109,-4.1109,-4.1109,-4.1109,-4.1109,-4.1109,-4.1109,-4.1109,-4.1109,-4.1109,-4.1109,-4.0662,-3.9727,-3.9583,-3.902,-3.7974,-3.7083,-3.7072,-3.7873,-3.7969,-3.843,-4.2851,-4.3691,-4.4628,-4.6541,-4.739,-4.7673,-4.7285,-4.7094,-4.675,-4.5881,-4.5654,-4.5594,-4.5594,-4.5594,-4.5594,-4.5594,-4.5594,-4.5594,-4.5594,-4.5594,-4.5806,-4.6374,-4.5932,-4.5825,-4.6374,-4.5932,-4.5594,-4.5594,-4.5594,-4.5594,-4.5594,-4.5594,-4.5594,-4.5594,-4.5594,-4.5594,-4.5594,-4.5594,-4.5594,-4.5594,-4.5594,-4.5594,-4.5594,-4.5643,-4.5731,-4.5775,-4.5336,-4.5048,-4.4792,-4.3754,-4.2963,-4.2337,-4.1785,-4.1568,-4.1527,-4.1229,-4.1304,-4.1518,-4.1207,-4.1109,-4.1109,-4.1109,-4.1109,-4.1109,-4.1109,-4.1109,-4.1109,-4.1109,-4.1109,-4.1109,-4.1109,-4.1109,-4.1109,-4.1109,-4.1109,-4.1109,-4.1109,-4.1109,-4.1109,-4.1109,-4.1109,-4.1109,-4.1109,-4.1109,-4.1109,-4.1109,-4.1109,-4.1109,-4.1109,-4.1109,-4.1109,-4.1109,-4.1109,-4.1109,-4.1109,-4.1109,-4.1109,-4.1109,-4.1109,-4.1109,-4.1109,-4.1109,-4.0881,-4.0416,-4.0382,-3.9611,-3.8104,-3.7724,-3.77,-3.8007,-3.8565,-3.8996,-4.2558,-4.3066,-4.3886,-4.6451,-4.7001,-4.7131,-4.7928,-4.7553,-4.6855,-4.6256,-4.5847,-4.5594,-4.5594,-4.5594,-4.5594,-4.5594,-4.5594,-4.5594,-4.5594,-4.5594,-4.5913,-4.6797,-4.6394,-4.6374,-4.7221,-4.6528,-4.6028,-4.6028,-4.5768,-4.5594,-4.5594,-4.5594,-4.5594,-4.5594,-4.5325,-4.5171,-4.5171,-4.5171,-4.5171,-4.5171,-4.546,-4.5594,-4.5594,-4.5594,-4.5481,-4.5252,-4.4473,-4.422,-4.4267,-4.2942,-4.2235,-4.1903,-4.1332,-4.1095,-4.1095,-4.1091,-4.1109,-4.1109,-4.1109,-4.1109,-4.1109,-4.1109,-4.1109,-4.1109,-4.1109,-4.1109,-4.1109,-4.1109,-4.1109,-4.1109,-4.1109,-4.1109,-4.1109,-4.1109,-4.1109,-4.1109,-4.1109,-4.1109,-4.1109,-4.1109,-4.1109,-4.1109,-4.1109,-4.1109,-4.1109,-4.1109,-4.1109,-4.1109,-4.1109,-4.1109,-4.1109,-4.1109,-4.1109,-4.1109,-4.1109,-4.1109,-4.1109,-4.1109,-4.1109,-4.1109,-4.1109,-4.1109,-4.1008,-4.0795,-4.081,-4.0172,-3.891,-3.859,-3.843,-3.845,-3.9034,-3.9438,0.0,0.0,0.0,-4.5585,-4.6212,-4.6827,-4.9169,-4.8338,-4.7047,-4.6955,-4.6221,-4.5603,-4.5594,-4.5594,-4.5594,-4.5594,-4.5594,-4.5594,-4.5594,-4.5614,-4.5951,-4.6836,-4.6942,-4.725,-4.8067,-4.7394,-4.6904,-4.6904,-4.6086,-4.5594,-4.5594,-4.5594,-4.5594,-4.5556,-4.4739,-4.4297,-4.4259,-4.4259,-4.4259,-4.4278,-4.5152,-4.5556,-4.5556,-4.5594,-4.5133,-4.4267,-4.3518,-4.3303,-4.3406,-4.2668,-4.1867,-4.1109,-4.1109,-4.1109,-4.1109,-4.1109,-4.1109,-4.1109,-4.1109,-4.1109,-4.1109,-4.1109,-4.1109,-4.1109,-4.1109,-4.1109,-4.1109,-4.1109,-4.1109,-4.1109,-4.1109,-4.1109,-4.1109,-4.1109,-4.1109,-4.1109,-4.1109,-4.1109,-4.1109,-4.1109,-4.1109,-4.1109,-4.1109,-4.1109,-4.1109,-4.1109,-4.1109,-4.1109,-4.1109,-4.1109,-4.1109,-4.1109,-4.1109,-4.1109,-4.1109,-4.1109,-4.1109,-4.1109,-4.1109,-4.1109,-4.1109,-4.1108,-4.1008,-4.0795,-4.0806,-4.0696,-4.0496,-3.9727,-3.9342,-3.9342,-3.9342,-3.9746,-4.1914,0.0,0.0,0.0,0.0,0.0,-4.5468,-4.5849,-4.6083,-4.5356,-4.5493,-4.5723,-4.562,-4.5594,-4.5594,-4.5594,-4.5594,-4.5594,-4.5594,-4.6144,-4.6855,-4.7682,-4.7778,-4.8105,-4.8952,-4.774,-4.6904,-4.6904,-4.6086,-4.5594,-4.5594,-4.5594,-4.5306,-4.4682,-4.4432,-4.4028,-4.3431,-4.3431,-4.3431,-4.3431,-4.4259,-4.4662,-4.4682,-4.5306,-4.5133,-4.4267,-4.3518,-4.2873,-4.2283,-4.1652,-4.1276,-4.1109,-4.1109,-4.1109,-4.1109,-4.1109,-4.1109,-4.1109,-4.1109,-4.1109,-4.1109,-4.1109,-4.1109,-4.1109,-4.1109,-4.1109,-4.1109,-4.1109,-4.1109,-4.1109,-4.1109,-4.1109,-4.1109,-4.1109,-4.1109,-4.1109,-4.1109,-4.1109,-4.1109,-4.1109,-4.1109,-4.1109,-4.1109,-4.1109,-4.1109,-4.1109,-4.1109,-4.1109,-4.1109,-4.1109,-4.1109,-4.1109,-4.1109,-4.1109,-4.1109,-4.1109,-4.1109,-4.1109,-4.1109,-4.1109,-4.1109,-4.1059,-4.0961,-4.0791,-4.0754,-4.0649,-4.0496,-4.0285,-4.0169,-4.0169,-4.0169,-4.0285,-4.2264,-4.2771,-4.3414,-4.4506,0.0,0.0,-4.5184,-4.5347,-4.5424,-4.519,-4.5517,-4.5829,-4.5747,-4.5692,-4.5684,-4.5684,-4.5646,-4.5729,-4.6086,-4.6586,-4.7336,-4.8509,-4.8644,-4.8971,-4.9856,-4.8721,-4.7798,-4.7432,-4.6624,-4.597,-4.5614,-4.5594,-4.5364,-4.4855,-4.4162,-4.3566,-4.3104,-4.2739,-4.2566,-4.2566,-4.3393,-4.3797,-4.3816,-4.4335,-4.4108,-4.3266,-4.2806,-4.2169,-4.1402,-4.106,-4.0971,-4.1066,-4.1083,-4.1109,-4.1109,-4.1109,-4.1109,-4.1109,-4.1109,-4.1109,-4.1109,-4.1109,-4.1109,-4.1109,-4.1109,-4.1109,-4.1109,-4.1109,-4.1109,-4.1109,-4.1109,-4.1109,-4.1109,-4.1109,-4.1109,-4.1109,-4.1109,-4.1109,-4.1109,-4.1109,-4.1109,-4.1109,-4.1109,-4.1109,-4.1109,-4.1109,-4.1109,-4.1109,-4.1109,-4.1109,-4.1109,-4.1109,-4.1109,-4.1109,-4.1109,-4.1109,-4.1109,-4.1109,-4.1109,-4.1083,-4.1064,-4.1011,-4.0922,-4.0765,-4.0717,-4.0629,-4.0496,-4.0496,-4.0496,-4.0496,-4.0496,-4.0496,-4.2668,-4.2687,-4.3252,-4.557,-4.4982,0.0,-4.651,-4.5865,-4.5016,-4.5721,-4.5911,-4.5915,-4.5905,-4.5853,-4.5808,-4.5808,-4.5789,-4.6003,-4.6663,-4.6932,-4.7586,-4.9086,-4.9433,-4.9856,-5.0616,-4.9913,-4.9048,-4.8163,-4.7278,-4.6413,-4.5633,-4.5594,-4.5556,-4.546,-4.3912,-4.3047,-4.297,-4.2085,-4.1662,-4.1681,-4.2547,-4.297,-4.297,-4.3066,-4.2665,-4.1899,-4.184,-4.1414,-4.0776,-4.0781,-4.0882,-4.1019,-4.1074,-4.1109,-4.1109,-4.1109,-4.1109,-4.1109,-4.1109,-4.1109,-4.1109,-4.1109,-4.1109,-4.1109,-4.1109,-4.1109,-4.1109,-4.1109,-4.1109,-4.1109,-4.1109,-4.1109,-4.1109,-4.1109,-4.1109,-4.1109,-4.1109,-4.1109,-4.1109,-4.1109,-4.1109,-4.1109,-4.1109,-4.1109,-4.1109,-4.1109,-4.1109,-4.1109,-4.1109,-4.1109,-4.1109,-4.1109,-4.1109,-4.1109,-4.1109,-4.1109,-4.1109,-4.1109,-4.1109,-4.1072,-4.0994,-4.0984,-4.0889,-4.07,-4.0681,-4.0615,-4.0496,-4.0496,-4.0496,-4.0496,-4.0496,-4.0496,-4.4309,-4.4481,-4.4615,-4.5121,-4.4998,0.0,-4.4477,-4.4708,-4.4965,-4.502,-4.5589,-4.6037,-4.592,-4.5883,-4.5886,-4.5886,-4.6451,-4.6655,-4.5945,-4.7028,-4.799,-4.8317,-4.9586,-5.0519,-5.0673,-4.9913,-4.9048,-4.8163,-4.6701,-4.5787,-4.5614,-4.5594,-4.5287,-4.4586,-4.3605,-4.2758,-4.2058,-4.1181,-4.0746,-4.0766,-4.1643,-4.2038,-4.2085,-4.2777,-4.2621,-4.1817,-4.1805,-4.1336,-4.0568,-4.074,-4.0882,-4.1019,-4.1074,-4.1109,-4.1109,-4.1109,-4.1109,-4.1109,-4.1109,-4.1109,-4.1109,-4.1109,-4.1109,-4.1109,-4.1109,-4.1109,-4.1109,-4.1109,-4.1109,-4.1109,-4.1109,-4.1109,-4.1109,-4.1109,-4.1109,-4.1109,-4.1109,-4.1109,-4.1109,-4.1109,-4.1109,-4.1109,-4.1109,-4.1109,-4.1109,-4.1109,-4.1109,-4.1109,-4.1109,-4.1109,-4.1109,-4.1109,-4.1109,-4.1109,-4.1109,-4.1109,-4.1109,-4.1109,-4.1109,-4.1072,-4.0994,-4.0894,-4.0801,-4.07,-4.0588,-4.0527,-4.0496,-4.0496,-4.0496,-4.0496,-4.0496,-4.0496,-4.5004,-4.5001,-4.5096,-4.5545,-4.5327,0.0,0.0,-4.4699,-4.4985,-4.4902,-4.5582,-4.6042,-4.554,-4.5402,-4.535,-4.535,-4.5658,-4.5875,-4.5763,-4.7606,-4.9084,-4.9459,-5.028,-5.0766,-5.0721,-5.0308,-4.951,-4.8202,-4.6951,-4.6067,-4.5614,-4.5594,-4.5402,-4.496,-4.3739,-4.2893,-4.245,-4.1143,-4.0496,-4.0516,-4.0931,-4.1143,-4.1162,-4.1604,-4.1594,-4.1256,-4.1182,-4.0939,-4.0602,-4.0717,-4.0815,-4.091,-4.1046,-4.1109,-4.1109,-4.1109,-4.1109,-4.1109,-4.1109,-4.1109,-4.1109,-4.1109,-4.1109,-4.1109,-4.1109,-4.1109,-4.1109,-4.1109,-4.1109,-4.1109,-4.1109,-4.1109,-4.1109,-4.1109,-4.1109,-4.1109,-4.1109,-4.1109,-4.1109,-4.1109,-4.1109,-4.1109,-4.1109,-4.1109,-4.1109,-4.1109,-4.1109,-4.1109,-4.1109,-4.1109,-4.1109,-4.1109,-4.1109,-4.1109,-4.1109,-4.1109,-4.1109,-4.1109,-4.1109,-4.1072,-4.0994,-4.0937,-4.0834,-4.07,-4.0579,-4.0496,-4.0496,-4.0496,-4.0496,-4.0496,-4.0496,-4.0496,-4.55,-4.5246,-4.5421,-4.6124,-4.5773,-4.5246,0.0,0.0,0.0,-4.5246,-4.5812,-4.6085,-4.5382,-4.5019,-4.4887,-4.5063,-4.4853,-4.504,-4.608,-4.7889,-4.9457,-5.0342,-5.0716,-5.0858,-5.0749,-5.0404,-4.9683,-4.8432,-4.7298,-4.6413,-4.5883,-4.5691,-4.5594,-4.5594,-4.397,-4.3104,-4.3104,-4.1381,-4.0496,-4.0496,-4.0496,-4.0496,-4.0496,-4.0496,-4.0564,-4.0649,-4.0549,-4.0571,-4.0662,-4.0687,-4.0734,-4.0801,-4.1,-4.1083,-4.1109,-4.1109,-4.1109,-4.1109,-4.1109,-4.1109,-4.1109,-4.1109,-4.1109,-4.1109,-4.1109,-4.1109,-4.1109,-4.1109,-4.1109,-4.1109,-4.1109,-4.1109,-4.1109,-4.1109,-4.1109,-4.1109,-4.1109,-4.1109,-4.1109,-4.1109,-4.1109,-4.1109,-4.1109,-4.1109,-4.1109,-4.1109,-4.1109,-4.1109,-4.1109,-4.1109,-4.1109,-4.1109,-4.1109,-4.1109,-4.1109,-4.1109,-4.1109,-4.1109,-4.1109,-4.1072,-4.0994,-4.0963,-4.0854,-4.0662,-4.0564,-4.0496,-4.0496,-4.0496,-4.0496,-4.0496,-4.0496,-4.0496,-4.6397,-4.6144,-4.6183,-4.628,-4.6222,-4.6144,-4.6144,0.0,-4.6144,-4.6144,0.0,-4.6261,-4.6163,0.0,0.0,-4.6002,-4.5469,-4.5523,-4.7182,-4.7008,-4.72,-4.8605,-5.0026,-5.0887,-5.089,-4.9369,-4.8625,-4.9202,-4.7067,-4.6028,-4.6721,-4.6009,-4.5594,-4.5594,-4.397,-4.3104,-4.3104,-4.1381,-4.0496,-4.0496,-4.0496,-4.0496,-4.0496,-4.0496,-4.0504,-4.0519,-4.0504,-4.0504,-4.0534,-4.0649,-4.0706,-4.0723,-4.0929,-4.1054,-4.1109,-4.1109,-4.1109,-4.1109,-4.1109,-4.1109,-4.1109,-4.1109,-4.1109,-4.1109,-4.1109,-4.1109,-4.1109,-4.1109,-4.1109,-4.1109,-4.1109,-4.1109,-4.1109,-4.1109,-4.1109,-4.1109,-4.1109,-4.1109,-4.1109,-4.1109,-4.1109,-4.1109,-4.1109,-4.1109,-4.1109,-4.1109,-4.1109,-4.1109,-4.1109,-4.1109,-4.1109,-4.1109,-4.1109,-4.1109,-4.1109,-4.1109,-4.1109,-4.1109,-4.1109,-4.1072,-4.0994,-4.0825,-4.0675,-4.0527,-4.0504,-4.0496,-4.0496,-4.0496,-4.0496,-4.0496,-4.0496,-4.0496,-4.6534,-4.63,-4.63,-4.63,-4.63,-4.63,-4.63,-4.63,-4.63,-4.63,0.0,0.0,0.0,0.0,0.0,0.0,-4.5246,-4.5421,-4.6671,-4.6963,-4.7445,-4.8489,-4.8312,-4.8242,-4.8612,-4.8309,-4.8259,-4.8625,-4.7221,-4.6509,-4.6885,-4.6067,-4.5594,-4.5594,-4.397,-4.3104,-4.3104,-4.1381,-4.0496,-4.0496,-4.0496,-4.0496,-4.0496,-4.0496,-4.0496,-4.0496,-4.0496,-4.0496,-4.0504,-4.0564,-4.0622,-4.0712,-4.0834,-4.0954,-4.1054,-4.1081,-4.1109,-4.1109,-4.1109,-4.1109,-4.1109,-4.1109,-4.1109,-4.1109,-4.1109,-4.1109,-4.1109,-4.1109,-4.1109,-4.1109,-4.1109,-4.1109,-4.1109,-4.1109,-4.1109,-4.1246,-4.1752,-4.1459,-4.1246,-4.1752,-4.1439,-4.1109,-4.1109,-4.1109,-4.1109,-4.1109,-4.1109,-4.1109,-4.1109,-4.1109,-4.1109,-4.1109,-4.1109,-4.1109,-4.1109,-4.1109,-4.1109,-4.1109,-4.1109,-4.1072,-4.0994,-4.0839,-4.0709,-4.0615,-4.0542,-4.0496,-4.0496,-4.0496,-4.0496,-4.0496,-4.0496,-4.0496,-4.6534,-4.63,-4.63,-4.63,-4.63,-4.63,-4.63,-4.63,-4.6378,-4.6612,-4.6651,0.0,0.0,0.0,-4.5363,-4.5363,0.0,-4.4953,-4.5812,-4.628,-4.6911,-4.7921,-4.6881,-4.6246,-4.6612,-4.6926,-4.7381,-4.8048,-4.6913,-4.649,-4.7192,-4.6182,-4.5594,-4.5594,-4.397,-4.3104,-4.3104,-4.1381,-4.0496,-4.0496,-4.0496,-4.0496,-4.0496,-4.0496,-4.0496,-4.0496,-4.0496,-4.0496,-4.0496,-4.0496,-4.0564,-4.0655,-4.0743,-4.0848,-4.0954,-4.1051,-4.1109,-4.1109,-4.1109,-4.1109,-4.1109,-4.1109,-4.1109,-4.1109,-4.1109,-4.1109,-4.1109,-4.1109,-4.1109,-4.1109,-4.1109,-4.1285,-4.1459,-4.1459,-4.1636,-4.1988,-4.2611,-4.2259,-4.1927,-4.2318,-4.1888,-4.1382,-4.1148,-4.1109,-4.1109,-4.1109,-4.1109,-4.1109,-4.1109,-4.1109,-4.1109,-4.1109,-4.1109,-4.1109,-4.1109,-4.1109,-4.1109,-4.1109,-4.108,-4.1033,-4.0948,-4.082,-4.0732,-4.0642,-4.0557,-4.0496,-4.0496,-4.0496,-4.0496,-4.0496,-4.0496,-4.0496,-4.6534,-4.63,-4.63,-4.63,-4.63,-4.63,-4.63,-4.63,-4.6534,-4.7372,-4.7567,-4.7547,-4.7528,-4.6827,-4.6261,-4.6261,-4.4836,0.0,0.0,-4.4348,-4.4465,-4.6161,-4.6212,-4.6017,-4.5768,-4.5056,-4.5576,-4.7922,-4.5797,-4.5451,-4.7932,-4.649,-4.5594,-4.5594,-4.397,-4.3104,-4.3104,-4.1381,-4.0496,-4.0496,-4.0496,-4.0496,-4.0496,-4.0496,-4.0496,-4.0496,-4.0496,-4.0496,-4.0496,-4.0496,-4.0496,-4.0519,-4.0649,-4.0757,-4.0837,-4.104,-4.1109,-4.1109,-4.1109,-4.1109,-4.1109,-4.1109,-4.1109,-4.1109,-4.1109,-4.1109,-4.1109,-4.1109,-4.1109,-4.1109,-4.1109,-4.1732,-4.2357,-4.2357,-4.3001,-4.3627,-4.3647,-4.3647,-4.3372,-4.2552,-4.2376,-4.2084,-4.1246,-4.1109,-4.1109,-4.1109,-4.1109,-4.1109,-4.1109,-4.1109,-4.1109,-4.1109,-4.1109,-4.1109,-4.1109,-4.1109,-4.1109,-4.1109,-4.1047,-4.0944,-4.082,-4.0751,-4.0636,-4.0504,-4.0496,-4.0496,-4.0496,-4.0496,-4.0496,-4.0496,-4.0496,-4.0496,-4.6378,-4.63,-4.63,-4.63,-4.63,-4.63,-4.63,-4.63,-4.6554,-4.7411,-4.7606,-4.7606,-4.7606,-4.7352,-4.6963,-4.6397,-4.5324,-4.466,0.0,-4.3743,-4.2845,-4.2866,-4.3248,-4.3475,-4.3388,-4.4065,-4.5061,-4.6418,-4.5665,-4.5778,-4.724,-4.622,-4.5594,-4.5594,-4.397,-4.3104,-4.3104,-4.1381,-4.0496,-4.0496,-4.0496,-4.0496,-4.0496,-4.0496,-4.0496,-4.0496,-4.0496,-4.0496,-4.0496,-4.0496,-4.0496,-4.0512,-4.0642,-4.0732,-4.0824,-4.0974,-4.1066,-4.1109,-4.1109,-4.1109,-4.1109,-4.1109,-4.1109,-4.1109,-4.1109,-4.1109,-4.1109,-4.1109,-4.1109,-4.1226,-4.181,-4.2181,-4.2552,-4.3118,-4.3489,-4.386,-4.4445,-4.4114,-4.3606,-4.3313,-4.2786,-4.2123,-4.1246,-4.1109,-4.1109,-4.1109,-4.1109,-4.1109,-4.1109,-4.1109,-4.1109,-4.1109,-4.1109,-4.1109,-4.1109,-4.1109,-4.1109,-4.1109,-4.1078,-4.0989,-4.0815,-4.0776,-4.0686,-4.0504,-4.0496,-4.0496,-4.0496,-4.0496,-4.0496,-4.0496,-4.0496,-4.0496,-4.63,-4.63,-4.63,-4.63,-4.63,-4.6378,-4.669,-4.6768,-4.7002,-4.7842,-4.8037,-4.7939,-4.7645,-4.7606,-4.7215,-4.6027,-4.5636,-4.5343,0.0,-4.3235,-4.1849,-4.1596,-4.1707,-4.1791,-4.1786,-4.2621,-4.3763,-4.516,-4.4927,-4.5355,-4.6808,-4.6067,-4.5594,-4.5594,-4.397,-4.3104,-4.3104,-4.1381,-4.0496,-4.0496,-4.0496,-4.0496,-4.0496,-4.0496,-4.0496,-4.0496,-4.0496,-4.0496,-4.0496,-4.0496,-4.0496,-4.0504,-4.0607,-4.0697,-4.082,-4.0944,-4.103,-4.1109,-4.1109,-4.1109,-4.1109,-4.1109,-4.1109,-4.1109,-4.1109,-4.1109,-4.1109,-4.1109,-4.1109,-4.1304,-4.2162,-4.263,-4.3079,-4.3957,-4.4406,-4.4777,-4.5343,-4.5012,-4.4524,-4.4211,-4.3469,-4.2689,-4.2124,-4.1519,-4.1109,-4.1109,-4.1109,-4.1109,-4.1109,-4.1109,-4.1109,-4.1109,-4.1109,-4.1109,-4.1109,-4.1109,-4.1109,-4.1109,-4.1022,-4.0945,-4.0815,-4.0735,-4.0636,-4.0496,-4.0496,-4.0496,-4.0496,-4.0496,-4.0496,-4.0496,-4.0496,-4.0496]},{"header":{"parameterUnit":"m.s-1","parameterCategory":1,"la1":30.6,"la2":29.2853,"lo1":-89.7004,"lo2":-87.6739,"dy":0.0162,"dx":0.0183,"nx":112,"ny":82,"refTime":"2024-05-19T06:00:00:Z","depth":0,"parameterNumber":3,"parameterNumberName":"V-component_of_WINDS"},"data":[0.0,0.0,0.0,0.0,0.0,0.0,0.0,0.0,0.0,0.0,0.0,0.0,0.0,0.0,0.0,0.0,0.0,0.0,0.0,0.0,0.0,0.0,0.0,0.0,0.0,0.0,0.0,0.0,0.0,0.0,0.0,0.0,0.0,0.0,0.0,0.0,0.0,0.0,0.0,0.0,0.0,0.0,0.0,0.0,0.0,0.0,0.0,0.0,0.0,0.0,0.0,0.0,0.0,0.0,0.0,0.0,0.0,0.0,0.0,0.0,0.0,0.0,0.0,0.0,0.0,0.0,0.0,0.0,0.0,0.0,0.0,0.0,0.0,0.0,0.0,0.0,0.0,0.0,0.0,0.0,0.0,0.0,0.0,0.0,0.0,0.0,0.0,0.0,0.0,0.0,-0.6312,-0.6373,-0.6387,-0.6783,-0.7677,-0.8863,-0.9793,-1.0218,0.0,0.0,0.0,0.0,0.0,0.0,0.0,0.0,0.0,0.0,0.0,0.0,0.0,0.0,0.0,0.0,0.0,0.0,0.0,0.0,0.0,0.0,0.0,0.0,0.0,0.0,0.0,0.0,0.0,0.0,0.0,0.0,0.0,0.0,0.0,0.0,0.0,0.0,0.0,0.0,0.0,0.0,0.0,0.0,0.0,0.0,0.0,0.0,0.0,0.0,0.0,0.0,0.0,0.0,0.0,0.0,0.0,0.0,0.0,0.0,0.0,0.0,0.0,0.0,0.0,0.0,0.0,0.0,0.0,0.0,0.0,0.0,0.0,0.0,0.0,0.0,0.0,0.0,0.0,0.0,0.0,0.0,0.0,0.0,0.0,0.0,0.0,0.0,0.0,0.0,0.0,0.0,0.0,0.0,0.0,0.0,0.0,0.0,0.0,0.0,0.0,0.0,0.0,0.0,-0.6312,-0.6373,-0.6387,-0.6487,-0.6634,-0.8467,-0.9453,-0.9139,0.0,0.0,0.0,0.0,0.0,0.0,0.0,0.0,0.0,0.0,0.0,0.0,0.0,0.0,0.0,0.0,0.0,0.0,0.0,0.0,0.0,0.0,0.0,0.0,0.0,0.0,0.0,0.0,0.0,0.0,0.0,0.0,0.0,0.0,0.0,0.0,0.0,0.0,0.0,0.0,0.0,0.0,0.0,0.0,0.0,0.0,0.0,0.0,0.0,0.0,0.0,0.0,0.0,0.0,0.0,0.0,0.0,0.0,0.0,0.0,0.0,0.0,0.0,0.0,0.0,0.0,0.0,0.0,0.0,0.0,0.0,0.0,0.0,0.0,0.0,0.0,0.0,0.0,0.0,0.0,0.0,0.0,0.0,0.0,0.0,0.0,0.0,0.0,0.0,0.0,0.0,0.0,0.0,0.0,0.0,0.0,0.0,0.0,0.0,0.0,0.0,0.0,0.0,-0.6325,-0.638,-0.6381,-0.6446,-0.6709,-0.7235,-0.8715,-0.9647,-0.9749,-1.1211,0.0,0.0,0.0,0.0,0.0,0.0,0.0,0.0,0.0,0.0,0.0,0.0,0.0,0.0,0.0,0.0,0.0,0.0,0.0,0.0,0.0,0.0,0.0,0.0,0.0,0.0,0.0,0.0,0.0,0.0,0.0,0.0,0.0,0.0,0.0,0.0,0.0,0.0,0.0,0.0,0.0,0.0,0.0,0.0,0.0,0.0,0.0,0.0,0.0,0.0,0.0,0.0,0.0,0.0,0.0,0.0,0.0,0.0,0.0,0.0,0.0,0.0,0.0,0.0,0.0,0.0,0.0,0.0,0.0,0.0,0.0,0.0,0.0,0.0,0.0,0.0,0.0,0.0,0.0,0.0,0.0,0.0,0.0,0.0,0.0,0.0,0.0,0.0,0.0,0.0,0.0,0.0,0.0,0.0,0.0,0.0,0.0,0.0,0.0,0.0,0.0,0.0,-0.6435,-0.647,-0.647,-0.6581,-0.6884,-0.7588,-0.8799,-0.9698,-1.012,-1.1303,0.0,0.0,0.0,0.0,0.0,0.0,0.0,0.0,0.0,0.0,0.0,0.0,0.0,0.0,0.0,0.0,0.0,0.0,0.0,0.0,0.0,0.0,0.0,0.0,0.0,0.0,0.0,0.0,0.0,0.0,0.0,0.0,0.0,0.0,0.0,0.0,0.0,0.0,0.0,0.0,0.0,0.0,0.0,0.0,0.0,0.0,0.0,0.0,0.0,0.0,0.0,0.0,0.0,0.0,0.0,0.0,0.0,0.0,0.0,0.0,0.0,0.0,0.0,0.0,0.0,0.0,0.0,0.0,0.0,0.0,0.0,0.0,0.0,0.0,0.0,0.0,0.0,0.0,0.0,0.0,0.0,0.0,0.0,0.0,0.0,0.0,0.0,0.0,0.0,0.0,0.0,0.0,0.0,0.0,0.0,0.0,0.0,0.0,0.0,0.0,0.0,0.0,-0.6635,-0.6777,-0.6777,-0.6681,-0.6616,-0.6708,-0.8266,-0.9172,-0.9033,-1.0698,0.0,0.0,0.0,0.0,0.0,0.0,0.0,0.0,0.0,0.0,0.0,0.0,0.0,0.0,0.0,0.0,0.0,0.0,0.0,0.0,0.0,0.0,0.0,0.0,0.0,0.0,0.0,0.0,0.0,0.0,0.0,0.0,0.0,0.0,0.0,0.0,0.0,0.0,0.0,0.0,0.0,0.0,0.0,0.0,0.0,0.0,0.0,0.0,0.0,0.0,0.0,0.0,0.0,0.0,0.0,0.0,0.0,0.0,0.0,0.0,0.0,0.0,0.0,0.0,0.0,0.0,0.0,0.0,0.0,0.0,0.0,0.0,0.0,0.0,0.0,0.0,0.0,0.0,0.0,0.0,0.0,0.0,0.0,0.0,0.0,0.0,0.0,0.0,0.0,0.0,0.0,0.0,0.0,0.0,0.0,0.0,0.0,0.0,0.0,0.0,0.0,0.0,-0.6649,-0.6801,-0.6801,-0.676,-0.6703,-0.6627,-0.8354,-0.9284,-0.8901,0.0,0.0,0.0,0.0,0.0,0.0,0.0,0.0,0.0,0.0,0.0,0.0,0.0,0.0,0.0,0.0,0.0,0.0,0.0,0.0,0.0,0.0,0.0,0.0,0.0,0.0,0.0,0.0,0.0,0.0,0.0,0.0,0.0,0.0,0.0,0.0,0.0,0.0,0.0,0.0,0.0,0.0,0.0,0.0,0.0,0.0,0.0,0.0,0.0,0.0,0.0,0.0,0.0,0.0,0.0,0.0,0.0,0.0,0.0,0.0,0.0,0.0,0.0,0.0,0.0,0.0,0.0,0.0,0.0,0.0,0.0,0.0,0.0,0.0,0.0,0.0,0.0,0.0,0.0,0.0,0.0,0.0,0.0,0.0,0.0,0.0,0.0,0.0,0.0,0.0,0.0,0.0,0.0,0.0,0.0,0.0,0.0,0.0,0.0,0.0,0.0,0.0,-0.6363,-0.6662,-0.6844,-0.6806,-0.6766,-0.6711,-0.6627,-0.8364,-0.9268,-0.8822,0.0,0.0,0.0,0.0,0.0,0.0,0.0,0.0,0.0,0.0,0.0,0.0,0.0,0.0,0.0,0.0,0.0,0.0,0.0,0.0,0.0,0.0,0.0,0.0,0.0,0.0,0.0,0.0,0.0,0.0,0.0,0.0,0.0,0.0,0.0,0.0,0.0,0.0,0.0,0.0,0.0,0.0,0.0,0.0,0.0,0.0,0.0,0.0,0.0,0.0,0.0,0.0,0.0,0.0,0.0,0.0,0.0,0.0,0.0,0.0,0.0,0.0,0.0,0.0,0.0,0.0,0.0,0.0,0.0,0.0,0.0,0.0,0.0,0.0,0.0,0.0,0.0,0.0,0.0,0.0,0.0,0.0,0.0,0.0,0.0,0.0,0.0,0.0,0.0,0.0,0.0,0.0,0.0,0.0,0.0,0.0,0.0,0.0,0.0,0.0,0.0,0.0,-0.6317,-0.6687,-0.694,-0.6815,-0.6692,-0.6619,-0.6619,-0.821,-0.8989,0.0,0.0,0.0,0.0,0.0,0.0,0.0,0.0,0.0,0.0,0.0,0.0,0.0,0.0,0.0,0.0,0.0,0.0,0.0,0.0,0.0,0.0,0.0,0.0,0.0,0.0,0.0,0.0,0.0,0.0,0.0,0.0,0.0,0.0,0.0,0.0,0.0,0.0,0.0,0.0,0.0,0.0,0.0,0.0,0.0,0.0,0.0,0.0,0.0,0.0,0.0,0.0,0.0,0.0,0.0,0.0,0.0,0.0,0.0,0.0,0.0,0.0,0.0,0.0,0.0,0.0,0.0,0.0,0.0,0.0,0.0,0.0,0.0,0.0,0.0,0.0,0.0,0.0,0.0,0.0,0.0,0.0,0.0,0.0,0.0,0.0,0.0,0.0,0.0,0.0,0.0,0.0,0.0,0.0,0.0,0.0,0.0,0.0,0.0,0.0,0.0,0.0,0.0,-0.6151,-0.6635,-0.694,-0.6815,-0.6692,-0.6619,-0.6619,-0.821,-0.8989,-0.8511,0.0,0.0,0.0,0.0,0.0,0.0,0.0,0.0,0.0,0.0,0.0,0.0,0.0,0.0,0.0,0.0,0.0,0.0,0.0,0.0,0.0,0.0,0.0,0.0,0.0,0.0,0.0,0.0,0.0,0.0,0.0,0.0,0.0,0.0,0.0,0.0,0.0,0.0,0.0,0.0,0.0,0.0,0.0,0.0,0.0,0.0,0.0,0.0,0.0,0.0,0.0,0.0,0.0,0.0,0.0,0.0,0.0,0.0,0.0,0.0,0.0,0.0,0.0,0.0,0.0,0.0,0.0,0.0,0.0,0.0,0.0,0.0,0.0,0.0,0.0,0.0,0.0,0.0,0.0,0.0,0.0,0.0,0.0,0.0,0.0,0.0,0.0,0.0,0.0,0.0,0.0,0.0,0.0,0.0,0.0,0.0,0.0,0.0,0.0,0.0,0.0,0.0,-0.6029,-0.654,-0.6844,-0.6673,-0.6589,-0.6495,-0.6495,-0.8175,-0.8957,-0.8409,0.0,0.0,0.0,0.0,0.0,0.0,0.0,0.0,0.0,0.0,0.0,0.0,0.0,0.0,0.0,0.0,0.0,0.0,0.0,0.0,0.0,0.0,0.0,0.0,0.0,0.0,0.0,0.0,0.0,0.0,0.0,0.0,0.0,0.0,0.0,0.0,0.0,0.0,0.0,0.0,0.0,0.0,0.0,0.0,0.0,0.0,0.0,0.0,0.0,0.0,0.0,0.0,0.0,0.0,0.0,0.0,0.0,0.0,0.0,0.0,0.0,0.0,0.0,0.0,0.0,0.0,0.0,0.0,0.0,0.0,0.0,0.0,0.0,0.0,0.0,0.0,0.0,0.0,0.0,0.0,0.0,0.0,0.0,0.0,0.0,0.0,0.0,0.0,0.0,0.0,0.0,0.0,0.0,0.0,0.0,0.0,0.0,0.0,0.0,0.0,0.0,0.0,-0.5904,-0.6412,-0.6695,-0.6411,-0.6387,-0.6387,-0.6387,-0.8108,-0.8893,-0.8256,0.0,0.0,0.0,0.0,0.0,0.0,0.0,0.0,0.0,0.0,0.0,0.0,0.0,0.0,0.0,0.0,0.0,0.0,0.0,0.0,0.0,0.0,0.0,0.0,0.0,0.0,0.0,0.0,0.0,0.0,0.0,0.0,0.0,0.0,0.0,0.0,0.0,0.0,0.0,0.0,0.0,0.0,0.0,0.0,0.0,0.0,0.0,0.0,0.0,0.0,0.0,0.0,0.0,0.0,0.0,0.0,0.0,0.0,0.0,0.0,-0.657,-0.6473,0.0,0.0,0.0,0.0,0.0,0.0,0.0,0.0,0.0,0.0,0.0,0.0,0.0,0.0,0.0,0.0,0.0,0.0,0.0,0.0,0.0,0.0,0.0,0.0,0.0,0.0,0.0,0.0,0.0,0.0,0.0,0.0,0.0,0.0,0.0,0.0,0.0,0.0,0.0,0.0,-0.5739,-0.629,-0.66,-0.64,-0.6387,-0.6387,-0.6387,-0.7966,-0.8724,-0.8248,-0.9562,0.0,0.0,0.0,0.0,0.0,0.0,0.0,0.0,0.0,0.0,0.0,0.0,0.0,0.0,0.0,0.0,0.0,0.0,0.0,0.0,0.0,0.0,0.0,0.0,0.0,0.0,0.0,0.0,0.0,0.0,0.0,0.0,0.0,0.0,0.0,0.0,0.0,0.0,0.0,0.0,0.0,0.0,0.0,0.0,0.0,0.0,0.0,0.0,0.0,0.0,0.0,0.0,0.0,0.0,0.0,0.0,0.0,0.0,0.0,-0.6643,-0.6616,0.0,0.0,0.0,0.0,0.0,0.0,0.0,0.0,0.0,0.0,0.0,0.0,0.0,0.0,0.0,0.0,0.0,0.0,0.0,0.0,0.0,0.0,0.0,0.0,0.0,0.0,0.0,0.0,0.0,0.0,0.0,0.0,0.0,0.0,0.0,0.0,0.0,0.0,0.0,0.0,-0.5702,-0.6203,-0.6573,-0.6398,-0.6387,-0.6387,-0.6387,-0.7507,-0.8079,-0.7699,-0.8495,0.0,0.0,0.0,0.0,0.0,0.0,0.0,0.0,0.0,0.0,0.0,0.0,0.0,0.0,0.0,0.0,0.0,0.0,0.0,0.0,0.0,0.0,0.0,0.0,0.0,0.0,0.0,0.0,0.0,0.0,0.0,0.0,0.0,0.0,0.0,0.0,0.0,0.0,0.0,0.0,0.0,0.0,0.0,0.0,0.0,0.0,0.0,0.0,0.0,0.0,0.0,0.0,0.0,-0.6844,-0.6842,-0.6804,-0.6825,-0.6834,-0.6828,-0.6728,-0.6728,-0.6785,-0.6559,0.0,0.0,0.0,0.0,0.0,0.0,0.0,0.0,0.0,0.0,0.0,0.0,0.0,0.0,0.0,0.0,0.0,0.0,0.0,0.0,0.0,0.0,-0.5802,-0.5761,-0.5866,-0.5852,-0.5602,0.0,0.0,0.0,0.0,0.0,0.0,0.0,0.0,0.0,0.0,0.0,-0.5729,-0.6246,-0.6497,-0.6398,-0.6387,-0.6379,-0.6407,-0.7068,-0.7366,-0.7106,-0.7404,-0.7601,0.0,0.0,0.0,0.0,0.0,0.0,0.0,0.0,0.0,0.0,0.0,0.0,0.0,0.0,0.0,0.0,0.0,0.0,0.0,0.0,0.0,0.0,0.0,0.0,0.0,0.0,0.0,0.0,0.0,0.0,0.0,0.0,0.0,0.0,0.0,0.0,0.0,0.0,0.0,0.0,0.0,0.0,0.0,0.0,0.0,0.0,0.0,-0.6793,-0.6779,-0.6899,-0.6907,-0.6804,-0.701,-0.7002,-0.6806,-0.6912,-0.6961,-0.6959,-0.6945,0.0,-0.679,-0.6654,0.0,0.0,0.0,0.0,0.0,0.0,0.0,0.0,0.0,0.0,0.0,0.0,0.0,0.0,0.0,0.0,0.0,0.0,0.0,0.0,0.0,0.0,-0.6244,-0.6089,-0.6051,-0.6048,-0.6002,-0.576,-0.5497,-0.5464,-0.5431,-0.5366,0.0,0.0,0.0,0.0,0.0,0.0,-0.5871,-0.6219,-0.6403,-0.6387,-0.6387,-0.6396,-0.6298,-0.7063,-0.7369,-0.705,-0.7383,-0.7509,-0.7362,-0.7153,0.0,0.0,0.0,0.0,0.0,0.0,0.0,0.0,0.0,0.0,0.0,0.0,0.0,0.0,0.0,0.0,0.0,0.0,0.0,0.0,0.0,0.0,0.0,0.0,0.0,0.0,0.0,0.0,0.0,0.0,0.0,0.0,0.0,0.0,0.0,0.0,0.0,0.0,0.0,0.0,0.0,0.0,0.0,-0.6801,-0.6869,-0.6904,-0.6904,-0.7021,-0.7109,-0.7002,-0.7161,-0.7155,-0.7002,-0.7111,-0.7136,-0.7136,-0.7136,-0.7106,-0.6991,-0.6874,-0.6807,-0.6781,0.0,0.0,0.0,0.0,-0.6503,-0.6468,-0.6614,-0.6563,-0.6406,-0.6442,0.0,0.0,0.0,0.0,0.0,0.0,0.0,-0.6222,-0.6089,-0.6189,-0.6331,-0.6293,-0.6285,-0.6285,-0.6285,-0.6108,-0.5915,-0.5776,-0.5706,-0.5589,-0.5375,-0.5331,0.0,0.0,0.0,-0.5871,-0.5991,-0.6257,-0.6387,-0.6387,-0.6387,-0.6391,-0.6328,-0.6533,-0.6613,-0.6376,-0.6405,-0.6363,-0.622,-0.6038,-0.5852,0.0,0.0,0.0,0.0,0.0,0.0,0.0,0.0,0.0,0.0,0.0,0.0,0.0,0.0,0.0,0.0,0.0,0.0,0.0,0.0,0.0,0.0,0.0,0.0,0.0,0.0,0.0,0.0,0.0,0.0,0.0,0.0,0.0,0.0,0.0,0.0,0.0,0.0,0.0,-0.4541,-0.4939,-0.5652,-0.6837,-0.698,-0.7029,-0.7029,-0.7166,-0.721,-0.721,-0.721,-0.721,-0.721,-0.721,-0.721,-0.721,-0.721,-0.721,-0.7202,-0.7032,-0.6931,-0.6836,-0.6714,-0.654,-0.6374,-0.6497,-0.6464,-0.6388,-0.6594,-0.6586,-0.6425,-0.642,-0.6282,-0.61,-0.5923,0.0,0.0,0.0,0.0,-0.6154,-0.6292,-0.629,-0.6333,-0.6368,-0.6387,-0.6387,-0.6387,-0.6372,-0.6249,-0.6037,-0.5972,-0.5855,-0.5556,-0.5547,0.0,-0.5547,-0.576,-0.5994,-0.6116,-0.6309,-0.6387,-0.6387,-0.6363,-0.6347,-0.6233,-0.6111,-0.5988,-0.5869,-0.5621,-0.5454,-0.5416,-0.517,-0.4988,-0.4798,0.0,0.0,0.0,0.0,0.0,0.0,0.0,0.0,0.0,0.0,0.0,0.0,0.0,0.0,0.0,0.0,0.0,0.0,0.0,0.0,0.0,0.0,0.0,0.0,0.0,0.0,0.0,0.0,0.0,0.0,0.0,0.0,0.0,0.0,0.0,-0.0053,-0.1134,-0.2341,-0.3594,-0.4757,-0.5913,-0.7138,-0.7199,-0.7202,-0.7202,-0.7207,-0.721,-0.721,-0.721,-0.721,-0.721,-0.721,-0.721,-0.721,-0.721,-0.721,-0.7202,-0.7032,-0.698,-0.6964,-0.6842,-0.6714,-0.6616,-0.6738,-0.6706,-0.6619,-0.6749,-0.6711,-0.6627,-0.6738,-0.654,-0.6306,-0.6292,-0.6083,0.0,0.0,-0.6075,-0.6309,-0.6317,-0.6347,-0.6379,-0.6384,-0.6387,-0.6387,-0.6387,-0.6381,-0.6393,-0.6274,-0.6157,-0.6034,-0.5899,0.0,-0.5877,-0.5877,-0.5991,-0.6121,-0.6292,-0.6363,-0.6387,-0.6387,-0.6342,-0.6227,-0.6105,-0.5983,-0.5863,-0.5704,-0.5578,-0.5454,-0.5416,-0.5246,-0.5069,-0.4801,-0.479,0.0,0.0,0.0,0.0,0.0,0.0,0.0,0.0,0.0,0.0,0.0,0.0,0.0,0.0,0.0,0.0,0.0,0.0,0.0,0.0,0.0,0.0,0.0,0.0,0.0,0.0,0.0,0.0,0.0,0.0,0.0,0.0,0.0,0.0,0.0,-0.0382,-0.1482,-0.3491,-0.4112,-0.5285,-0.7215,-0.7347,-0.735,-0.7271,-0.7271,-0.7233,-0.721,-0.721,-0.721,-0.721,-0.721,-0.721,-0.721,-0.721,-0.721,-0.7207,-0.7166,-0.715,-0.7144,-0.71,-0.6956,-0.6869,-0.6986,-0.6953,-0.6872,-0.6989,-0.6953,-0.685,-0.6815,-0.6662,-0.6494,-0.6494,-0.6377,-0.6198,-0.6198,-0.6309,-0.6377,-0.6377,-0.6407,-0.6387,-0.6387,-0.6387,-0.6387,-0.6387,-0.6387,-0.6376,-0.6385,-0.6282,-0.6165,-0.6043,-0.6021,-0.6021,-0.6021,-0.6124,-0.6246,-0.6363,-0.6363,-0.6387,-0.6387,-0.6336,-0.6268,-0.6094,-0.5972,-0.582,-0.5583,-0.5532,-0.5419,-0.526,-0.5211,-0.5075,-0.4801,-0.4795,-0.4713,0.0,0.0,0.0,0.0,0.0,0.0,0.0,0.0,0.0,0.0,0.0,0.0,0.0,0.0,0.0,0.0,0.0,0.0,0.0,0.0,0.0,0.0,0.0,0.0,0.0,0.0,0.0,0.0,0.0,0.0,0.0,0.0,0.0,0.0,0.0,-0.0894,-0.2877,-0.3497,-0.4683,-0.6642,-0.724,-0.7478,-0.7339,-0.7298,-0.7296,-0.7217,-0.7229,-0.721,-0.721,-0.721,-0.721,-0.721,-0.721,-0.721,-0.721,-0.721,-0.721,-0.721,-0.721,-0.7163,-0.7051,-0.7182,-0.7161,-0.7054,-0.7185,-0.7136,-0.6972,-0.6891,-0.6752,-0.6619,-0.6619,-0.6481,-0.6387,-0.6387,-0.6387,-0.6387,-0.6387,-0.6387,-0.6387,-0.6387,-0.6387,-0.6387,-0.6387,-0.6387,-0.6387,-0.6387,-0.6377,-0.6298,-0.6217,-0.6203,-0.6203,-0.6203,-0.6274,-0.6352,-0.6376,-0.6387,-0.6387,-0.6387,-0.6298,-0.6173,-0.6092,-0.5899,-0.5691,-0.5575,-0.5491,-0.5417,-0.5254,-0.5173,-0.5056,-0.486,-0.4817,-0.4735,-0.4566,0.0,0.0,0.0,0.0,0.0,0.0,0.0,0.0,0.0,0.0,0.0,0.0,0.0,0.0,0.0,0.0,0.0,0.0,0.0,0.0,0.0,0.0,0.0,0.0,0.0,0.0,0.0,0.0,0.0,0.0,0.0,0.0,0.0,0.0,-0.0517,-0.1723,-0.3091,-0.435,-0.5461,-0.6818,-0.7529,-0.7524,-0.7347,-0.7282,-0.7277,-0.7214,-0.721,-0.721,-0.721,-0.721,-0.721,-0.721,-0.721,-0.721,-0.721,-0.721,-0.721,-0.721,-0.721,-0.721,-0.721,-0.7207,-0.7204,-0.7204,-0.7128,-0.698,-0.698,-0.6817,-0.6619,-0.6619,-0.6481,-0.6387,-0.6387,-0.6387,-0.6387,-0.6387,-0.6387,-0.6387,-0.6387,-0.6387,-0.6387,-0.6387,-0.6387,-0.6387,-0.6387,-0.6387,-0.6387,-0.6387,-0.6387,-0.6387,-0.6387,-0.6387,0.0,-0.6387,-0.6387,-0.6387,-0.6387,-0.6227,-0.6089,-0.6086,-0.5723,-0.5567,-0.5672,-0.5504,-0.541,-0.5402,-0.5137,-0.5018,-0.5018,-0.4858,-0.4776,-0.4695,0.0,0.0,0.0,0.0,0.0,0.0,0.0,0.0,0.0,0.0,0.0,0.0,0.0,0.0,0.0,0.0,0.0,0.0,0.0,0.0,0.0,0.0,0.0,0.0,0.0,0.0,0.0,0.0,0.0,0.0,0.0,0.0,0.0,0.0,-0.052,-0.1752,-0.3141,-0.4419,-0.5614,-0.7063,-0.7733,-0.7652,-0.7529,-0.7423,-0.7277,-0.7214,-0.721,-0.721,-0.721,-0.721,-0.721,-0.721,-0.721,-0.721,-0.721,-0.721,-0.721,-0.721,-0.721,-0.721,-0.721,-0.7158,-0.7032,-0.7032,-0.6953,-0.6853,-0.6853,-0.6747,-0.6619,-0.6619,-0.6481,-0.6387,-0.6387,-0.6387,-0.6387,-0.6387,-0.6387,-0.6387,-0.6387,-0.6387,-0.6387,-0.6387,-0.6387,-0.6387,-0.6387,-0.6387,-0.6387,-0.6387,-0.6387,-0.6387,-0.6387,-0.6387,-0.6387,-0.6387,-0.6387,-0.6387,-0.6387,-0.6306,-0.6184,-0.6092,-0.5996,-0.5803,-0.5491,-0.5488,-0.5385,-0.5124,-0.505,-0.5018,-0.5018,-0.4858,-0.4779,0.0,0.0,0.0,0.0,0.0,0.0,0.0,0.0,0.0,0.0,0.0,0.0,0.0,0.0,0.0,0.0,0.0,0.0,0.0,0.0,0.0,0.0,0.0,0.0,0.0,0.0,0.0,0.0,0.0,0.0,0.0,0.0,0.0,0.0,0.0,-0.0294,-0.101,-0.235,-0.3643,-0.4915,-0.6305,-0.7266,-0.7703,-0.7581,-0.7456,-0.7277,-0.7214,-0.721,-0.721,-0.721,-0.721,-0.721,-0.721,-0.721,-0.721,-0.721,-0.721,-0.721,0.0,0.0,0.0,0.0,-0.7043,-0.6978,-0.6926,-0.6828,-0.6725,-0.6725,-0.6643,-0.6492,-0.6492,-0.6441,-0.6387,-0.6387,-0.6387,-0.6387,-0.6387,-0.6387,-0.6387,-0.6387,-0.6387,-0.6387,-0.6387,-0.6387,-0.6387,-0.6387,-0.6387,0.0,-0.6387,-0.6387,-0.6387,-0.6387,-0.6387,-0.6387,-0.6387,-0.6387,-0.6387,-0.6387,-0.6336,-0.6268,-0.6094,-0.5996,0.0,0.0,0.0,-0.5219,-0.4914,-0.4952,0.0,0.0,0.0,0.0,0.0,-0.4958,0.0,0.0,-0.4353,-0.4094,0.0,0.0,0.0,0.0,0.0,0.0,0.0,0.0,0.0,0.0,0.0,0.0,0.0,0.0,0.0,0.0,0.0,0.0,0.0,0.0,0.0,0.0,0.0,0.0,0.0,0.0,0.0,0.0,0.0,0.0,0.0,-0.1286,0.0,0.0,0.0,-0.6413,-0.7462,-0.752,-0.7456,-0.7277,-0.7214,-0.721,-0.721,-0.721,-0.721,-0.721,-0.721,-0.721,-0.721,-0.721,-0.721,-0.721,-0.721,-0.721,-0.7196,-0.7027,-0.6978,-0.6948,-0.6825,0.0,0.0,-0.6597,-0.6473,-0.6387,-0.6387,-0.6387,-0.6387,-0.6387,-0.6387,-0.6387,-0.6387,-0.6387,-0.6387,-0.6387,-0.6387,-0.6387,-0.6387,-0.6387,-0.6387,-0.6387,-0.6387,-0.6387,-0.6387,-0.6387,-0.6387,-0.6387,-0.6387,-0.6387,-0.6387,-0.6387,-0.6387,-0.6387,-0.6347,0.0,-0.6097,-0.5907,-0.5726,-0.5672,-0.5393,-0.5113,-0.4866,-0.4999,-0.5007,-0.4858,-0.5099,-0.5159,-0.5056,-0.5036,-0.4626,-0.382,-0.3685,-0.3498,0.0,0.0,0.0,0.0,0.0,0.0,0.0,0.0,0.0,0.0,0.0,0.0,0.0,0.0,0.0,0.0,0.0,0.0,0.0,0.0,0.0,0.0,0.0,0.0,0.0,0.0,0.0,0.0,0.0,0.0,0.0,-0.1293,-0.2096,-0.2341,-0.4677,-0.5985,-0.6073,-0.7044,-0.7456,-0.7277,-0.7214,0.0,-0.721,-0.721,-0.721,-0.721,-0.721,-0.721,-0.721,-0.721,-0.721,-0.721,-0.721,-0.721,-0.7196,-0.7027,-0.6923,-0.682,-0.6698,-0.6575,-0.6422,-0.6422,-0.6406,-0.6387,-0.6387,-0.6387,0.0,-0.6387,-0.6387,-0.6387,-0.6387,-0.6387,-0.6387,-0.6387,-0.6387,-0.6387,-0.6387,-0.6387,-0.6387,-0.6387,-0.6387,-0.6387,-0.6387,-0.6387,-0.6387,-0.6387,-0.6387,-0.6387,-0.6387,-0.6387,-0.6387,-0.6387,-0.6368,-0.6317,-0.6105,-0.6135,-0.5999,-0.5567,-0.5428,-0.5355,-0.5268,-0.529,-0.529,-0.5265,-0.5353,-0.5364,-0.5301,-0.4532,-0.4072,-0.3884,-0.3805,-0.2912,0.0,0.0,0.0,0.0,0.0,0.0,0.0,0.0,0.0,0.0,0.0,0.0,0.0,0.0,0.0215,0.0827,0.0388,0.0222,0.0839,0.0392,0.0,0.0,0.0,0.0,0.0,0.0,0.0,0.0,0.0,0.0,0.0,-0.0617,-0.1295,-0.1973,-0.324,-0.4468,-0.5584,-0.6197,-0.6732,-0.7244,-0.724,-0.721,-0.721,-0.721,-0.721,-0.721,-0.721,-0.721,-0.721,-0.721,-0.721,-0.721,-0.721,-0.721,-0.7188,-0.6959,-0.6855,-0.6777,-0.6592,-0.6435,-0.6387,-0.6387,-0.6387,-0.6387,-0.6387,-0.6387,-0.6387,-0.6387,-0.6387,-0.6387,-0.6387,-0.6387,-0.6387,-0.6387,-0.6387,-0.6387,-0.6387,-0.6387,-0.6387,-0.6387,-0.6387,-0.6387,-0.6387,-0.6387,-0.6387,-0.6387,-0.6387,-0.6387,-0.6387,-0.6387,-0.6387,-0.6387,-0.6387,-0.6342,-0.6105,-0.6034,-0.5871,-0.5526,-0.5451,-0.5431,-0.5413,-0.541,-0.541,-0.541,-0.4962,-0.4709,-0.4655,-0.3733,-0.3053,-0.26,-0.2418,-0.1847,0.0,0.0,0.0,0.0,0.0,0.0,0.0,0.0,0.0,0.0,0.0,0.0,0.0,0.0,0.0387,0.162,0.0784,0.0448,0.1623,0.0784,0.0,0.0,0.0,0.0,0.0,0.0,0.0,0.0,0.0,0.0,0.0,0.0,-0.0492,-0.1596,-0.1875,-0.3032,-0.5084,-0.536,-0.6077,-0.721,-0.721,-0.721,-0.721,-0.721,-0.721,-0.721,-0.721,-0.721,-0.721,-0.721,-0.721,-0.721,-0.721,-0.7196,-0.715,-0.688,-0.6787,-0.6736,-0.6462,-0.6387,-0.6387,-0.6387,-0.6387,-0.6387,-0.6387,-0.6387,-0.6387,-0.6387,-0.6387,-0.6387,-0.6387,-0.6387,-0.6387,-0.6387,-0.6387,-0.6387,-0.6387,-0.6387,-0.6387,-0.6387,-0.6387,-0.6387,-0.6387,-0.6387,-0.6387,-0.6387,-0.6387,-0.6387,-0.6387,-0.6387,-0.6387,-0.6387,-0.6368,-0.6306,-0.607,-0.5855,-0.5648,-0.5548,-0.5543,-0.5499,-0.5445,-0.5442,-0.5355,-0.5183,-0.4497,-0.3978,-0.3696,-0.2856,-0.2077,-0.1319,-0.0851,-0.0643,0.2311,0.2162,0.1195,0.0235,0.0,0.0,0.0,0.0,0.0,0.0,0.0,0.0,0.0,0.0,0.0391,0.1623,0.0784,0.0448,0.1623,0.0784,0.0,0.0,0.0,0.0,0.0,0.0,0.0,0.0,0.0,0.0,0.0,0.0,-0.006,-0.0242,-0.1368,-0.2574,-0.3796,-0.4931,-0.6077,-0.721,-0.721,-0.721,-0.721,-0.721,-0.721,-0.721,-0.721,-0.721,-0.721,-0.721,-0.721,-0.721,-0.721,-0.7147,-0.6989,-0.6853,-0.6733,-0.6622,-0.6433,-0.6387,-0.6387,-0.6387,-0.6387,-0.6387,-0.6387,-0.6387,-0.6387,-0.6387,-0.6387,-0.6387,-0.6387,-0.6387,-0.6387,-0.6387,-0.6387,-0.6387,-0.6387,-0.6387,-0.6387,-0.6387,-0.6387,-0.6387,-0.6387,-0.6387,-0.6387,-0.6387,-0.6387,-0.6387,-0.6387,-0.6387,-0.6387,-0.6387,-0.6347,-0.6189,-0.5945,-0.5806,-0.5683,-0.5669,-0.5667,-0.5661,-0.5648,-0.5648,-0.5292,-0.4446,-0.4324,-0.3877,-0.3025,-0.2008,-0.1473,-0.1381,-0.0267,0.0353,0.2166,0.1867,0.1228,0.0241,0.0,0.0,0.0,0.0,0.0,0.0,0.0,0.0,0.0,0.0,0.0616,0.2519,0.1919,0.1534,0.2668,0.1875,0.0855,0.0115,0.0,0.0,0.0,0.0,0.0,0.0,0.0,0.0,0.0,0.0,0.0,0.0,-0.0527,-0.1734,-0.3556,-0.4145,-0.5346,-0.721,-0.721,-0.721,-0.721,-0.721,-0.721,-0.721,-0.721,-0.721,-0.721,-0.721,-0.721,-0.7202,-0.7136,-0.6983,-0.6872,-0.682,-0.6725,-0.6603,-0.6427,-0.6387,-0.6387,-0.6387,-0.6387,-0.6387,-0.6387,-0.6387,-0.6387,-0.6387,-0.6387,-0.6387,-0.6387,-0.6387,-0.6387,-0.6387,-0.6387,-0.6387,-0.6387,-0.6387,-0.6387,-0.6387,-0.6387,-0.6387,-0.6387,-0.6387,-0.6387,-0.6387,-0.6387,-0.6387,-0.6387,-0.638,-0.6312,-0.6241,-0.6127,-0.6013,-0.5912,-0.5798,-0.5688,-0.5688,-0.5688,-0.5688,-0.5688,-0.5196,-0.4701,-0.43,-0.3181,-0.2419,-0.2017,-0.1077,-0.0494,-0.0359,0.0269,0.0714,0.1879,0.148,0.1213,0.0246,0.0,0.0,0.0,0.0,0.0,0.0,0.0,0.0,0.0,0.028,0.1178,0.3321,0.3017,0.2868,0.3957,0.3212,0.2124,0.1091,0.0697,0.0472,0.0481,0.0182,0.0,0.0,0.0,0.0,0.0,0.0,0.0,0.0,0.0,-0.1027,-0.3077,-0.3434,-0.4641,-0.6707,-0.7043,-0.721,-0.721,-0.721,-0.721,-0.721,-0.721,-0.721,-0.721,-0.721,-0.721,-0.7199,-0.7029,-0.691,-0.6798,-0.6763,-0.6673,-0.6556,-0.6416,-0.6387,-0.6387,-0.6387,-0.6387,-0.6387,-0.6387,-0.6387,-0.6387,-0.6387,-0.6387,-0.6387,-0.6387,-0.6387,-0.6387,-0.6387,-0.6387,-0.6379,-0.6396,-0.6391,-0.638,-0.6347,-0.6339,-0.6339,-0.6339,-0.6339,-0.635,-0.6385,-0.6361,-0.6352,-0.6385,-0.6238,-0.6122,-0.6048,-0.5909,-0.5845,-0.5858,-0.5734,-0.5688,-0.5688,-0.5688,-0.5599,-0.5329,-0.4656,-0.403,-0.3492,-0.2107,-0.1256,-0.1032,-0.0314,0.0135,0.0403,0.0628,0.0852,0.2006,0.1495,0.1359,0.0252,0.0,0.0,0.0,0.0,0.0,0.0,0.0,0.0,0.0,0.0953,0.2195,0.3545,0.3785,0.4128,0.5268,0.4472,0.3672,0.35,0.2469,0.1745,0.1741,0.0672,0.0,0.0,0.0,0.0,0.0,0.0,0.0,0.0,0.0,-0.0617,-0.1849,-0.3023,-0.425,-0.5483,-0.6652,-0.721,-0.721,-0.721,-0.721,-0.721,-0.721,-0.721,-0.721,-0.721,-0.721,-0.7199,-0.7029,-0.691,-0.6787,-0.6668,-0.6497,-0.6392,-0.6387,-0.6387,-0.6387,-0.6387,-0.6387,-0.6387,-0.6387,-0.6387,-0.6387,-0.6387,-0.6387,-0.6387,-0.6387,-0.6387,-0.6387,-0.6387,-0.6387,-0.6407,-0.6295,-0.6322,-0.6287,-0.6119,-0.6097,-0.6097,-0.6097,-0.6097,-0.6135,-0.6306,-0.6173,-0.614,-0.6309,-0.5971,-0.5758,-0.5874,-0.5726,-0.5636,-0.5704,-0.5691,-0.5688,-0.5688,-0.5688,-0.5285,-0.4389,-0.43,-0.3403,-0.1524,-0.1436,-0.0942,-0.0045,0.0,0.0135,0.0403,0.0628,0.0852,0.2821,0.1967,0.1217,0.026,0.0,0.0,0.0,0.0,0.0,0.0,0.0616,0.1176,0.1176,0.2183,0.3431,0.4743,0.503,0.5202,0.5552,0.5385,0.4835,0.3852,0.2683,0.1875,0.1836,0.0722,0.0,0.0,0.0,0.0,0.0,0.0,0.0,0.0,0.0,-0.056,-0.1791,-0.2183,-0.3413,-0.5427,-0.6596,-0.721,-0.721,-0.721,-0.721,-0.721,-0.721,-0.721,-0.721,-0.721,-0.7166,-0.7029,-0.691,-0.6787,-0.6665,-0.6492,-0.6422,-0.6387,-0.6387,-0.6387,-0.6387,-0.6387,-0.6387,-0.6387,-0.6387,-0.6387,-0.6387,-0.6387,-0.6387,-0.6387,-0.6387,-0.6387,-0.6387,-0.6387,-0.6387,-0.6404,-0.6293,-0.6317,-0.6281,-0.6111,-0.6086,-0.6086,-0.6086,-0.6086,-0.6072,-0.6032,-0.613,-0.6162,-0.6043,-0.5805,-0.5598,-0.5575,-0.5335,-0.523,-0.5238,-0.5416,-0.5508,-0.5508,-0.506,-0.4612,-0.43,-0.3047,-0.2048,-0.1406,-0.0802,-0.0223,0.0264,0.0268,0.0493,0.0852,0.0942,0.1076,0.3257,0.2235,0.1221,0.0264,0.0,0.0,0.0,0.0,0.0,0.0,0.0953,0.1791,0.1791,0.3148,0.4528,0.5374,0.6011,0.6405,0.6373,0.6471,0.6217,0.5238,0.4054,0.312,0.2547,0.143,0.0542,0.0061,0.0,0.0,0.0,0.0,0.0,0.0,0.0,-0.0392,-0.1176,-0.1567,-0.3022,-0.5427,-0.6596,-0.721,-0.721,-0.721,-0.721,-0.721,-0.721,-0.721,-0.721,-0.721,-0.7144,-0.6972,-0.685,-0.6728,-0.6603,-0.643,-0.6387,-0.6387,-0.6387,-0.6387,-0.6387,-0.6387,-0.6387,-0.6387,-0.6387,-0.6387,-0.6387,-0.6387,-0.6387,-0.6387,-0.6387,-0.6387,-0.6387,-0.6387,-0.6387,-0.6393,-0.6238,-0.6251,-0.6154,-0.5991,-0.5961,-0.5961,-0.5961,-0.5947,-0.589,-0.5721,-0.5823,-0.5879,-0.5729,-0.5481,-0.5272,-0.5243,-0.5057,-0.4924,-0.501,-0.5146,-0.5102,-0.4788,-0.4297,-0.3758,-0.3041,-0.1823,-0.1057,-0.0783,-0.0175,0.0175,0.0344,0.0395,0.0621,0.1065,0.1073,0.1211,0.3328,0.2336,0.1325,0.0264,0.0,0.0,0.0,0.0,0.0,0.0056,0.1063,0.19,0.1955,0.3956,0.5602,0.561,0.6769,0.7655,0.7551,0.7638,0.7663,0.7535,0.6457,0.5193,0.401,0.2724,0.1478,0.018,0.006,0.0,0.0,0.0,0.0,0.0,0.0,0.0,0.0,-0.1176,-0.2965,-0.5314,-0.6541,-0.7154,-0.721,-0.721,-0.721,-0.721,-0.721,-0.721,-0.721,-0.7204,-0.7133,-0.6964,-0.6839,-0.6717,-0.6594,-0.6427,-0.6387,-0.6387,-0.6387,-0.6387,-0.6387,-0.6387,-0.6387,-0.6387,-0.6387,-0.6387,-0.6387,-0.6387,-0.6387,-0.6387,-0.6387,-0.6387,-0.6387,-0.6387,-0.6387,-0.6322,-0.6135,-0.6086,-0.6015,-0.5734,-0.5688,-0.5688,-0.5688,-0.5647,-0.5542,-0.5387,-0.528,-0.5218,-0.5342,-0.4973,-0.4792,-0.4966,-0.479,-0.4748,-0.4966,-0.4921,-0.4516,-0.3623,-0.3489,-0.2637,-0.0759,-0.0702,-0.0347,0.039,0.034,0.0337,0.0336,0.0387,0.0653,0.1001,0.1067,0.1211,0.3328,0.2308,0.1346,0.0265,0.0,0.0,0.0,0.0,0.0223,0.1047,0.2141,0.3225,0.4046,0.5513,0.6684,0.6791,0.723,0.7616,0.7761,0.7807,0.7752,0.7543,0.6457,0.5502,0.5054,0.3066,0.1736,0.1395,0.0524,0.0,0.0,0.0,0.0,0.0,0.0,0.0,0.0,-0.1176,-0.2574,-0.4083,-0.5258,-0.6318,-0.721,-0.721,-0.721,-0.721,-0.721,-0.721,-0.7202,-0.7117,-0.6956,-0.6836,-0.6714,-0.6592,-0.6427,-0.6398,-0.6387,-0.6387,-0.6387,-0.6387,-0.6387,-0.6387,-0.6387,-0.6387,-0.6387,-0.6387,-0.6387,-0.6387,-0.6387,-0.6387,-0.6387,-0.6387,-0.6387,-0.6387,-0.6387,-0.6322,-0.6135,-0.6086,-0.6015,-0.5734,-0.5688,-0.5644,-0.5508,-0.5442,-0.536,-0.5149,-0.4947,-0.4912,-0.506,-0.4882,-0.4703,-0.4792,-0.4569,-0.4433,-0.4478,-0.3979,-0.3576,-0.3309,-0.2146,-0.1244,-0.0788,-0.0087,0.0386,0.0539,0.0544,0.0626,0.0821,0.0854,0.1001,0.1304,0.1332,0.1345,0.2678,0.2016,0.134,0.0265,0.0,0.0163,0.0669,0.0392,0.0447,0.2156,0.3033,0.3848,0.4953,0.6229,0.7165,0.7244,0.7448,0.7627,0.7703,0.7807,0.7804,0.7619,0.7002,0.6251,0.5512,0.3743,0.241,0.1837,0.0689,0.0,0.0,0.0,0.0,0.0,0.0,0.0,0.0,-0.1176,-0.2127,-0.2853,-0.4587,-0.5761,-0.6429,-0.6932,-0.721,-0.721,-0.721,-0.721,-0.7202,-0.7032,-0.6912,-0.679,-0.6668,-0.6495,-0.6387,-0.6387,-0.6387,-0.6387,-0.6387,-0.6387,-0.6387,-0.6387,-0.6387,-0.6387,-0.6387,-0.6387,-0.6387,-0.6387,-0.6387,-0.6387,-0.6387,-0.6387,-0.6387,-0.6387,-0.6399,-0.6312,-0.6127,-0.6043,-0.5904,-0.5631,-0.5552,-0.5508,-0.528,-0.5149,-0.506,-0.4879,-0.4659,-0.4569,-0.4699,-0.4612,-0.4525,-0.4525,-0.4389,-0.4119,-0.3717,-0.3328,-0.2703,-0.1833,-0.0923,-0.0262,0.0132,0.0687,0.0924,0.0785,0.0738,0.0816,0.1017,0.1013,0.112,0.1391,0.1421,0.1391,0.1915,0.1616,0.1327,0.0264,0.0,0.0323,0.1501,0.0949,0.089,0.3279,0.3778,0.4164,0.5318,0.6466,0.726,0.7226,0.7434,0.7627,0.7554,0.772,0.7807,0.769,0.7679,0.7143,0.5841,0.4552,0.3317,0.2117,0.0744,0.0,0.0,0.0,0.0,0.0,0.0,0.0,0.0,-0.1064,-0.1623,-0.1847,-0.3916,-0.5091,-0.5427,-0.6485,-0.7043,-0.721,-0.721,-0.721,-0.7199,-0.7016,-0.6899,-0.6787,-0.6649,-0.6478,-0.6387,-0.6387,-0.6387,-0.6387,-0.6387,-0.6387,-0.6387,-0.6387,-0.6387,-0.6387,-0.6387,-0.6387,-0.6387,-0.6387,-0.6387,-0.6387,-0.6387,-0.6387,-0.6381,-0.6368,-0.6339,-0.6279,-0.6092,-0.5966,-0.5759,-0.5481,-0.5416,-0.5327,-0.501,-0.4837,-0.4705,-0.4661,-0.4433,-0.43,-0.43,-0.43,-0.43,-0.43,-0.43,-0.3941,-0.3001,-0.2775,-0.1932,-0.0134,0.0043,0.0474,0.1383,0.1352,0.1237,0.1048,0.0964,0.0992,0.1053,0.1036,0.1145,0.1385,0.1415,0.1387,0.1915,0.1581,0.1349,0.0265,0.0,0.0323,0.1501,0.1535,0.1987,0.4288,0.4769,0.5069,0.6205,0.6736,0.707,0.7199,0.7293,0.7462,0.7644,0.7703,0.7687,0.7565,0.7551,0.7346,0.6955,0.495,0.3539,0.3315,0.1238,0.0,0.0,0.0,0.0,0.0,0.0,0.0,0.0,-0.0224,-0.084,-0.1791,-0.2239,-0.3469,-0.5427,-0.5594,-0.6262,-0.721,-0.721,-0.721,-0.7193,-0.6921,-0.6823,-0.6779,-0.6505,-0.6403,-0.6387,-0.6387,-0.6387,-0.6387,-0.6387,-0.6387,-0.6387,-0.6387,-0.6387,-0.6387,-0.6387,-0.6387,-0.6387,-0.6387,-0.6387,-0.6387,-0.6387,-0.6387,-0.6363,-0.632,-0.6331,-0.6254,-0.5983,-0.5844,-0.5668,-0.5466,-0.5416,-0.5282,-0.4837,-0.4703,-0.4614,-0.4389,-0.4344,-0.43,-0.43,-0.43,-0.43,-0.43,-0.43,-0.3941,-0.3001,-0.2141,-0.1204,-0.009,0.0712,0.1236,0.1398,0.1318,0.1289,0.1229,0.1235,0.122,0.1265,0.1255,0.1284,0.1313,0.1384,0.1411,0.0919,0.0773,0.0627,0.0107,0.0,0.0483,0.2252,0.2113,0.2447,0.5312,0.5417,0.5349,0.6513,0.6812,0.6948,0.7182,0.7255,0.7421,0.7665,0.7752,0.7744,0.7627,0.7557,0.7448,0.7266,0.562,0.4252,0.3636,0.1959,0.0672,0.0056,0.0,0.0,0.0,0.0,0.0,0.0,0.0,-0.028,-0.0896,-0.1512,-0.2407,-0.3525,-0.4196,-0.5144,-0.6262,-0.6262,-0.6596,-0.7191,-0.6899,-0.6801,-0.6779,-0.6481,-0.6387,-0.6387,-0.6387,-0.6387,-0.6387,-0.6387,-0.6387,-0.6387,-0.6387,-0.6387,-0.6387,-0.6387,-0.6387,-0.6387,-0.6387,-0.6387,-0.6387,-0.6387,-0.6393,-0.635,-0.6355,-0.6263,-0.6108,-0.5727,-0.5589,-0.5463,-0.5107,-0.5015,-0.4926,-0.4569,-0.448,-0.4433,-0.43,-0.43,-0.43,-0.43,-0.43,-0.43,-0.43,-0.3851,-0.3179,-0.2193,-0.1241,-0.0264,0.0661,0.1135,0.1346,0.139,0.1348,0.1284,0.1285,0.1281,0.1305,0.1281,0.1296,0.1326,0.137,0.1384,0.1406,0.0,0.0,0.0,0.0,0.0,0.0589,0.2879,0.2623,0.2842,0.607,0.602,0.565,0.6603,0.6785,0.6864,0.7103,0.7182,0.7336,0.7554,0.7706,0.7763,0.7674,0.7578,0.747,0.729,0.6156,0.4923,0.3692,0.2239,0.1008,0.0056,0.0,0.0,0.0,0.0,0.0,0.0,0.0,0.0,0.0,-0.0953,-0.1567,-0.1847,-0.2798,-0.4027,-0.5371,-0.5146,-0.5871,-0.7135,-0.6628,-0.6587,-0.6779,-0.6481,-0.6387,-0.6387,-0.6387,-0.6387,-0.6387,-0.6387,-0.6387,-0.6387,-0.6387,-0.6387,-0.6387,-0.6387,-0.6387,-0.6387,-0.6387,-0.6387,-0.6387,-0.6387,-0.6352,-0.6279,-0.6312,-0.6162,-0.5912,-0.5499,-0.5416,-0.5282,-0.4795,-0.4705,-0.4614,-0.4344,-0.43,-0.43,-0.43,-0.43,-0.43,-0.43,-0.43,-0.421,-0.403,-0.336,-0.2418,-0.1208,-0.0439,0.0392,0.1356,0.133,0.1327,0.1398,0.1343,0.1282,0.1305,0.1288,0.1309,0.1293,0.1293,0.1323,0.1381,0.1381,0.14,0.0,0.0,0.0,0.0,0.0,0.0589,0.2879,0.3202,0.3712,0.6149,0.6532,0.6481,0.6584,0.6728,0.6809,0.6831,0.6937,0.7062,0.7243,0.7404,0.7546,0.7538,0.7527,0.747,0.729,0.6156,0.4923,0.3692,0.1456,0.0112,0.0,0.0,0.0,0.0,0.0,0.0,0.0,0.0,0.0,0.0,-0.0112,-0.0728,-0.1791,-0.1903,-0.3245,-0.5316,-0.425,-0.5087,-0.708,-0.571,-0.5787,-0.6779,-0.6481,-0.6387,-0.6387,-0.6387,-0.6387,-0.6387,-0.6387,-0.6387,-0.6387,-0.6387,-0.6387,-0.6387,-0.6387,-0.6387,-0.6387,-0.6387,-0.6387,-0.6387,-0.6387,-0.6352,-0.6262,-0.6002,-0.5855,-0.567,-0.5466,-0.5416,-0.5282,-0.4795,-0.4705,-0.4614,-0.4344,-0.43,-0.43,-0.43,-0.43,-0.43,-0.43,-0.43,-0.3985,-0.3135,-0.2957,-0.215,-0.0269,-0.0044,0.0394,0.134,0.1403,0.1399,0.1385,0.1332,0.1303,0.1305,0.1288,0.1298,0.1301,0.1301,0.1292,0.1309,0.1309,0.1339,0.0,0.0,0.0,0.0,0.0,0.0587,0.2787,0.3221,0.3833,0.6042,0.646,0.646,0.646,0.6497,0.663,0.6779,0.6904,0.7076,0.7336,0.7456,0.757,0.7714,0.754,0.7418,0.7445,0.6873,0.5701,0.3748,0.1344,0.0,0.0,0.0,0.0,0.0,0.0,0.0,0.0,0.0,0.0,0.0,0.0,-0.0224,-0.0728,-0.0728,-0.1623,-0.3189,-0.2742,-0.3467,-0.5018,-0.501,-0.5309,-0.5767,-0.6225,-0.6387,-0.6387,-0.6387,-0.6387,-0.6387,-0.6387,-0.6387,-0.6387,-0.6387,-0.6387,-0.6387,-0.6387,-0.6387,-0.6387,-0.6387,-0.6387,-0.6387,-0.6387,-0.6352,-0.6189,-0.5877,-0.5729,-0.5549,-0.525,-0.506,-0.4882,-0.4523,-0.4478,-0.4433,-0.43,-0.43,-0.43,-0.43,-0.43,-0.43,-0.43,-0.3807,-0.309,-0.2104,-0.2014,-0.1433,-0.0134,0.0534,0.1017,0.1364,0.1414,0.1414,0.1408,0.1386,0.1323,0.1306,0.1306,0.1284,0.1284,0.1284,0.1315,0.1373,0.1373,0.1395,0.0,0.0,0.0,0.0,0.0219,0.0959,0.2762,0.3463,0.4178,0.6034,0.6387,0.6387,0.6387,0.6416,0.6484,0.6671,0.6858,0.7062,0.7277,0.7399,0.7527,0.7693,0.7489,0.7312,0.7456,0.665,0.5423,0.3748,0.1344,0.0,0.0,0.0,0.0,0.0,0.0,0.0,0.0,0.0,0.0,0.0,0.0,0.0,0.0,0.0,-0.0672,-0.1791,-0.14,-0.2176,-0.36,-0.3872,-0.4182,-0.462,-0.5551,-0.5937,-0.5984,-0.6284,-0.6387,-0.6387,-0.6387,-0.6387,-0.6387,-0.6387,-0.6387,-0.6387,-0.6387,-0.6387,-0.6387,-0.6387,-0.6363,-0.6372,-0.6298,-0.6219,-0.6089,-0.5711,-0.557,-0.5423,-0.4985,-0.4792,-0.4614,-0.4344,-0.43,-0.43,-0.43,-0.43,-0.43,-0.43,-0.43,-0.43,-0.43,-0.3494,-0.2508,-0.1522,-0.1164,-0.0627,0.0314,0.102,0.1364,0.1403,0.1364,0.1364,0.1403,0.1395,0.138,0.1318,0.129,0.1316,0.1316,0.1316,0.1341,0.139,0.139,0.1406,0.0,0.0,0.0,0.0,0.082,0.1863,0.2974,0.403,0.5085,0.6187,0.6387,0.6387,0.6387,0.6484,0.6578,0.6408,0.6747,0.6945,0.6825,0.7114,0.7282,0.7285,0.7282,0.728,0.728,0.5083,0.3636,0.358,0.1344,0.0,0.0,0.0,0.0,0.0,0.0,0.0,0.0,0.0,0.0,0.0,0.0,0.0,0.0,0.0,-0.0672,-0.1735,-0.056,-0.1386,-0.3486,-0.2198,-0.2316,-0.3509,-0.4463,-0.4834,-0.4935,-0.5987,-0.6387,-0.6387,-0.6387,-0.6387,-0.6387,-0.6387,-0.6387,-0.6387,-0.6387,-0.6387,-0.6387,-0.6387,-0.6358,-0.6262,-0.5972,-0.5907,-0.5831,-0.5489,-0.5419,-0.5285,-0.4795,-0.4705,-0.4614,-0.4344,-0.43,-0.43,-0.43,-0.43,-0.43,-0.43,-0.43,-0.43,-0.43,-0.3494,-0.2508,-0.1522,-0.0582,0.0359,0.13,0.1339,0.1331,0.1386,0.1338,0.1332,0.1387,0.1406,0.139,0.139,0.1319,0.1305,0.1305,0.1305,0.1319,0.139,0.139,0.1406,0.0,0.0,0.0,0.0,0.0813,0.1862,0.2974,0.403,0.5085,0.6187,0.6387,0.6387,0.6387,0.6419,0.646,0.6554,0.6728,0.6904,0.7081,0.7141,0.7274,0.7442,0.7328,0.7304,0.722,0.5777,0.4475,0.3636,0.2127,0.0896,0.0056,0.0,0.0,0.0,0.0,0.0,0.0,0.0,0.0,0.0,0.0,0.0,0.0,0.0,-0.0224,-0.056,-0.0168,-0.0447,-0.1164,-0.1455,-0.1804,-0.2261,-0.3314,-0.3726,-0.3827,-0.4933,-0.4832,-0.4429,-0.5884,-0.5937,-0.5434,-0.6187,-0.6387,-0.6387,-0.6387,-0.6382,-0.6304,-0.6219,-0.617,-0.6108,-0.5945,-0.5812,-0.5649,-0.5444,-0.5149,-0.4882,-0.475,-0.4569,-0.4389,-0.43,-0.43,-0.43,-0.43,-0.43,-0.43,-0.43,-0.43,-0.4074,-0.3448,-0.2463,-0.1514,-0.0527,0.04,0.1076,0.139,0.1374,0.1372,0.1389,0.1374,0.1372,0.139,0.1381,0.1411,0.1391,0.1319,0.1305,0.1305,0.1286,0.1342,0.1391,0.1411,0.1381,0.0,0.0,0.0,0.0,0.0814,0.1757,0.2445,0.3413,0.4481,0.5584,0.5787,0.5937,0.6337,0.6425,0.6465,0.6495,0.673,0.6907,0.7008,0.7152,0.7267,0.7364,0.7315,0.7239,0.7218,0.6096,0.4923,0.3692,0.2574,0.14,0.0056,0.0224,0.028,0.0168,0.0168,0.0168,0.0168,0.0168,0.0168,0.0168,0.0056,0.0,0.0,0.0,0.0,0.0,0.0,0.0,0.0,-0.0699,-0.1004,-0.1094,-0.2187,-0.262,-0.272,-0.3776,-0.3776,-0.3374,-0.473,-0.473,-0.4331,-0.4981,-0.5205,-0.5268,-0.5576,-0.5992,-0.6281,-0.6064,-0.6015,-0.5988,-0.5778,-0.5612,-0.5461,-0.5211,-0.4928,-0.4661,-0.4569,-0.4433,-0.43,-0.43,-0.43,-0.43,-0.43,-0.43,-0.43,-0.43,-0.3985,-0.3583,-0.2956,-0.1701,-0.0669,-0.0044,0.0845,0.1391,0.1391,0.138,0.1379,0.139,0.138,0.1379,0.139,0.1391,0.1381,0.1408,0.1379,0.1321,0.1321,0.1345,0.1354,0.1391,0.1421,0.1391,0.0,0.0,0.0,0.0,0.0817,0.1594,0.1594,0.243,0.0,0.4582,0.4784,0.5135,0.6184,0.6478,0.657,0.6416,0.6744,0.6937,0.6831,0.7065,0.721,0.721,0.721,0.721,0.721,0.6207,0.5091,0.3858,0.291,0.1736,0.028,0.0617,0.0785,0.0449,0.0449,0.0449,0.0393,0.0393,0.0393,0.0393,0.0112,0.0,0.0,0.0,0.0,0.0,0.0,0.0,0.0,0.0,0.0,-0.0101,-0.111,-0.1462,-0.1613,-0.267,-0.3022,-0.2972,-0.3123,-0.3173,-0.3123,-0.3173,-0.3183,-0.3365,-0.4159,-0.5243,-0.6144,-0.5958,-0.589,-0.582,-0.5486,-0.5371,-0.5238,-0.4792,-0.4705,-0.4614,-0.4344,-0.43,-0.43,-0.43,-0.43,-0.43,-0.43,-0.43,-0.4297,-0.421,-0.3449,-0.2867,-0.2732,-0.112,0.0045,0.0089,0.0896,0.1389,0.1387,0.1408,0.1406,0.1389,0.1409,0.1406,0.1389,0.1391,0.1389,0.1387,0.14,0.1384,0.1384,0.1384,0.1384,0.1388,0.1418,0.1388,0.0,0.0,0.0,0.0,0.0788,0.1617,0.0,0.2408,0.3525,0.4582,0.4784,0.5135,0.6184,0.6411,0.6452,0.6564,0.6728,0.6869,0.6934,0.7287,0.7438,0.721,0.7379,0.7493,0.7493,0.7271,0.6707,0.575,0.4582,0.341,0.2125,0.1344,0.0841,0.0785,0.1009,0.0841,0.0393,0.0393,0.028,0.0112,0.0056,0.0,0.0,0.0,0.0,0.0,0.0,0.0,0.0,0.0,0.0,0.0,-0.0254,-0.0353,-0.0505,-0.1563,-0.1462,-0.1009,-0.262,-0.267,-0.2116,-0.2922,-0.3183,-0.3219,-0.3299,-0.4103,-0.5025,-0.5586,-0.5729,-0.5676,-0.5468,-0.5235,-0.5013,-0.4748,-0.4525,-0.4389,-0.43,-0.43,-0.43,-0.43,-0.43,-0.43,-0.43,-0.43,-0.4074,-0.336,-0.3045,-0.2374,-0.0851,-0.0269,0.0267,0.1008,0.1288,0.1381,0.1402,0.1415,0.1383,0.139,0.1384,0.1383,0.139,0.1391,0.138,0.1401,0.135,0.1323,0.1323,0.1323,0.1335,0.1316,0.1387,0.1413,0.0,0.0,0.0,0.0,0.0418,0.0882,0.0882,0.1329,0.2167,0.3728,0.4079,0.4531,0.6134,0.6387,0.6427,0.66,0.6722,0.6917,0.7207,0.7453,0.7604,0.7546,0.7712,0.7771,0.7771,0.7771,0.7376,0.6362,0.5306,0.408,0.2795,0.1793,0.1234,0.1065,0.1346,0.129,0.0841,0.0785,0.0673,0.0393,0.028,0.0112,0.0,0.0,0.0,0.0,0.0,0.0,0.0,0.0,0.0,0.0,0.0,0.0,-0.0051,-0.0656,-0.0505,-0.0151,-0.1311,-0.1361,-0.0957,-0.1547,-0.1719,-0.1782,-0.2171,-0.2589,-0.322,-0.4489,-0.4879,-0.4926,-0.506,-0.4971,-0.479,-0.4569,-0.4389,-0.43,-0.43,-0.43,-0.43,-0.43,-0.3941,-0.3673,-0.3673,-0.3267,-0.2819,-0.2283,-0.1836,-0.121,-0.0134,0.0359,0.0848,0.1324,0.1381,0.1384,0.1412,0.1381,0.1391,0.1391,0.1391,0.1391,0.1391,0.1391,0.1421,0.1391,0.1346,0.1282,0.1282,0.1309,0.1318,0.1306,0.1377,0.1399,0.0,0.0,0.0,0.0,0.0,0.0,0.0,0.0,0.0807,0.2771,0.3324,0.4028,0.6034,0.64,0.6449,0.6603,0.6738,0.7014,0.7517,0.7662,0.7771,0.7989,0.8045,0.81,0.81,0.81,0.7706,0.6753,0.5808,0.4639,0.3186,0.2464,0.185,0.1402,0.1627,0.1683,0.1402,0.1346,0.1121,0.0841,0.0561,0.028,0.0,0.0,0.0,0.0,0.0,0.0,0.0,0.0,0.0,0.0,0.0,0.0,0.0,0.0,0.0,0.0,0.0,0.0,0.0,0.0,0.0,-0.0142,-0.0883,-0.1001,-0.1208,-0.2908,-0.358,-0.3939,-0.4344,-0.4569,-0.4614,-0.4344,-0.43,-0.43,-0.43,-0.43,-0.43,-0.43,-0.3537,-0.2911,-0.2911,-0.2059,-0.1342,-0.1208,-0.0493,0.0045,0.0179,0.0897,0.1391,0.1391,0.1391,0.1391,0.1391,0.1391,0.1391,0.1391,0.1386,0.1383,0.1383,0.1383,0.1418,0.1397,0.1322,0.1308,0.1312,0.1324,0.1282,0.1306,0.1372,0.1386,0.0,0.0,0.0,0.0,0.0,0.0,0.0,0.0708,0.1714,0.2922,0.3927,0.4933,0.6187,0.647,0.6597,0.6616,0.6809,0.7114,0.7531,0.7771,0.7934,0.7989,0.8266,0.8429,0.8429,0.8429,0.8432,0.8491,0.7429,0.6258,0.5025,0.3914,0.2856,0.1739,0.1795,0.1795,0.1739,0.1458,0.1009,0.0449,0.0449,0.0278,0.0,0.0,0.0,0.0,0.0,0.0,0.0,0.0,0.0,0.0,0.0,0.0,0.0,0.0,0.0,0.0,0.0,0.0,0.0,0.0,0.0,0.0,0.0093,0.0137,0.0,-0.0717,-0.2238,-0.3623,-0.3489,-0.4072,-0.4614,-0.4344,-0.43,-0.43,-0.43,-0.43,-0.43,-0.43,-0.3537,-0.2911,-0.2911,-0.2059,-0.1119,-0.0314,-0.009,0.0269,0.1076,0.13,0.1391,0.1391,0.1391,0.1391,0.1391,0.1391,0.1391,0.1391,0.1411,0.1397,0.1397,0.1397,0.1407,0.1383,0.1333,0.1317,0.1383,0.1313,0.1302,0.1305,0.131,0.1367,0.0,0.0,0.0,0.0,0.0,0.0,0.0,0.0404,0.121,0.2871,0.3575,0.4444,0.6167,0.6581,0.6662,0.6796,0.6964,0.726,0.7762,0.7934,0.81,0.8436,0.8602,0.8712,0.8712,0.8712,0.8768,0.8881,0.7765,0.6871,0.6366,0.4583,0.3358,0.28,0.213,0.1787,0.1825,0.166,0.1328,0.0885,0.0719,0.0494,0.0216,0.0053,0.0,0.0,0.0,0.0,0.0,0.0,0.0,0.0,0.0,0.0,0.0,0.0,0.0,0.0,0.0,0.0,0.0,0.0,0.0,0.0047,0.0322,0.0497,0.0538,0.0448,-0.0672,-0.1925,-0.2147,-0.2953,-0.3717,-0.3583,-0.3941,-0.43,-0.43,-0.3896,-0.3537,-0.3537,-0.2329,-0.1344,-0.1344,-0.0537,0.0269,0.0673,0.0762,0.0897,0.1345,0.1391,0.1391,0.1391,0.1391,0.1391,0.1391,0.1391,0.1391,0.1391,0.1422,0.1414,0.1414,0.1414,0.1421,0.139,0.1349,0.1377,0.139,0.1345,0.1282,0.1282,0.1282,0.1298,0.0,0.0,0.0048,0.0292,0.0148,0.005,0.0355,0.0607,0.1365,0.3259,0.3877,0.4559,0.6334,0.6684,0.6777,0.71,0.721,0.749,0.8045,0.81,0.8325,0.8826,0.8885,0.8885,0.8885,0.8885,0.8885,0.8885,0.8045,0.7376,0.7096,0.5345,0.4114,0.3614,0.2663,0.2037,0.1793,0.1793,0.163,0.1304,0.1086,0.0808,0.0477,0.0209,0.0104,0.0103,0.0051,0.0,0.0,0.0,0.0,0.0,0.0,0.0,0.0,0.0,0.0,0.0,0.0,0.0,0.0,0.0097,0.0095,0.0142,0.0454,0.0673,0.0852,0.1121,0.0628,-0.0134,-0.0896,-0.1791,-0.2552,-0.2552,-0.3269,-0.3896,-0.3671,-0.3224,-0.2822,-0.2597,-0.1165,0.0,0.0,0.0762,0.1391,0.1391,0.1391,0.1391,0.1391,0.1391,0.1391,0.1391,0.1391,0.1391,0.1391,0.1391,0.1391,0.1391,0.1391,0.1387,0.138,0.1387,0.1391,0.1391,0.1406,0.1393,0.14,0.1341,0.1313,0.1313,0.1306,0.1319,0.0,0.0,0.0187,0.1092,0.063,0.0298,0.1438,0.2449,0.351,0.4783,0.5874,0.6566,0.6735,0.6883,0.7111,0.7517,0.7546,0.7771,0.8377,0.8484,0.8598,0.8881,0.8885,0.8885,0.8885,0.8885,0.8885,0.8885,0.8826,0.8269,0.7152,0.6824,0.5673,0.3551,0.3284,0.2723,0.1707,0.1707,0.1547,0.128,0.128,0.111,0.078,0.0468,0.036,0.0354,0.0101,0.0,0.0,0.0,0.0,0.0,0.0,0.0,0.0,0.0,0.0,0.0,0.0,0.0,0.005,0.029,0.0381,0.0473,0.0908,0.1076,0.1121,0.13,0.1345,0.1076,0.0134,-0.0806,-0.1522,-0.1522,-0.2283,-0.2731,-0.179,-0.2283,-0.2642,-0.17,-0.0672,0.0,0.0,0.0762,0.1391,0.1391,0.1391,0.1391,0.1391,0.1391,0.1391,0.1391,0.1391,0.1391,0.1391,0.1391,0.1391,0.1391,0.1391,0.1378,0.1395,0.1421,0.1391,0.1391,0.1406,0.1403,0.1387,0.133,0.1303,0.1302,0.1316,0.1319,0.0,0.0,0.0236,0.1283,0.1256,0.1283,0.243,0.3063,0.3763,0.4966,0.5523,0.6023,0.6794,0.7013,0.7216,0.7543,0.7607,0.7826,0.8429,0.8484,0.8598,0.8881,0.8885,0.8885,0.8885,0.8885,0.8844,0.8804,0.8798,0.8537,0.8009,0.7203,0.6374,0.5518,0.4053,0.3123,0.2722,0.2043,0.1617,0.1495,0.1356,0.1195,0.1021,0.0613,0.0407,0.0404,0.0101,0.0,0.0,0.0,0.0,0.0,0.0,0.0,0.0,0.0,0.0,0.0,0.0202,0.0253,0.0301,0.058,0.0668,0.071,0.0999,0.1121,0.1121,0.1345,0.1391,0.13,0.0942,0.0179,-0.0537,-0.0537,-0.1254,-0.1879,-0.1477,-0.1254,-0.0986,-0.0582,0.0224,0.0852,0.0852,0.1166,0.1391,0.1391,0.1391,0.1391,0.1391,0.1391,0.1391,0.1391,0.1391,0.1391,0.1391,0.1391,0.1391,0.1391,0.1391,0.1385,0.1418,0.1411,0.1407,0.1407,0.1379,0.1317,0.1353,0.1331,0.131,0.1292,0.1299,0.1319,0.0,0.0,0.0331,0.171,0.2124,0.2514,0.3939,0.4099,0.4319,0.5543,0.5808,0.607,0.6912,0.7213,0.7435,0.766,0.7826,0.8045,0.8543,0.8598,0.8712,0.8881,0.8885,0.8865,0.8817,0.8811,0.8804,0.8652,0.8638,0.8594,0.8486,0.77,0.7046,0.673,0.5131,0.4105,0.3797,0.2723,0.2147,0.212,0.1637,0.1381,0.1314,0.0758,0.0505,0.0505,0.0152,0.0,0.0,0.0,0.0,0.0,0.0101,0.0152,0.0152,0.0202,0.0253,0.0303,0.0455,0.0503,0.0548,0.0819,0.0902,0.0939,0.1133,0.1211,0.1211,0.1345,0.1391,0.1391,0.1391,0.0942,0.0448,0.0448,-0.0269,-0.0895,-0.0582,-0.0224,0.009,0.0403,0.0942,0.1391,0.1391,0.1391,0.1391,0.1391,0.1391,0.1391,0.1391,0.1391,0.1391,0.1391,0.1391,0.1391,0.1391,0.1391,0.1391,0.1391,0.1381,0.1421,0.1421,0.1401,0.1386,0.1377,0.1306,0.1286,0.1317,0.1298,0.1282,0.1312,0.1614,0.1565,0.0,0.0,0.0465,0.2508,0.3185,0.3958,0.6103,0.5896,0.5539,0.6773,0.7128,0.7207,0.7207,0.7435,0.766,0.7934,0.8263,0.8598,0.8881,0.8885,0.8885,0.8885,0.8881,0.8821,0.8723,0.871,0.8645,0.8489,0.8479,0.8479,0.8479,0.8343,0.7798,0.6759,0.6494,0.5882,0.4824,0.3775,0.3224,0.3224,0.2119,0.1617,0.1566,0.1061,0.0808,0.0758,0.0253,0.0,0.0,0.0,0.0,0.0051,0.0303,0.0404,0.0455,0.0707,0.0808,0.0808,0.0808,0.0798,0.0832,0.1055,0.1082,0.1152,0.1354,0.1391,0.1391,0.1391,0.1391,0.1391,0.1391,0.1391,0.1391,0.1391,0.0673,0.0269,0.1211,0.0673,0.0269,0.1211,0.1391,0.1391,0.1391,0.1391,0.1391,0.1391,0.1391,0.1391,0.1391,0.1391,0.1391,0.1391,0.1391,0.1391,0.1391,0.1391,0.1391,0.1391,0.1407,0.1391,0.139,0.1389,0.1376,0.1305,0.1318,0.1317,0.1305,0.1286,0.1312,0.1343,0.2274,0.222,0.0,0.0,0.0522,0.2754,0.3332,0.3992,0.624,0.66,0.6572,0.6915,0.6942,0.6961,0.7172,0.7354,0.7635,0.8128,0.8368,0.8598,0.8881,0.8885,0.8885,0.8885,0.8845,0.876,0.8716,0.8615,0.8489,0.8343,0.8333,0.8286,0.8177,0.8133,0.7955,0.7648,0.6806,0.6234,0.5932,0.4876,0.4325,0.4323,0.3224,0.2321,0.1566,0.1263,0.096,0.0758,0.0455,0.0152,0.0,0.0,0.0,0.0051,0.0303,0.0404,0.0455,0.0707,0.0808,0.0808,0.101,0.1098,0.1126,0.1296,0.1364,0.1383,0.1399,0.1391,0.1391,0.1391,0.1391,0.1391,0.1391,0.1391,0.1391,0.1391,0.1166,0.1076,0.1345,0.1166,0.1076,0.1345,0.1391,0.1391,0.1391,0.1391,0.1391,0.1391,0.1391,0.1391,0.1391,0.1391,0.1391,0.1391,0.1391,0.1391,0.1391,0.1391,0.1391,0.1391,0.1382,0.1412,0.1391,0.135,0.1324,0.1316,0.1286,0.1314,0.1284,0.1305,0.1301,0.1311,0.2294,0.2627,0.0,0.0,0.0534,0.2835,0.3459,0.4058,0.6353,0.6893,0.6966,0.7071,0.7012,0.7065,0.7328,0.7496,0.7767,0.8144,0.8422,0.8623,0.879,0.8849,0.8849,0.8849,0.8713,0.8598,0.854,0.8452,0.8336,0.8191,0.8177,0.8136,0.7995,0.7988,0.7988,0.7988,0.7388,0.7036,0.7036,0.5979,0.5427,0.5427,0.3925,0.2873,0.222,0.1515,0.1061,0.0758,0.0404,0.0152,0.0,0.0,0.0,0.0051,0.0404,0.0556,0.0606,0.096,0.1111,0.1161,0.1302,0.1332,0.1355,0.1471,0.1487,0.1459,0.1396,0.1391,0.1391,0.1391,0.1391,0.1391,0.1391,0.1391,0.1391,0.1391,0.1391,0.1391,0.1391,0.1391,0.1391,0.1391,0.1391,0.1391,0.1391,0.1391,0.1391,0.1391,0.1391,0.1391,0.1391,0.1391,0.1391,0.1391,0.1391,0.1391,0.1391,0.1391,0.1391,0.1391,0.1379,0.1409,0.1391,0.1345,0.1309,0.1285,0.1306,0.1296,0.1296,0.1296,0.1499,0.1872,0.2889,0.337,0.0,0.0098,0.0694,0.287,0.368,0.4452,0.6488,0.6874,0.689,0.715,0.7191,0.729,0.7558,0.7827,0.7994,0.8046,0.8378,0.8689,0.8689,0.8689,0.8689,0.8689,0.8557,0.8411,0.8333,0.8258,0.8191,0.8002,0.7988,0.7988,0.7988,0.7988,0.7988,0.7988,0.7988,0.7988,0.7988,0.7036,0.6537,0.6537,0.4477,0.3475,0.3425,0.1917,0.1061,0.0758,0.0253,0.0,0.0,0.0,0.0,0.0051,0.0606,0.0808,0.0859,0.1415,0.1615,0.1609,0.1581,0.155,0.1517,0.149,0.146,0.1391,0.1391,0.1391,0.1391,0.1391,0.1391,0.1391,0.1391,0.1391,0.1391,0.1391,0.1391,0.1391,0.1391,0.1391,0.1391,0.1391,0.1391,0.1391,0.1391,0.1391,0.1391,0.1391,0.1391,0.1391,0.1391,0.1391,0.1391,0.1391,0.1391,0.1391,0.1391,0.1391,0.1391,0.1391,0.141,0.1393,0.139,0.1321,0.128,0.1302,0.1301,0.1299,0.1296,0.1375,0.1867,0.2718,0.3818,0.4326,0.0,0.0679,0.1763,0.3189,0.4911,0.6355,0.6744,0.6906,0.6975,0.7024,0.7145,0.7276,0.7535,0.7773,0.8001,0.8213,0.8383,0.853,0.853,0.853,0.853,0.853,0.8404,0.8354,0.8327,0.816,0.8025,0.7992,0.7988,0.7988,0.7988,0.7988,0.7988,0.7988,0.7988,0.7988,0.7988,0.7789,0.7637,0.7637,0.6334,0.5732,0.5632,0.2773,0.1263,0.0758,0.0253,0.0,0.0,0.0,0.0,0.0051,0.0606,0.0808,0.0859,0.1415,0.1602,0.158,0.1623,0.1536,0.1489,0.1483,0.146,0.1391,0.1391,0.1391,0.1391,0.1391,0.1391,0.1391,0.1391,0.1391,0.1391,0.1391,0.1391,0.1391,0.1391,0.1391,0.1391,0.1391,0.1391,0.1391,0.1391,0.1391,0.1391,0.1391,0.1391,0.1391,0.1391,0.1391,0.1391,0.1391,0.1391,0.1391,0.1391,0.1391,0.1391,0.1391,0.1384,0.1414,0.1391,0.1321,0.1289,0.1294,0.1293,0.1281,0.1296,0.1923,0.2381,0.2759,0.4435,0.5297,0.0,0.0441,0.1373,0.3156,0.5326,0.6953,0.6831,0.7021,0.7172,0.7107,0.724,0.749,0.7743,0.7902,0.8005,0.811,0.8286,0.8381,0.8381,0.8381,0.8381,0.8381,0.8252,0.816,0.816,0.8039,0.7988,0.7988,0.7988,0.7988,0.7988,0.7988,0.7988,0.7988,0.7988,0.7988,0.7988,0.7988,0.7988,0.7988,0.6936,0.5884,0.4828,0.3022,0.1665,0.0758,0.0354,0.0101,0.0,0.0,0.0,0.005,0.0448,0.0698,0.0846,0.1283,0.1474,0.1616,0.1586,0.1507,0.1478,0.1463,0.1448,0.1391,0.1391,0.1391,0.1391,0.1391,0.1391,0.1391,0.1391,0.1391,0.1391,0.1391,0.1391,0.1391,0.1391,0.1391,0.1391,0.1391,0.1391,0.1391,0.1391,0.1391,0.1391,0.1391,0.1391,0.1391,0.1391,0.1391,0.1391,0.1391,0.1391,0.1391,0.1391,0.1391,0.1391,0.1391,0.1391,0.1383,0.1412,0.1354,0.1319,0.1303,0.1303,0.1489,0.1884,0.2315,0.2975,0.3932,0.5012,0.5762,0.0,0.0149,0.0872,0.3274,0.5264,0.6649,0.6745,0.709,0.7325,0.721,0.7441,0.7746,0.7942,0.7988,0.7988,0.7988,0.8147,0.8231,0.8231,0.8231,0.8231,0.8231,0.8116,0.7988,0.7988,0.7988,0.7988,0.7988,0.7988,0.7988,0.7988,0.7988,0.7988,0.7988,0.7988,0.7988,0.7988,0.7988,0.7988,0.7988,0.7086,0.5632,0.3726,0.3321,0.2318,0.0859,0.0556,0.0253,0.0051,0.0,0.0,0.0049,0.0344,0.0589,0.0833,0.1153,0.1397,0.1555,0.15,0.1477,0.1469,0.1398,0.1391,0.1391,0.1391,0.1391,0.1391,0.1391,0.1391,0.1391,0.1391,0.1391,0.1391,0.1391,0.1391,0.1391,0.1391,0.1391,0.1391,0.1391,0.1391,0.1391,0.1391,0.1391,0.1391,0.1391,0.1391,0.1391,0.1391,0.1391,0.1391,0.1391,0.1391,0.1391,0.1391,0.1391,0.1391,0.1391,0.1391,0.1391,0.1391,0.1391,0.1352,0.1312,0.1432,0.1859,0.2525,0.2788,0.3732,0.5259,0.5561,0.6144,0.0,0.0785,0.2128,0.4399,0.5116,0.5516,0.6412,0.6957,0.721,0.7191,0.7587,0.7942,0.7988,0.7988,0.7988,0.7988,0.8008,0.8019,0.8019,0.8019,0.8019,0.8019,0.8002,0.7988,0.7988,0.7988,0.7988,0.7988,0.7988,0.7988,0.7988,0.7988,0.7988,0.7988,0.7988,0.7988,0.7988,0.7988,0.7988,0.7988,0.7839,0.7135,0.5934,0.4977,0.3271,0.1111,0.0606,0.0404,0.0354,0.0101,0.0,0.0049,0.054,0.0785,0.0833,0.1297,0.148,0.1527,0.1493,0.1463,0.1395,0.1392,0.1391,0.1391,0.1391,0.1391,0.1391,0.1391,0.1391,0.1391,0.1391,0.1391,0.1391,0.1391,0.1391,0.1391,0.1391,0.1391,0.1391,0.1391,0.1391,0.1391,0.1391,0.1391,0.1391,0.1391,0.1391,0.1391,0.1391,0.1391,0.1391,0.1391,0.1391,0.1391,0.1391,0.1391,0.1391,0.1391,0.1391,0.1391,0.1391,0.1391,0.1362,0.1301,0.2049,0.2521,0.2664,0.4029,0.4957,0.546,0.6188,0.6657,0.0,0.0897,0.222,0.3894,0.4653,0.5285,0.6456,0.6981,0.7188,0.7188,0.764,0.7988,0.7988,0.7988,0.7988,0.7988,0.7988,0.7988,0.7988,0.7988,0.7988,0.7988,0.7988,0.7988,0.7988,0.7988,0.7988,0.7988,0.7988,0.7988,0.7988,0.7988,0.7988,0.7988,0.7988,0.7988,0.7988,0.7988,0.7988,0.7988,0.7988,0.7437,0.6387,0.5932,0.4375,0.2017,0.106,0.0556,0.0404,0.01,0.0,0.0048,0.0429,0.0665,0.0853,0.1161,0.1393,0.1496,0.1466,0.1446,0.1391,0.1391,0.1391,0.1391,0.1391,0.1391,0.1391,0.1391,0.1391,0.1391,0.1391,0.1391,0.1391,0.1391,0.1391,0.1391,0.1391,0.1391,0.1391,0.1391,0.1391,0.1391,0.1391,0.1391,0.1391,0.1391,0.1391,0.1391,0.1391,0.1391,0.1391,0.1391,0.1391,0.1391,0.1391,0.1391,0.1391,0.1391,0.1391,0.1391,0.1391,0.1391,0.1636,0.2142,0.245,0.2843,0.3337,0.444,0.5333,0.5971,0.6456,0.6736,0.0,0.0647,0.1625,0.2797,0.3836,0.4904,0.6053,0.6765,0.7231,0.7194,0.764,0.7988,0.7988,0.7988,0.7988,0.7988,0.7988,0.7988,0.7988,0.7988,0.7988,0.7988,0.7988,0.7988,0.7988,0.7988,0.7988,0.7988,0.7988,0.7988,0.7988,0.7988,0.7988,0.7988,0.7988,0.7988,0.7988,0.7988,0.7988,0.7988,0.7988,0.7587,0.6786,0.6537,0.5429,0.3623,0.2017,0.1057,0.0601,0.0296,0.0194,0.0189,0.0465,0.0694,0.0923,0.1084,0.1318,0.1476,0.1401,0.1391,0.1391,0.1391,0.1391,0.1391,0.1391,0.1391,0.1391,0.1391,0.1391,0.1391,0.1391,0.1391,0.1391,0.1391,0.1391,0.1391,0.1391,0.1391,0.1391,0.1391,0.1391,0.1391,0.1391,0.1391,0.1391,0.1391,0.1391,0.1391,0.1391,0.1391,0.1391,0.1391,0.1391,0.1391,0.1391,0.1391,0.1391,0.1391,0.1391,0.1391,0.1391,0.1391,0.182,0.2778,0.2901,0.34,0.4218,0.5022,0.5737,0.6419,0.66,0.6722,0.0,0.0048,0.0346,0.1412,0.2594,0.3749,0.4675,0.62,0.7346,0.7216,0.764,0.7988,0.7988,0.7988,0.7988,0.7988,0.7988,0.7988,0.7988,0.7988,0.7988,0.7988,0.7988,0.7988,0.7988,0.7988,0.7988,0.7988,0.7988,0.7988,0.7988,0.7988,0.7988,0.7988,0.7988,0.7988,0.7988,0.7988,0.7988,0.7988,0.7988,0.7988,0.7889,0.6886,0.6337,0.6084,0.3723,0.2096,0.1131,0.0884,0.072,0.0695,0.0972,0.1064,0.1107,0.1311,0.1455,0.1476,0.1401,0.1391,0.1391,0.1391,0.1391,0.1391,0.1391,0.1391,0.1391,0.1391,0.1391,0.1391,0.1391,0.1391,0.1391,0.1391,0.1391,0.1391,0.1391,0.1391,0.1391,0.1391,0.1391,0.1391,0.1391,0.1391,0.1391,0.1391,0.1391,0.1391,0.1391,0.1391,0.1391,0.1391,0.1391,0.1391,0.1391,0.1391,0.1391,0.1391,0.1391,0.1391,0.1391,0.1391,0.182,0.2778,0.3594,0.4489,0.5421,0.6081,0.6495,0.6678,0.6695,0.6776,0.0,0.0,0.0292,0.1422,0.2587,0.3647,0.4709,0.62,0.7352,0.7216,0.764,0.7988,0.7988,0.7988,0.7988,0.7988,0.7988,0.7988,0.7988,0.7988,0.8025,0.8177,0.8099,0.8029,0.8177,0.8099,0.7988,0.7988,0.7988,0.7988,0.7988,0.7988,0.7988,0.7988,0.7988,0.7988,0.7988,0.7988,0.7988,0.7988,0.7988,0.7988,0.7988,0.7587,0.7039,0.6331,0.4765,0.3397,0.2152,0.1146,0.0703,0.0739,0.1003,0.1088,0.1133,0.1305,0.1397,0.145,0.1394,0.1391,0.1391,0.1391,0.1391,0.1391,0.1391,0.1391,0.1391,0.1391,0.1391,0.1391,0.1391,0.1391,0.1391,0.1391,0.1391,0.1391,0.1391,0.1391,0.1391,0.1391,0.1391,0.1391,0.1391,0.1391,0.1391,0.1391,0.1391,0.1391,0.1391,0.1391,0.1391,0.1391,0.1391,0.1391,0.1391,0.1391,0.1391,0.1391,0.1391,0.1391,0.1391,0.1391,0.2142,0.3714,0.4066,0.4645,0.5482,0.6271,0.6647,0.6702,0.68,0.6832,0.0,0.0,0.0191,0.1115,0.2155,0.3296,0.4351,0.5839,0.7055,0.7223,0.7672,0.7988,0.7988,0.7988,0.7988,0.7988,0.7988,0.7988,0.7988,0.7988,0.8096,0.8252,0.818,0.8177,0.8326,0.8204,0.8116,0.8116,0.8019,0.7988,0.7988,0.7988,0.7988,0.7988,0.7941,0.7914,0.7914,0.7914,0.7914,0.7914,0.7965,0.7988,0.7988,0.7988,0.7611,0.6813,0.5756,0.4355,0.2804,0.15,0.0968,0.096,0.1127,0.1211,0.1211,0.1345,0.1391,0.1391,0.1391,0.1391,0.1391,0.1391,0.1391,0.1391,0.1391,0.1391,0.1391,0.1391,0.1391,0.1391,0.1391,0.1391,0.1391,0.1391,0.1391,0.1391,0.1391,0.1391,0.1391,0.1391,0.1391,0.1391,0.1391,0.1391,0.1391,0.1391,0.1391,0.1391,0.1391,0.1391,0.1391,0.1391,0.1391,0.1391,0.1391,0.1391,0.1391,0.1391,0.1391,0.1391,0.1391,0.1391,0.2329,0.4243,0.4289,0.4888,0.6032,0.6544,0.6776,0.678,0.6839,0.691,0.0,0.0,0.0,0.0348,0.1311,0.2505,0.3546,0.4974,0.6403,0.7175,0.7683,0.7939,0.7988,0.7988,0.7988,0.7988,0.7988,0.7988,0.7988,0.7992,0.8102,0.8258,0.833,0.8385,0.8476,0.8357,0.8323,0.8323,0.8126,0.7988,0.7988,0.7988,0.7988,0.7982,0.7889,0.7811,0.7804,0.7804,0.7804,0.7807,0.7911,0.7982,0.7982,0.7988,0.7907,0.7756,0.665,0.5029,0.3083,0.2003,0.1508,0.1391,0.1391,0.1391,0.1391,0.1391,0.1391,0.1391,0.1391,0.1391,0.1391,0.1391,0.1391,0.1391,0.1391,0.1391,0.1391,0.1391,0.1391,0.1391,0.1391,0.1391,0.1391,0.1391,0.1391,0.1391,0.1391,0.1391,0.1391,0.1391,0.1391,0.1391,0.1391,0.1391,0.1391,0.1391,0.1391,0.1391,0.1391,0.1391,0.1391,0.1391,0.1391,0.1391,0.1391,0.1391,0.1391,0.1391,0.1391,0.1391,0.1391,0.1436,0.2329,0.4243,0.4334,0.5267,0.7095,0.696,0.6893,0.6893,0.6893,0.6964,0.0,0.0,0.0,0.0,0.0,0.0,0.2681,0.391,0.5301,0.6223,0.6647,0.7089,0.7839,0.7988,0.7988,0.7988,0.7988,0.7988,0.7988,0.8136,0.8262,0.8408,0.8425,0.8482,0.8632,0.8418,0.8323,0.8323,0.8126,0.7988,0.7988,0.7988,0.7938,0.7879,0.7834,0.7763,0.7658,0.7658,0.7658,0.7658,0.7804,0.7875,0.7879,0.7938,0.7907,0.7756,0.665,0.5787,0.5005,0.3232,0.2073,0.1391,0.1391,0.1391,0.1391,0.1391,0.1391,0.1391,0.1391,0.1391,0.1391,0.1391,0.1391,0.1391,0.1391,0.1391,0.1391,0.1391,0.1391,0.1391,0.1391,0.1391,0.1391,0.1391,0.1391,0.1391,0.1391,0.1391,0.1391,0.1391,0.1391,0.1391,0.1391,0.1391,0.1391,0.1391,0.1391,0.1391,0.1391,0.1391,0.1391,0.1391,0.1391,0.1391,0.1391,0.1391,0.1391,0.1391,0.1391,0.1391,0.1391,0.2107,0.3044,0.4287,0.4959,0.5894,0.7095,0.7058,0.7038,0.7038,0.7038,0.7058,0.0323,0.0467,0.0616,0.0728,0.0,0.0,0.2516,0.332,0.4274,0.5199,0.5589,0.5932,0.6531,0.7033,0.7338,0.7338,0.769,0.8012,0.8126,0.8214,0.8347,0.8554,0.8577,0.8635,0.8791,0.8591,0.8428,0.8364,0.8221,0.8106,0.7992,0.7988,0.7948,0.7909,0.7787,0.7682,0.76,0.7536,0.7506,0.7506,0.7651,0.7723,0.7726,0.7818,0.753,0.6998,0.678,0.6161,0.5129,0.3954,0.291,0.1973,0.1569,0.1391,0.1391,0.1391,0.1391,0.1391,0.1391,0.1391,0.1391,0.1391,0.1391,0.1391,0.1391,0.1391,0.1391,0.1391,0.1391,0.1391,0.1391,0.1391,0.1391,0.1391,0.1391,0.1391,0.1391,0.1391,0.1391,0.1391,0.1391,0.1391,0.1391,0.1391,0.1391,0.1391,0.1391,0.1391,0.1391,0.1391,0.1391,0.1391,0.1391,0.1391,0.1391,0.1391,0.1391,0.1391,0.1391,0.1569,0.2017,0.2598,0.3535,0.487,0.5406,0.6163,0.7095,0.7095,0.7095,0.7095,0.7095,0.7095,0.0791,0.0838,0.0897,0.1193,0.1276,0.0,0.259,0.2906,0.3296,0.4251,0.4522,0.4674,0.4774,0.5579,0.6234,0.6234,0.7048,0.7802,0.8228,0.8275,0.8391,0.8655,0.8716,0.8791,0.8868,0.8801,0.8648,0.8492,0.8336,0.8184,0.7995,0.7988,0.7982,0.7965,0.7743,0.759,0.7577,0.7421,0.7346,0.735,0.7502,0.7577,0.7577,0.7594,0.7044,0.6122,0.7002,0.6328,0.4601,0.4376,0.3757,0.2778,0.1793,0.1391,0.1391,0.1391,0.1391,0.1391,0.1391,0.1391,0.1391,0.1391,0.1391,0.1391,0.1391,0.1391,0.1391,0.1391,0.1391,0.1391,0.1391,0.1391,0.1391,0.1391,0.1391,0.1391,0.1391,0.1391,0.1391,0.1391,0.1391,0.1391,0.1391,0.1391,0.1391,0.1391,0.1391,0.1391,0.1391,0.1391,0.1391,0.1391,0.1391,0.1391,0.1391,0.1391,0.1391,0.1391,0.1391,0.1838,0.2867,0.3001,0.3892,0.5675,0.5808,0.6251,0.7095,0.7095,0.7095,0.7095,0.7095,0.7095,0.0822,0.0971,0.112,0.1182,0.1375,0.0,0.1748,0.1854,0.2209,0.3247,0.3488,0.3775,0.4624,0.4974,0.5127,0.5127,0.5344,0.609,0.7792,0.8292,0.8462,0.852,0.8743,0.8851,0.8878,0.8801,0.8648,0.8492,0.8235,0.8022,0.7992,0.7988,0.7934,0.7862,0.7689,0.7539,0.7463,0.7261,0.7139,0.7142,0.7343,0.746,0.7421,0.7543,0.7419,0.7138,0.7324,0.7056,0.6425,0.4912,0.3757,0.2778,0.1793,0.1391,0.1391,0.1391,0.1391,0.1391,0.1391,0.1391,0.1391,0.1391,0.1391,0.1391,0.1391,0.1391,0.1391,0.1391,0.1391,0.1391,0.1391,0.1391,0.1391,0.1391,0.1391,0.1391,0.1391,0.1391,0.1391,0.1391,0.1391,0.1391,0.1391,0.1391,0.1391,0.1391,0.1391,0.1391,0.1391,0.1391,0.1391,0.1391,0.1391,0.1391,0.1391,0.1391,0.1391,0.1391,0.1391,0.1838,0.2867,0.3623,0.4559,0.5675,0.6428,0.6918,0.7095,0.7095,0.7095,0.7095,0.7095,0.7095,0.1178,0.1277,0.1378,0.1392,0.1484,0.0,0.0,0.1561,0.1767,0.2304,0.2389,0.2564,0.3085,0.3623,0.4017,0.4017,0.4497,0.5227,0.6279,0.6638,0.7062,0.7723,0.7907,0.8211,0.883,0.8814,0.873,0.8499,0.8279,0.8123,0.7992,0.7988,0.7955,0.7877,0.7712,0.7563,0.7485,0.7255,0.7095,0.7098,0.7217,0.7255,0.7258,0.7336,0.7054,0.658,0.703,0.6943,0.634,0.5406,0.4425,0.3444,0.1972,0.1391,0.1391,0.1391,0.1391,0.1391,0.1391,0.1391,0.1391,0.1391,0.1391,0.1391,0.1391,0.1391,0.1391,0.1391,0.1391,0.1391,0.1391,0.1391,0.1391,0.1391,0.1391,0.1391,0.1391,0.1391,0.1391,0.1391,0.1391,0.1391,0.1391,0.1391,0.1391,0.1391,0.1391,0.1391,0.1391,0.1391,0.1391,0.1391,0.1391,0.1391,0.1391,0.1391,0.1391,0.1391,0.1391,0.1838,0.2867,0.3357,0.4247,0.5675,0.6609,0.7095,0.7095,0.7095,0.7095,0.7095,0.7095,0.7095,0.1589,0.158,0.1586,0.1611,0.1598,0.158,0.0,0.0,0.0,0.158,0.16,0.1609,0.1585,0.231,0.2893,0.2904,0.3629,0.4188,0.4183,0.4348,0.498,0.6516,0.6959,0.7487,0.8436,0.8718,0.876,0.854,0.834,0.8184,0.8039,0.8005,0.7988,0.7988,0.7753,0.76,0.76,0.725,0.7095,0.7095,0.7095,0.7095,0.7095,0.7095,0.6697,0.603,0.6786,0.6653,0.5941,0.5764,0.5272,0.4378,0.2463,0.1569,0.1391,0.1391,0.1391,0.1391,0.1391,0.1391,0.1391,0.1391,0.1391,0.1391,0.1391,0.1391,0.1391,0.1391,0.1391,0.1391,0.1391,0.1391,0.1391,0.1391,0.1391,0.1391,0.1391,0.1391,0.1391,0.1391,0.1391,0.1391,0.1391,0.1391,0.1391,0.1391,0.1391,0.1391,0.1391,0.1391,0.1391,0.1391,0.1391,0.1391,0.1391,0.1391,0.1391,0.1391,0.1391,0.1838,0.2867,0.3269,0.4249,0.5941,0.6697,0.7095,0.7095,0.7095,0.7095,0.7095,0.7095,0.7095,0.162,0.1611,0.1613,0.1616,0.1614,0.1611,0.1611,0.0,0.1611,0.1611,0.0,0.1615,0.1612,0.0,0.0,0.1757,0.1886,0.1988,0.206,0.2001,0.2835,0.5055,0.6364,0.7152,0.7265,0.804,0.8574,0.8676,0.8299,0.8116,0.8238,0.8113,0.7988,0.7988,0.7753,0.76,0.76,0.725,0.7095,0.7095,0.7095,0.7095,0.7095,0.7095,0.7051,0.6962,0.7051,0.7051,0.6874,0.603,0.563,0.5361,0.3446,0.2196,0.1391,0.1391,0.1391,0.1391,0.1391,0.1391,0.1391,0.1391,0.1391,0.1391,0.1391,0.1391,0.1391,0.1391,0.1391,0.1391,0.1391,0.1391,0.1391,0.1391,0.1391,0.1391,0.1391,0.1391,0.1391,0.1391,0.1391,0.1391,0.1391,0.1391,0.1391,0.1391,0.1391,0.1391,0.1391,0.1391,0.1391,0.1391,0.1391,0.1391,0.1391,0.1391,0.1391,0.1391,0.1391,0.1838,0.2867,0.4516,0.5852,0.6918,0.7051,0.7095,0.7095,0.7095,0.7095,0.7095,0.7095,0.7095,0.1625,0.1617,0.1617,0.1617,0.1617,0.1617,0.1617,0.1617,0.1617,0.1617,0.0,0.0,0.0,0.0,0.0,0.0,0.158,0.1586,0.163,0.164,0.2279,0.3976,0.4652,0.5497,0.6778,0.7868,0.8509,0.8574,0.8326,0.8201,0.832,0.8123,0.7988,0.7988,0.7753,0.76,0.76,0.725,0.7095,0.7095,0.7095,0.7095,0.7095,0.7095,0.7095,0.7095,0.7095,0.7095,0.7051,0.6697,0.6207,0.5586,0.4247,0.3133,0.2196,0.1614,0.1391,0.1391,0.1391,0.1391,0.1391,0.1391,0.1391,0.1391,0.1391,0.1391,0.1391,0.1391,0.1391,0.1391,0.1391,0.1391,0.1391,0.1391,0.1391,0.1395,0.1458,0.1448,0.1395,0.1458,0.1447,0.1391,0.1391,0.1391,0.1391,0.1391,0.1391,0.1391,0.1391,0.1391,0.1391,0.1391,0.1391,0.1391,0.1391,0.1391,0.1391,0.1391,0.1391,0.1838,0.2867,0.4202,0.5314,0.6251,0.683,0.7095,0.7095,0.7095,0.7095,0.7095,0.7095,0.7095,0.1625,0.1617,0.1617,0.1617,0.1617,0.1617,0.1617,0.1617,0.162,0.1628,0.1629,0.0,0.0,0.0,0.1584,0.1584,0.0,0.157,0.16,0.1616,0.1997,0.2879,0.3227,0.43,0.6551,0.7485,0.8088,0.8472,0.8272,0.8197,0.8374,0.8143,0.7988,0.7988,0.7753,0.76,0.76,0.725,0.7095,0.7095,0.7095,0.7095,0.7095,0.7095,0.7095,0.7095,0.7095,0.7095,0.7095,0.7095,0.6697,0.5985,0.5048,0.4113,0.3133,0.1882,0.1391,0.1391,0.1391,0.1391,0.1391,0.1391,0.1391,0.1391,0.1391,0.1391,0.1391,0.1391,0.1391,0.1391,0.1391,0.1397,0.1448,0.1448,0.1408,0.142,0.1488,0.1476,0.1464,0.1478,0.1463,0.14,0.1392,0.1391,0.1391,0.1391,0.1391,0.1391,0.1391,0.1391,0.1391,0.1391,0.1391,0.1391,0.1391,0.1391,0.1391,0.1391,0.1659,0.224,0.3223,0.42,0.5137,0.6074,0.6741,0.7095,0.7095,0.7095,0.7095,0.7095,0.7095,0.7095,0.1625,0.1617,0.1617,0.1617,0.1617,0.1617,0.1617,0.1617,0.1625,0.1706,0.1713,0.1712,0.1712,0.1635,0.1615,0.1615,0.1566,0.0,0.0,0.1549,0.1553,0.1662,0.2675,0.4228,0.6381,0.6533,0.7015,0.8396,0.8075,0.8014,0.8452,0.8197,0.7988,0.7988,0.7753,0.76,0.76,0.725,0.7095,0.7095,0.7095,0.7095,0.7095,0.7095,0.7095,0.7095,0.7095,0.7095,0.7095,0.7095,0.7095,0.6962,0.603,0.5095,0.4022,0.2106,0.1391,0.1391,0.1391,0.1391,0.1391,0.1391,0.1391,0.1391,0.1391,0.1391,0.1391,0.1391,0.1391,0.1391,0.1391,0.1457,0.1479,0.1479,0.1502,0.1476,0.1477,0.1477,0.1515,0.1486,0.148,0.147,0.1395,0.1391,0.1391,0.1391,0.1391,0.1391,0.1391,0.1391,0.1391,0.1391,0.1391,0.1391,0.1391,0.1391,0.1391,0.1391,0.2331,0.3267,0.42,0.5139,0.6118,0.7051,0.7095,0.7095,0.7095,0.7095,0.7095,0.7095,0.7095,0.7095,0.162,0.1617,0.1617,0.1617,0.1617,0.1617,0.1617,0.1617,0.1626,0.1707,0.1714,0.1714,0.1714,0.1705,0.164,0.162,0.1583,0.156,0.0,0.1528,0.1496,0.145,0.2503,0.3469,0.4226,0.5557,0.6634,0.7196,0.7693,0.8072,0.833,0.815,0.7988,0.7988,0.7753,0.76,0.76,0.725,0.7095,0.7095,0.7095,0.7095,0.7095,0.7095,0.7095,0.7095,0.7095,0.7095,0.7095,0.7095,0.7095,0.7007,0.6074,0.5137,0.4156,0.2865,0.1973,0.1391,0.1391,0.1391,0.1391,0.1391,0.1391,0.1391,0.1391,0.1391,0.1391,0.1391,0.1391,0.1395,0.146,0.1473,0.1486,0.1506,0.1519,0.1532,0.1552,0.154,0.1523,0.1513,0.1494,0.1471,0.1395,0.1391,0.1391,0.1391,0.1391,0.1391,0.1391,0.1391,0.1391,0.1391,0.1391,0.1391,0.1391,0.1391,0.1391,0.1391,0.1704,0.2642,0.4245,0.4601,0.5492,0.7051,0.7095,0.7095,0.7095,0.7095,0.7095,0.7095,0.7095,0.7095,0.1617,0.1617,0.1617,0.1617,0.1617,0.162,0.163,0.1633,0.1641,0.1671,0.1677,0.1674,0.1716,0.1714,0.17,0.1607,0.1594,0.1583,0.0,0.151,0.1461,0.1453,0.2049,0.2648,0.3014,0.4621,0.5907,0.6498,0.7367,0.7997,0.8306,0.8123,0.7988,0.7988,0.7753,0.76,0.76,0.725,0.7095,0.7095,0.7095,0.7095,0.7095,0.7095,0.7095,0.7095,0.7095,0.7095,0.7095,0.7095,0.7095,0.7051,0.6432,0.5403,0.42,0.3267,0.2285,0.1391,0.1391,0.1391,0.1391,0.1391,0.1391,0.1391,0.1391,0.1391,0.1391,0.1391,0.1391,0.1397,0.1472,0.1489,0.1504,0.1535,0.1551,0.1564,0.1583,0.1572,0.1555,0.1544,0.1518,0.1491,0.1425,0.1405,0.1391,0.1391,0.1391,0.1391,0.1391,0.1391,0.1391,0.1391,0.1391,0.1391,0.1391,0.1391,0.1391,0.1391,0.206,0.2998,0.4245,0.4956,0.5847,0.7095,0.7095,0.7095,0.7095,0.7095,0.7095,0.7095,0.7095,0.7095]}]]